<?xml version='1.0' encoding='UTF-8'?><gpx version="1.1" creator="JPX - https://github.com/jenetics/jpx" xmlns="http://www.topografix.com/GPX/1/1"><trk><trkseg><trkpt lat="45.37547877888814" lon="10.52930608752492"><ele>117.0</ele><time>2026-03-24T12:44:52.969Z</time></trkpt><trkpt lat="45.37543993768781" lon="10.529384282305498"><ele>117.00000000000001</ele><time>2026-03-24T12:45:23.969Z</time></trkpt><trkpt lat="45.3753646961481" lon="10.529393763153369"><ele>117.0</ele><time>2026-03-24T12:45:30.969Z</time></trkpt><trkpt lat="45.37529798230581" lon="10.529403136641413"><ele>117.0</ele><time>2026-03-24T12:45:38.969Z</time></trkpt><trkpt lat="45.37523305124682" lon="10.529434436507806"><ele>117.00000000000001</ele><time>2026-03-24T12:45:44.969Z</time></trkpt><trkpt lat="45.37519386384852" lon="10.529514273624988"><ele>117.0</ele><time>2026-03-24T12:45:51.969Z</time></trkpt><trkpt lat="45.37520363941538" lon="10.529617945917765"><ele>117.0</ele><time>2026-03-24T12:45:57.969Z</time></trkpt><trkpt lat="45.37522654705518" lon="10.529715016916864"><ele>117.66666666666667</ele><time>2026-03-24T12:46:01.969Z</time></trkpt><trkpt lat="45.375230631328385" lon="10.529820022310684"><ele>118.33333333333334</ele><time>2026-03-24T12:46:04.969Z</time></trkpt><trkpt lat="45.37524259669427" lon="10.529935021332498"><ele>119.0</ele><time>2026-03-24T12:46:08.969Z</time></trkpt><trkpt lat="45.37524994939425" lon="10.530027558491097"><ele>119.66666666666667</ele><time>2026-03-24T12:46:11.969Z</time></trkpt><trkpt lat="45.375242716792386" lon="10.530132988884862"><ele>120.33333333333334</ele><time>2026-03-24T12:46:14.968Z</time></trkpt><trkpt lat="45.37522131709065" lon="10.530251177238487"><ele>121.0</ele><time>2026-03-24T12:46:17.968Z</time></trkpt><trkpt lat="45.3752376912006" lon="10.530349694573289"><ele>121.0</ele><time>2026-03-24T12:46:20.968Z</time></trkpt><trkpt lat="45.37524674428507" lon="10.530442836500903"><ele>120.99999999999999</ele><time>2026-03-24T12:46:23.968Z</time></trkpt><trkpt lat="45.37525445347096" lon="10.530536335600951"><ele>121.0</ele><time>2026-03-24T12:46:26.968Z</time></trkpt><trkpt lat="45.375264969397676" lon="10.530630421722886"><ele>121.0</ele><time>2026-03-24T12:46:29.968Z</time></trkpt><trkpt lat="45.37528890105404" lon="10.53073256173621"><ele>120.99999999999999</ele><time>2026-03-24T12:46:32.968Z</time></trkpt><trkpt lat="45.3753005500449" lon="10.530840319377365"><ele>121.0</ele><time>2026-03-24T12:46:35.968Z</time></trkpt><trkpt lat="45.375304775484054" lon="10.53094005697005"><ele>121.0</ele><time>2026-03-24T12:46:38.968Z</time></trkpt><trkpt lat="45.375294286204" lon="10.53104274216829"><ele>121.0</ele><time>2026-03-24T12:46:41.968Z</time></trkpt><trkpt lat="45.37532083727512" lon="10.531143404626262"><ele>120.99999999999999</ele><time>2026-03-24T12:46:44.968Z</time></trkpt><trkpt lat="45.37535437433783" lon="10.5312410087902"><ele>121.0</ele><time>2026-03-24T12:46:47.967Z</time></trkpt><trkpt lat="45.37536867837184" lon="10.531335638967077"><ele>121.0</ele><time>2026-03-24T12:46:50.967Z</time></trkpt><trkpt lat="45.37538042782971" lon="10.531426451330102"><ele>120.99999999999999</ele><time>2026-03-24T12:46:53.967Z</time></trkpt><trkpt lat="45.37538879864018" lon="10.531529282849345"><ele>121.0</ele><time>2026-03-24T12:46:56.967Z</time></trkpt><trkpt lat="45.37540159873115" lon="10.53162836397887"><ele>121.0</ele><time>2026-03-24T12:46:59.967Z</time></trkpt><trkpt lat="45.375408878334675" lon="10.531724252096847"><ele>121.42857142857142</ele><time>2026-03-24T12:47:02.967Z</time></trkpt><trkpt lat="45.37541507180053" lon="10.531823799459369"><ele>121.85714285714285</ele><time>2026-03-24T12:47:05.967Z</time></trkpt><trkpt lat="45.37542670634439" lon="10.53192046418977"><ele>122.28571428571428</ele><time>2026-03-24T12:47:08.967Z</time></trkpt><trkpt lat="45.37542947395976" lon="10.532012548926135"><ele>122.71428571428572</ele><time>2026-03-24T12:47:11.967Z</time></trkpt><trkpt lat="45.3754479578049" lon="10.532118459977147"><ele>123.14285714285715</ele><time>2026-03-24T12:47:14.967Z</time></trkpt><trkpt lat="45.375461800110614" lon="10.532218473320151"><ele>123.57142857142858</ele><time>2026-03-24T12:47:17.967Z</time></trkpt><trkpt lat="45.37545484897977" lon="10.532324735981602"><ele>124.0</ele><time>2026-03-24T12:47:20.967Z</time></trkpt><trkpt lat="45.37545957500339" lon="10.532422253757982"><ele>124.50000000000001</ele><time>2026-03-24T12:47:23.967Z</time></trkpt><trkpt lat="45.37547035292241" lon="10.532538273690687"><ele>125.0</ele><time>2026-03-24T12:47:26.967Z</time></trkpt><trkpt lat="45.37546325123735" lon="10.532643717248693"><ele>125.5</ele><time>2026-03-24T12:47:29.967Z</time></trkpt><trkpt lat="45.375477502341745" lon="10.532748928941487"><ele>126.0</ele><time>2026-03-24T12:47:33.967Z</time></trkpt><trkpt lat="45.375465894168464" lon="10.532853078617416"><ele>126.50000000000001</ele><time>2026-03-24T12:47:37.967Z</time></trkpt><trkpt lat="45.37545488348896" lon="10.532974448477203"><ele>127.0</ele><time>2026-03-24T12:47:41.967Z</time></trkpt><trkpt lat="45.3754494399983" lon="10.53307536531019"><ele>127.83333333333334</ele><time>2026-03-24T12:47:43.967Z</time></trkpt><trkpt lat="45.3754576727892" lon="10.533169545658387"><ele>128.66666666666669</ele><time>2026-03-24T12:47:46.967Z</time></trkpt><trkpt lat="45.37545346627002" lon="10.533283127765602"><ele>129.5</ele><time>2026-03-24T12:47:49.967Z</time></trkpt><trkpt lat="45.37545952431686" lon="10.533405364043785"><ele>130.33333333333334</ele><time>2026-03-24T12:47:52.967Z</time></trkpt><trkpt lat="45.37546704948181" lon="10.53352640293163"><ele>131.16666666666666</ele><time>2026-03-24T12:47:56.967Z</time></trkpt><trkpt lat="45.37546162443964" lon="10.533626603754703"><ele>132.0</ele><time>2026-03-24T12:47:59.967Z</time></trkpt><trkpt lat="45.37545508084796" lon="10.53371890459789"><ele>132.42857142857142</ele><time>2026-03-24T12:48:02.967Z</time></trkpt><trkpt lat="45.37545820566301" lon="10.53383661055809"><ele>132.85714285714286</ele><time>2026-03-24T12:48:05.967Z</time></trkpt><trkpt lat="45.375437541059235" lon="10.533927687808179"><ele>133.28571428571428</ele><time>2026-03-24T12:48:08.967Z</time></trkpt><trkpt lat="45.37542931794744" lon="10.534030713968317"><ele>133.71428571428572</ele><time>2026-03-24T12:48:11.966Z</time></trkpt><trkpt lat="45.37541981746825" lon="10.534145652980557"><ele>134.14285714285714</ele><time>2026-03-24T12:48:14.966Z</time></trkpt><trkpt lat="45.37541889125943" lon="10.53424870563441"><ele>134.57142857142856</ele><time>2026-03-24T12:48:17.966Z</time></trkpt><trkpt lat="45.375408799989216" lon="10.534347347580983"><ele>135.0</ele><time>2026-03-24T12:48:20.966Z</time></trkpt><trkpt lat="45.375408232879025" lon="10.534451334323665"><ele>135.0</ele><time>2026-03-24T12:48:23.966Z</time></trkpt><trkpt lat="45.37540998444764" lon="10.534543133252741"><ele>135.0</ele><time>2026-03-24T12:48:26.966Z</time></trkpt><trkpt lat="45.37542339576311" lon="10.534648314198467"><ele>135.0</ele><time>2026-03-24T12:48:29.966Z</time></trkpt><trkpt lat="45.37546530678669" lon="10.53474139463569"><ele>135.0</ele><time>2026-03-24T12:48:32.966Z</time></trkpt><trkpt lat="45.375536244456285" lon="10.53475288678952"><ele>135.0</ele><time>2026-03-24T12:48:35.966Z</time></trkpt><trkpt lat="45.37561387966595" lon="10.534721999032849"><ele>135.0</ele><time>2026-03-24T12:48:39.966Z</time></trkpt><trkpt lat="45.37567513870182" lon="10.53469971727267"><ele>135.0</ele><time>2026-03-24T12:48:42.966Z</time></trkpt><trkpt lat="45.3757433985377" lon="10.53467502853421"><ele>135.28571428571428</ele><time>2026-03-24T12:48:45.968Z</time></trkpt><trkpt lat="45.37582355786526" lon="10.534642600597396"><ele>135.57142857142856</ele><time>2026-03-24T12:48:49.968Z</time></trkpt><trkpt lat="45.37588764841399" lon="10.534615889604732"><ele>135.85714285714286</ele><time>2026-03-24T12:48:52.967Z</time></trkpt><trkpt lat="45.37595478737736" lon="10.534587438801564"><ele>136.14285714285714</ele><time>2026-03-24T12:48:55.968Z</time></trkpt><trkpt lat="45.37603370463076" lon="10.53455960832461"><ele>136.42857142857144</ele><time>2026-03-24T12:48:59.967Z</time></trkpt><trkpt lat="45.37609785137262" lon="10.534550016584047"><ele>136.71428571428572</ele><time>2026-03-24T12:49:02.967Z</time></trkpt><trkpt lat="45.376160774304424" lon="10.534544316949733"><ele>137.0</ele><time>2026-03-24T12:49:05.967Z</time></trkpt><trkpt lat="45.37623611453191" lon="10.534527848414497"><ele>137.0</ele><time>2026-03-24T12:49:09.967Z</time></trkpt><trkpt lat="45.376317766095575" lon="10.534516306679839"><ele>137.0</ele><time>2026-03-24T12:49:13.967Z</time></trkpt><trkpt lat="45.37640075216331" lon="10.534531949119504"><ele>137.0</ele><time>2026-03-24T12:49:17.967Z</time></trkpt><trkpt lat="45.376475606599534" lon="10.534560399322405"><ele>137.0</ele><time>2026-03-24T12:49:21.967Z</time></trkpt><trkpt lat="45.376538068518215" lon="10.534588876399281"><ele>137.0</ele><time>2026-03-24T12:49:24.967Z</time></trkpt><trkpt lat="45.376617152928134" lon="10.534643560193642"><ele>137.0</ele><time>2026-03-24T12:49:28.967Z</time></trkpt><trkpt lat="45.37667938603419" lon="10.53468756418959"><ele>139.0</ele><time>2026-03-24T12:49:31.967Z</time></trkpt><trkpt lat="45.37673938765044" lon="10.534752769594839"><ele>141.0</ele><time>2026-03-24T12:49:35.967Z</time></trkpt><trkpt lat="45.376816922350734" lon="10.534801984884325"><ele>143.0</ele><time>2026-03-24T12:49:39.967Z</time></trkpt><trkpt lat="45.37687566260857" lon="10.53485981934245"><ele>145.0</ele><time>2026-03-24T12:49:42.967Z</time></trkpt><trkpt lat="45.37693774687084" lon="10.53492989337102"><ele>147.0</ele><time>2026-03-24T12:49:46.967Z</time></trkpt><trkpt lat="45.37700388575031" lon="10.534947874977057"><ele>149.0</ele><time>2026-03-24T12:49:49.967Z</time></trkpt><trkpt lat="45.377091809146535" lon="10.534929707270944"><ele>149.0</ele><time>2026-03-24T12:49:53.967Z</time></trkpt><trkpt lat="45.377160107169765" lon="10.534913084007323"><ele>149.0</ele><time>2026-03-24T12:49:56.967Z</time></trkpt><trkpt lat="45.37724142708961" lon="10.534913218556431"><ele>149.0</ele><time>2026-03-24T12:50:00.967Z</time></trkpt><trkpt lat="45.37730620214417" lon="10.534909978704215"><ele>149.0</ele><time>2026-03-24T12:50:03.967Z</time></trkpt><trkpt lat="45.37737753628227" lon="10.534909012013808"><ele>149.0</ele><time>2026-03-24T12:50:07.967Z</time></trkpt><trkpt lat="45.37744137188599" lon="10.534905273041298"><ele>149.0</ele><time>2026-03-24T12:50:10.967Z</time></trkpt><trkpt lat="45.37751491493836" lon="10.534885352394248"><ele>149.0</ele><time>2026-03-24T12:50:14.967Z</time></trkpt><trkpt lat="45.37759175027254" lon="10.534879192997519"><ele>150.28571428571428</ele><time>2026-03-24T12:50:18.967Z</time></trkpt><trkpt lat="45.37766579443102" lon="10.534917979805082"><ele>151.57142857142856</ele><time>2026-03-24T12:50:22.966Z</time></trkpt><trkpt lat="45.377733790645664" lon="10.534943907227456"><ele>152.85714285714286</ele><time>2026-03-24T12:50:26.966Z</time></trkpt><trkpt lat="45.37780249040172" lon="10.534941689447184"><ele>154.14285714285714</ele><time>2026-03-24T12:50:30.966Z</time></trkpt><trkpt lat="45.377865620845384" lon="10.534944109676937"><ele>155.42857142857144</ele><time>2026-03-24T12:50:34.966Z</time></trkpt><trkpt lat="45.37793568362905" lon="10.534912129781164"><ele>156.71428571428572</ele><time>2026-03-24T12:50:38.966Z</time></trkpt><trkpt lat="45.3780021880502" lon="10.534905671255187"><ele>158.0</ele><time>2026-03-24T12:50:41.966Z</time></trkpt><trkpt lat="45.37808090297424" lon="10.534932572985682"><ele>159.85714285714286</ele><time>2026-03-24T12:50:45.966Z</time></trkpt><trkpt lat="45.37814439000188" lon="10.534974320794241"><ele>161.71428571428572</ele><time>2026-03-24T12:50:49.966Z</time></trkpt><trkpt lat="45.37821143049143" lon="10.53502691964634"><ele>163.57142857142856</ele><time>2026-03-24T12:50:53.969Z</time></trkpt><trkpt lat="45.378284533467735" lon="10.53501841510298"><ele>165.42857142857144</ele><time>2026-03-24T12:50:57.968Z</time></trkpt><trkpt lat="45.37835962823574" lon="10.534994963748096"><ele>167.28571428571428</ele><time>2026-03-24T12:51:01.968Z</time></trkpt><trkpt lat="45.378410598338284" lon="10.53492443394285"><ele>169.14285714285714</ele><time>2026-03-24T12:51:04.968Z</time></trkpt><trkpt lat="45.37845200004962" lon="10.53485614662238"><ele>171.0</ele><time>2026-03-24T12:51:07.968Z</time></trkpt><trkpt lat="45.37849381342526" lon="10.534771231549135"><ele>170.99999999999997</ele><time>2026-03-24T12:51:11.968Z</time></trkpt><trkpt lat="45.378526136523234" lon="10.534677331303309"><ele>171.0</ele><time>2026-03-24T12:51:15.968Z</time></trkpt><trkpt lat="45.378552711774695" lon="10.53459492573538"><ele>171.0</ele><time>2026-03-24T12:51:18.968Z</time></trkpt><trkpt lat="45.37858661767486" lon="10.534519308771765"><ele>171.0</ele><time>2026-03-24T12:51:21.968Z</time></trkpt><trkpt lat="45.378635934429276" lon="10.534426105052752"><ele>171.0</ele><time>2026-03-24T12:51:25.968Z</time></trkpt><trkpt lat="45.37867484075442" lon="10.534352031402582"><ele>170.99999999999997</ele><time>2026-03-24T12:51:28.968Z</time></trkpt><trkpt lat="45.37872033440325" lon="10.534250740748238"><ele>171.0</ele><time>2026-03-24T12:51:32.968Z</time></trkpt><trkpt lat="45.378774026716194" lon="10.534164358862961"><ele>172.28571428571428</ele><time>2026-03-24T12:51:36.968Z</time></trkpt><trkpt lat="45.37881097398712" lon="10.534090804986645"><ele>173.57142857142856</ele><time>2026-03-24T12:51:39.968Z</time></trkpt><trkpt lat="45.37884482816653" lon="10.534010657194026"><ele>174.85714285714283</ele><time>2026-03-24T12:51:42.968Z</time></trkpt><trkpt lat="45.37888746063285" lon="10.533927502308279"><ele>176.14285714285714</ele><time>2026-03-24T12:51:45.967Z</time></trkpt><trkpt lat="45.37893029933555" lon="10.53382747248818"><ele>177.42857142857144</ele><time>2026-03-24T12:51:49.967Z</time></trkpt><trkpt lat="45.37896423015091" lon="10.533737830551594"><ele>178.7142857142857</ele><time>2026-03-24T12:51:52.967Z</time></trkpt><trkpt lat="45.37899534778112" lon="10.533635075858939"><ele>180.0</ele><time>2026-03-24T12:51:56.967Z</time></trkpt><trkpt lat="45.37902257319872" lon="10.533544715069585"><ele>181.0</ele><time>2026-03-24T12:51:59.967Z</time></trkpt><trkpt lat="45.37904825526573" lon="10.533454109459116"><ele>182.0</ele><time>2026-03-24T12:52:02.967Z</time></trkpt><trkpt lat="45.3790737730613" lon="10.533354171030087"><ele>183.0</ele><time>2026-03-24T12:52:06.967Z</time></trkpt><trkpt lat="45.379084283192284" lon="10.533264481200478"><ele>184.0</ele><time>2026-03-24T12:52:09.967Z</time></trkpt><trkpt lat="45.379092811593694" lon="10.533153723028914"><ele>185.0</ele><time>2026-03-24T12:52:13.967Z</time></trkpt><trkpt lat="45.37910943795173" lon="10.533049825724351"><ele>186.0</ele><time>2026-03-24T12:52:17.967Z</time></trkpt><trkpt lat="45.37912134913816" lon="10.532957045877897"><ele>187.0</ele><time>2026-03-24T12:52:21.967Z</time></trkpt><trkpt lat="45.379133813137514" lon="10.532846503413587"><ele>187.85714285714286</ele><time>2026-03-24T12:52:25.967Z</time></trkpt><trkpt lat="45.37912962644971" lon="10.532753489420008"><ele>188.71428571428572</ele><time>2026-03-24T12:52:29.967Z</time></trkpt><trkpt lat="45.37912891702845" lon="10.532657405894895"><ele>189.57142857142858</ele><time>2026-03-24T12:52:33.967Z</time></trkpt><trkpt lat="45.37911853353991" lon="10.532554867156206"><ele>190.42857142857144</ele><time>2026-03-24T12:52:36.967Z</time></trkpt><trkpt lat="45.3790914735425" lon="10.532473878071944"><ele>191.28571428571428</ele><time>2026-03-24T12:52:42.967Z</time></trkpt><trkpt lat="45.37917044227767" lon="10.532466205120052"><ele>192.14285714285717</ele><time>2026-03-24T12:52:54.967Z</time></trkpt><trkpt lat="45.379235224469895" lon="10.532492479115577"><ele>193.0</ele><time>2026-03-24T12:52:58.969Z</time></trkpt><trkpt lat="45.37929034956166" lon="10.532554362555873"><ele>193.00000000000003</ele><time>2026-03-24T12:53:01.969Z</time></trkpt><trkpt lat="45.37930688522833" lon="10.53266674790167"><ele>193.0</ele><time>2026-03-24T12:53:05.969Z</time></trkpt><trkpt lat="45.3793471312304" lon="10.5327410356944"><ele>193.0</ele><time>2026-03-24T12:53:07.97Z</time></trkpt><trkpt lat="45.379402563170956" lon="10.532800262299"><ele>193.0</ele><time>2026-03-24T12:53:10.969Z</time></trkpt><trkpt lat="45.37945871774331" lon="10.53285192704557"><ele>193.0</ele><time>2026-03-24T12:53:13.969Z</time></trkpt><trkpt lat="45.37953075888579" lon="10.532881935118263"><ele>193.00000000000003</ele><time>2026-03-24T12:53:17.969Z</time></trkpt><trkpt lat="45.37958904582336" lon="10.532945664409732"><ele>193.0</ele><time>2026-03-24T12:53:21.969Z</time></trkpt><trkpt lat="45.379606047623945" lon="10.532837332962295"><ele>193.00000000000003</ele><time>2026-03-24T12:53:25.969Z</time></trkpt><trkpt lat="45.37965928043768" lon="10.532776984481664"><ele>193.0</ele><time>2026-03-24T12:53:29.969Z</time></trkpt><trkpt lat="45.379731181605635" lon="10.532721729720096"><ele>193.0</ele><time>2026-03-24T12:53:42.968Z</time></trkpt><trkpt lat="45.37979105347449" lon="10.532678319970836"><ele>193.0</ele><time>2026-03-24T12:53:46.968Z</time></trkpt><trkpt lat="45.379853139911845" lon="10.5326395730029"><ele>193.0</ele><time>2026-03-24T12:53:48.968Z</time></trkpt><trkpt lat="45.3799138318884" lon="10.532613885018254"><ele>193.00000000000003</ele><time>2026-03-24T12:53:50.968Z</time></trkpt><trkpt lat="45.37996657237433" lon="10.532556716512739"><ele>193.0</ele><time>2026-03-24T12:53:53.968Z</time></trkpt><trkpt lat="45.380042070831024" lon="10.53255130968917"><ele>191.83333333333331</ele><time>2026-03-24T12:53:55.968Z</time></trkpt><trkpt lat="45.380136861252566" lon="10.532516707645978"><ele>190.66666666666666</ele><time>2026-03-24T12:53:58.968Z</time></trkpt><trkpt lat="45.38021052641236" lon="10.532465173810126"><ele>189.5</ele><time>2026-03-24T12:54:01.968Z</time></trkpt><trkpt lat="45.38024000784224" lon="10.532347836884023"><ele>188.33333333333331</ele><time>2026-03-24T12:54:04.968Z</time></trkpt><trkpt lat="45.38025790022007" lon="10.53224976771668"><ele>187.16666666666666</ele><time>2026-03-24T12:54:07.968Z</time></trkpt><trkpt lat="45.38028620521816" lon="10.53215339816241"><ele>186.0</ele><time>2026-03-24T12:54:10.968Z</time></trkpt><trkpt lat="45.38033366875881" lon="10.53203156743772"><ele>185.83333333333334</ele><time>2026-03-24T12:54:13.968Z</time></trkpt><trkpt lat="45.3803174909231" lon="10.531919857357538"><ele>185.66666666666666</ele><time>2026-03-24T12:54:16.968Z</time></trkpt><trkpt lat="45.38035259572172" lon="10.531814030814807"><ele>185.5</ele><time>2026-03-24T12:54:19.968Z</time></trkpt><trkpt lat="45.38038563466071" lon="10.531695539458138"><ele>185.33333333333331</ele><time>2026-03-24T12:54:22.968Z</time></trkpt><trkpt lat="45.38039260019641" lon="10.531582146744151"><ele>185.16666666666666</ele><time>2026-03-24T12:54:25.968Z</time></trkpt><trkpt lat="45.38040682594024" lon="10.531487181894391"><ele>185.0</ele><time>2026-03-24T12:54:28.968Z</time></trkpt><trkpt lat="45.38042446166905" lon="10.53137399075603"><ele>184.99999999999997</ele><time>2026-03-24T12:54:31.968Z</time></trkpt><trkpt lat="45.380451217559326" lon="10.531288457258576"><ele>185.0</ele><time>2026-03-24T12:54:34.968Z</time></trkpt><trkpt lat="45.380454030078376" lon="10.531188944984878"><ele>185.0</ele><time>2026-03-24T12:54:37.968Z</time></trkpt><trkpt lat="45.3804654388736" lon="10.53108192900696"><ele>185.0</ele><time>2026-03-24T12:54:41.968Z</time></trkpt><trkpt lat="45.380479948538195" lon="10.530986500046787"><ele>185.0</ele><time>2026-03-24T12:54:45.968Z</time></trkpt><trkpt lat="45.380485406165064" lon="10.530884292071757"><ele>184.99999999999997</ele><time>2026-03-24T12:54:48.968Z</time></trkpt><trkpt lat="45.380477928466725" lon="10.530767072517833"><ele>185.0</ele><time>2026-03-24T12:54:52.968Z</time></trkpt><trkpt lat="45.38048014881457" lon="10.530661091002703"><ele>183.0</ele><time>2026-03-24T12:54:55.968Z</time></trkpt><trkpt lat="45.38046067217068" lon="10.530556618734863"><ele>181.0</ele><time>2026-03-24T12:54:58.968Z</time></trkpt><trkpt lat="45.38040439610511" lon="10.530488118405405"><ele>179.0</ele><time>2026-03-24T12:55:02.971Z</time></trkpt><trkpt lat="45.380342421153664" lon="10.53055659486599"><ele>177.0</ele><time>2026-03-24T12:55:05.97Z</time></trkpt><trkpt lat="45.38026028585318" lon="10.530571693942118"><ele>175.0</ele><time>2026-03-24T12:55:08.97Z</time></trkpt><trkpt lat="45.38020035093141" lon="10.530480783883338"><ele>173.0</ele><time>2026-03-24T12:55:11.97Z</time></trkpt><trkpt lat="45.380187324339225" lon="10.530390100328322"><ele>171.0</ele><time>2026-03-24T12:55:13.97Z</time></trkpt><trkpt lat="45.38015367391188" lon="10.530275552096992"><ele>169.0</ele><time>2026-03-24T12:55:16.97Z</time></trkpt><trkpt lat="45.38012009745191" lon="10.530195051520463"><ele>167.0</ele><time>2026-03-24T12:55:18.97Z</time></trkpt><trkpt lat="45.38008900815103" lon="10.530079770209447"><ele>165.0</ele><time>2026-03-24T12:55:21.97Z</time></trkpt><trkpt lat="45.380063476299796" lon="10.529969695284661"><ele>163.0</ele><time>2026-03-24T12:55:24.97Z</time></trkpt><trkpt lat="45.38004239056158" lon="10.529859681756648"><ele>161.0</ele><time>2026-03-24T12:55:27.97Z</time></trkpt><trkpt lat="45.38003480843819" lon="10.529758572026044"><ele>161.0</ele><time>2026-03-24T12:55:29.97Z</time></trkpt><trkpt lat="45.38003005534809" lon="10.529631910947716"><ele>161.0</ele><time>2026-03-24T12:55:32.97Z</time></trkpt><trkpt lat="45.38004862437224" lon="10.529518214238749"><ele>161.0</ele><time>2026-03-24T12:55:35.97Z</time></trkpt><trkpt lat="45.38008316276772" lon="10.529409324067105"><ele>161.0</ele><time>2026-03-24T12:55:38.97Z</time></trkpt><trkpt lat="45.38013231254507" lon="10.529315658013711"><ele>161.0</ele><time>2026-03-24T12:55:41.97Z</time></trkpt><trkpt lat="45.38017959429386" lon="10.529220878966125"><ele>161.0</ele><time>2026-03-24T12:55:44.97Z</time></trkpt><trkpt lat="45.38018725742865" lon="10.529090448512937"><ele>159.33333333333331</ele><time>2026-03-24T12:55:47.97Z</time></trkpt><trkpt lat="45.38018016400431" lon="10.528977001690539"><ele>157.66666666666666</ele><time>2026-03-24T12:55:50.97Z</time></trkpt><trkpt lat="45.38017625697847" lon="10.528870695312737"><ele>156.0</ele><time>2026-03-24T12:55:53.97Z</time></trkpt><trkpt lat="45.380161189288984" lon="10.528770716323233"><ele>154.33333333333334</ele><time>2026-03-24T12:55:56.97Z</time></trkpt><trkpt lat="45.38017434960315" lon="10.528674337393891"><ele>152.66666666666669</ele><time>2026-03-24T12:55:59.97Z</time></trkpt><trkpt lat="45.38017600970436" lon="10.528565857750868"><ele>151.0</ele><time>2026-03-24T12:56:02.97Z</time></trkpt><trkpt lat="45.38016557239113" lon="10.528452697192607"><ele>149.16666666666669</ele><time>2026-03-24T12:56:05.97Z</time></trkpt><trkpt lat="45.38022015020299" lon="10.528356179649334"><ele>147.33333333333334</ele><time>2026-03-24T12:56:09.97Z</time></trkpt><trkpt lat="45.38029280248661" lon="10.528386365098509"><ele>145.5</ele><time>2026-03-24T12:56:12.97Z</time></trkpt><trkpt lat="45.38035508507649" lon="10.528446721910997"><ele>143.66666666666666</ele><time>2026-03-24T12:56:15.97Z</time></trkpt><trkpt lat="45.38042154481704" lon="10.528497459699562"><ele>141.83333333333331</ele><time>2026-03-24T12:56:18.97Z</time></trkpt><trkpt lat="45.38049407285007" lon="10.528552572037613"><ele>140.0</ele><time>2026-03-24T12:56:21.97Z</time></trkpt><trkpt lat="45.380553303005634" lon="10.528654456157389"><ele>140.66666666666666</ele><time>2026-03-24T12:56:24.97Z</time></trkpt><trkpt lat="45.380580493779995" lon="10.528753134996169"><ele>141.33333333333331</ele><time>2026-03-24T12:56:27.97Z</time></trkpt><trkpt lat="45.38059275084234" lon="10.528876519074839"><ele>142.0</ele><time>2026-03-24T12:56:30.97Z</time></trkpt><trkpt lat="45.380600141822555" lon="10.52898946461738"><ele>142.66666666666666</ele><time>2026-03-24T12:56:33.97Z</time></trkpt><trkpt lat="45.38062737077866" lon="10.529088182456393"><ele>143.33333333333334</ele><time>2026-03-24T12:56:36.969Z</time></trkpt><trkpt lat="45.38065674448827" lon="10.529191067631825"><ele>144.0</ele><time>2026-03-24T12:56:39.969Z</time></trkpt><trkpt lat="45.38068634015234" lon="10.52927546134916"><ele>144.00000000000003</ele><time>2026-03-24T12:56:42.969Z</time></trkpt><trkpt lat="45.380685355544536" lon="10.529378680411561"><ele>144.0</ele><time>2026-03-24T12:56:45.969Z</time></trkpt><trkpt lat="45.380695616079464" lon="10.529480779235119"><ele>144.0</ele><time>2026-03-24T12:56:48.969Z</time></trkpt><trkpt lat="45.38070001681941" lon="10.529571518357422"><ele>144.0</ele><time>2026-03-24T12:56:51.969Z</time></trkpt><trkpt lat="45.38070538913571" lon="10.52966862134733"><ele>144.0</ele><time>2026-03-24T12:56:54.969Z</time></trkpt><trkpt lat="45.38070859662961" lon="10.52976937533785"><ele>144.00000000000003</ele><time>2026-03-24T12:56:57.969Z</time></trkpt><trkpt lat="45.38068667241793" lon="10.52986055264056"><ele>144.0</ele><time>2026-03-24T12:57:00.969Z</time></trkpt><trkpt lat="45.3806862853137" lon="10.529953535522443"><ele>145.14285714285717</ele><time>2026-03-24T12:57:03.969Z</time></trkpt><trkpt lat="45.38068984649334" lon="10.530054990670424"><ele>146.28571428571428</ele><time>2026-03-24T12:57:06.969Z</time></trkpt><trkpt lat="45.38070437613136" lon="10.530142824258826"><ele>147.42857142857144</ele><time>2026-03-24T12:57:09.971Z</time></trkpt><trkpt lat="45.380748700508654" lon="10.530230216993647"><ele>148.57142857142858</ele><time>2026-03-24T12:57:12.972Z</time></trkpt><trkpt lat="45.38080989885361" lon="10.530295487407278"><ele>149.71428571428572</ele><time>2026-03-24T12:57:15.972Z</time></trkpt><trkpt lat="45.38087057594183" lon="10.530325956700379"><ele>150.85714285714286</ele><time>2026-03-24T12:57:18.972Z</time></trkpt><trkpt lat="45.38090738170147" lon="10.530409872717552"><ele>152.0</ele><time>2026-03-24T12:57:21.972Z</time></trkpt><trkpt lat="45.38093995951242" lon="10.530489774187583"><ele>153.0</ele><time>2026-03-24T12:57:24.972Z</time></trkpt><trkpt lat="45.38098395636698" lon="10.530575808693909"><ele>154.0</ele><time>2026-03-24T12:57:28.972Z</time></trkpt><trkpt lat="45.38102697307257" lon="10.530678728965581"><ele>155.0</ele><time>2026-03-24T12:57:32.972Z</time></trkpt><trkpt lat="45.380998752895444" lon="10.530770300718268"><ele>156.0</ele><time>2026-03-24T12:57:35.972Z</time></trkpt><trkpt lat="45.38101803468265" lon="10.530862859881717"><ele>157.0</ele><time>2026-03-24T12:57:38.972Z</time></trkpt><trkpt lat="45.38103819061493" lon="10.530958755849063"><ele>158.0</ele><time>2026-03-24T12:57:41.972Z</time></trkpt><trkpt lat="45.3810478080224" lon="10.531049431910615"><ele>159.0</ele><time>2026-03-24T12:57:44.972Z</time></trkpt><trkpt lat="45.38104980706652" lon="10.531143225394679"><ele>159.85714285714286</ele><time>2026-03-24T12:57:47.972Z</time></trkpt><trkpt lat="45.381071619956266" lon="10.531231573084309"><ele>160.71428571428572</ele><time>2026-03-24T12:57:50.972Z</time></trkpt><trkpt lat="45.3810674632153" lon="10.531334845401414"><ele>161.57142857142858</ele><time>2026-03-24T12:57:54.972Z</time></trkpt><trkpt lat="45.38104856595562" lon="10.531428222937889"><ele>162.42857142857144</ele><time>2026-03-24T12:57:57.972Z</time></trkpt><trkpt lat="45.38102296622468" lon="10.531513959320286"><ele>163.28571428571428</ele><time>2026-03-24T12:58:00.972Z</time></trkpt><trkpt lat="45.38100409165485" lon="10.531611416921589"><ele>164.14285714285717</ele><time>2026-03-24T12:58:03.972Z</time></trkpt><trkpt lat="45.380983606132745" lon="10.531705661181736"><ele>165.0</ele><time>2026-03-24T12:58:06.972Z</time></trkpt><trkpt lat="45.38096647375815" lon="10.531803050606397"><ele>165.00000000000003</ele><time>2026-03-24T12:58:09.972Z</time></trkpt><trkpt lat="45.3809341400118" lon="10.531909677453058"><ele>165.0</ele><time>2026-03-24T12:58:13.972Z</time></trkpt><trkpt lat="45.380922777563875" lon="10.532012169312063"><ele>165.0</ele><time>2026-03-24T12:58:16.972Z</time></trkpt><trkpt lat="45.38090981119194" lon="10.53211310262013"><ele>165.0</ele><time>2026-03-24T12:58:19.972Z</time></trkpt><trkpt lat="45.380907838359754" lon="10.53221414816069"><ele>165.0</ele><time>2026-03-24T12:58:22.971Z</time></trkpt><trkpt lat="45.380867359797165" lon="10.532297250437498"><ele>165.00000000000003</ele><time>2026-03-24T12:58:25.971Z</time></trkpt><trkpt lat="45.38081784894563" lon="10.532363628366076"><ele>165.0</ele><time>2026-03-24T12:58:28.971Z</time></trkpt><trkpt lat="45.380768584991934" lon="10.53245309106002"><ele>164.83333333333334</ele><time>2026-03-24T12:58:31.971Z</time></trkpt><trkpt lat="45.380723539715625" lon="10.532530482085729"><ele>164.66666666666666</ele><time>2026-03-24T12:58:34.971Z</time></trkpt><trkpt lat="45.38066864664099" lon="10.532605597073431"><ele>164.5</ele><time>2026-03-24T12:58:37.971Z</time></trkpt><trkpt lat="45.38061337252412" lon="10.532691618706664"><ele>164.33333333333331</ele><time>2026-03-24T12:58:40.971Z</time></trkpt><trkpt lat="45.38057431223302" lon="10.532774294053652"><ele>164.16666666666666</ele><time>2026-03-24T12:58:50.971Z</time></trkpt><trkpt lat="45.38052923209528" lon="10.53286031645939"><ele>164.0</ele><time>2026-03-24T12:58:53.97Z</time></trkpt><trkpt lat="45.380466727603284" lon="10.53292894909864"><ele>166.28571428571428</ele><time>2026-03-24T12:58:57.969Z</time></trkpt><trkpt lat="45.380398549263425" lon="10.532950110426727"><ele>168.57142857142856</ele><time>2026-03-24T12:59:00.969Z</time></trkpt><trkpt lat="45.38033696809594" lon="10.532983345815747"><ele>170.85714285714283</ele><time>2026-03-24T12:59:03.969Z</time></trkpt><trkpt lat="45.380281311757706" lon="10.533026795352663"><ele>173.14285714285714</ele><time>2026-03-24T12:59:06.968Z</time></trkpt><trkpt lat="45.38021915225131" lon="10.533073749535578"><ele>175.42857142857144</ele><time>2026-03-24T12:59:09.968Z</time></trkpt><trkpt lat="45.380171047725234" lon="10.533143705450149"><ele>177.7142857142857</ele><time>2026-03-24T12:59:12.97Z</time></trkpt><trkpt lat="45.38019419701468" lon="10.533241231286345"><ele>180.0</ele><time>2026-03-24T12:59:15.97Z</time></trkpt><trkpt lat="45.38026282214555" lon="10.533316435633935"><ele>180.0</ele><time>2026-03-24T12:59:19.97Z</time></trkpt><trkpt lat="45.38032521015037" lon="10.533375506815206"><ele>180.0</ele><time>2026-03-24T12:59:22.97Z</time></trkpt><trkpt lat="45.38040326040843" lon="10.533434330085962"><ele>180.0</ele><time>2026-03-24T12:59:25.97Z</time></trkpt><trkpt lat="45.380458605134436" lon="10.533514735280841"><ele>180.0</ele><time>2026-03-24T12:59:28.97Z</time></trkpt><trkpt lat="45.38046507903588" lon="10.533609549672798"><ele>180.0</ele><time>2026-03-24T12:59:30.97Z</time></trkpt><trkpt lat="45.38048368688287" lon="10.53371912815599"><ele>180.0</ele><time>2026-03-24T12:59:33.969Z</time></trkpt><trkpt lat="45.38052487826654" lon="10.533807187682694"><ele>180.14285714285714</ele><time>2026-03-24T12:59:36.969Z</time></trkpt><trkpt lat="45.38049630052209" lon="10.533892896187725"><ele>180.2857142857143</ele><time>2026-03-24T12:59:39.969Z</time></trkpt><trkpt lat="45.38048393562122" lon="10.533996646137515"><ele>180.42857142857144</ele><time>2026-03-24T12:59:42.969Z</time></trkpt><trkpt lat="45.38046723020072" lon="10.534090746126171"><ele>180.57142857142856</ele><time>2026-03-24T12:59:45.969Z</time></trkpt><trkpt lat="45.380446483678824" lon="10.534180649524801"><ele>180.71428571428572</ele><time>2026-03-24T12:59:48.969Z</time></trkpt><trkpt lat="45.380427294315325" lon="10.534276939154166"><ele>180.85714285714286</ele><time>2026-03-24T12:59:51.969Z</time></trkpt><trkpt lat="45.38039983757033" lon="10.534372909609752"><ele>181.0</ele><time>2026-03-24T12:59:54.969Z</time></trkpt><trkpt lat="45.38037050981724" lon="10.534475319777664"><ele>180.16666666666669</ele><time>2026-03-24T12:59:57.969Z</time></trkpt><trkpt lat="45.38033639844265" lon="10.534563655211517"><ele>179.33333333333334</ele><time>2026-03-24T13:00:00.969Z</time></trkpt><trkpt lat="45.380301349742446" lon="10.534656833339332"><ele>178.5</ele><time>2026-03-24T13:00:03.969Z</time></trkpt><trkpt lat="45.38027159628664" lon="10.534758602618968"><ele>177.66666666666666</ele><time>2026-03-24T13:00:06.969Z</time></trkpt><trkpt lat="45.380237682387076" lon="10.53486460651236"><ele>176.83333333333331</ele><time>2026-03-24T13:00:09.969Z</time></trkpt><trkpt lat="45.380218194749624" lon="10.53495213920944"><ele>176.0</ele><time>2026-03-24T13:00:12.969Z</time></trkpt><trkpt lat="45.38022459920226" lon="10.535077280599307"><ele>176.0</ele><time>2026-03-24T13:00:18.969Z</time></trkpt><trkpt lat="45.380188509946976" lon="10.535182675439259"><ele>176.0</ele><time>2026-03-24T13:00:21.969Z</time></trkpt><trkpt lat="45.38018225649296" lon="10.535288607011529"><ele>176.0</ele><time>2026-03-24T13:00:24.969Z</time></trkpt><trkpt lat="45.38019383449207" lon="10.535389507347551"><ele>176.0</ele><time>2026-03-24T13:00:27.969Z</time></trkpt><trkpt lat="45.380204723217446" lon="10.535481948159907"><ele>176.0</ele><time>2026-03-24T13:00:29.969Z</time></trkpt><trkpt lat="45.380188709617556" lon="10.535571469898688"><ele>176.0</ele><time>2026-03-24T13:00:31.969Z</time></trkpt><trkpt lat="45.38018602835865" lon="10.535690621519475"><ele>176.0</ele><time>2026-03-24T13:00:34.969Z</time></trkpt><trkpt lat="45.38015544044216" lon="10.535816494735055"><ele>174.5</ele><time>2026-03-24T13:00:37.969Z</time></trkpt><trkpt lat="45.38015592895045" lon="10.535939238518068"><ele>173.0</ele><time>2026-03-24T13:00:40.968Z</time></trkpt><trkpt lat="45.380165562263834" lon="10.536033118643294"><ele>171.5</ele><time>2026-03-24T13:00:42.968Z</time></trkpt><trkpt lat="45.38012547801375" lon="10.53614674868518"><ele>170.0</ele><time>2026-03-24T13:00:45.968Z</time></trkpt><trkpt lat="45.380075391241824" lon="10.536231383026989"><ele>168.5</ele><time>2026-03-24T13:00:48.968Z</time></trkpt><trkpt lat="45.380017481240344" lon="10.536295053059822"><ele>167.0</ele><time>2026-03-24T13:00:51.968Z</time></trkpt><trkpt lat="45.37995127817159" lon="10.536366930009788"><ele>168.28571428571428</ele><time>2026-03-24T13:00:55.968Z</time></trkpt><trkpt lat="45.379898962396986" lon="10.536444148809176"><ele>169.57142857142858</ele><time>2026-03-24T13:00:58.968Z</time></trkpt><trkpt lat="45.37985889641516" lon="10.536531143280225"><ele>170.85714285714286</ele><time>2026-03-24T13:01:01.968Z</time></trkpt><trkpt lat="45.37978984374309" lon="10.536551757089814"><ele>172.14285714285714</ele><time>2026-03-24T13:01:04.968Z</time></trkpt><trkpt lat="45.3797242261927" lon="10.536621536178584"><ele>173.42857142857142</ele><time>2026-03-24T13:01:07.968Z</time></trkpt><trkpt lat="45.37967891513396" lon="10.536685880456533"><ele>174.71428571428572</ele><time>2026-03-24T13:01:10.968Z</time></trkpt><trkpt lat="45.379651287786935" lon="10.536795453561444"><ele>176.0</ele><time>2026-03-24T13:01:13.968Z</time></trkpt><trkpt lat="45.3796076430288" lon="10.536886752115242"><ele>176.0</ele><time>2026-03-24T13:01:16.968Z</time></trkpt><trkpt lat="45.37955564782751" lon="10.536962707841823"><ele>176.0</ele><time>2026-03-24T13:01:19.971Z</time></trkpt><trkpt lat="45.379503971704224" lon="10.537032596140119"><ele>176.0</ele><time>2026-03-24T13:01:22.971Z</time></trkpt><trkpt lat="45.37944656701497" lon="10.537102820279163"><ele>176.0</ele><time>2026-03-24T13:01:25.97Z</time></trkpt><trkpt lat="45.37939357260351" lon="10.537153241130515"><ele>176.0</ele><time>2026-03-24T13:01:27.971Z</time></trkpt><trkpt lat="45.3793267629159" lon="10.537199112707592"><ele>176.0</ele><time>2026-03-24T13:01:30.971Z</time></trkpt><trkpt lat="45.37927129026923" lon="10.537258006370141"><ele>176.0</ele><time>2026-03-24T13:01:33.971Z</time></trkpt><trkpt lat="45.37920272895807" lon="10.537267236514602"><ele>174.71428571428572</ele><time>2026-03-24T13:01:36.97Z</time></trkpt><trkpt lat="45.37915809444927" lon="10.537361744566345"><ele>173.42857142857142</ele><time>2026-03-24T13:01:39.97Z</time></trkpt><trkpt lat="45.37909906053596" lon="10.537426802376253"><ele>172.14285714285714</ele><time>2026-03-24T13:01:42.97Z</time></trkpt><trkpt lat="45.379057040400376" lon="10.537496873410943"><ele>170.85714285714286</ele><time>2026-03-24T13:01:45.97Z</time></trkpt><trkpt lat="45.3790031192624" lon="10.537587633587075"><ele>169.57142857142858</ele><time>2026-03-24T13:01:48.97Z</time></trkpt><trkpt lat="45.37898338445334" lon="10.537680561564628"><ele>168.28571428571428</ele><time>2026-03-24T13:01:51.97Z</time></trkpt><trkpt lat="45.3789515786182" lon="10.537780191289903"><ele>167.0</ele><time>2026-03-24T13:01:54.97Z</time></trkpt><trkpt lat="45.37891066456391" lon="10.537866828571302"><ele>167.16666666666666</ele><time>2026-03-24T13:01:57.97Z</time></trkpt><trkpt lat="45.378868526243934" lon="10.537962181258308"><ele>167.33333333333331</ele><time>2026-03-24T13:02:00.97Z</time></trkpt><trkpt lat="45.37881890943732" lon="10.538033288991173"><ele>167.5</ele><time>2026-03-24T13:02:03.97Z</time></trkpt><trkpt lat="45.37876685518961" lon="10.538109879401146"><ele>167.66666666666666</ele><time>2026-03-24T13:02:06.97Z</time></trkpt><trkpt lat="45.37869703816863" lon="10.538162241214708"><ele>167.83333333333334</ele><time>2026-03-24T13:02:10.97Z</time></trkpt><trkpt lat="45.37862544515948" lon="10.538220803220328"><ele>168.0</ele><time>2026-03-24T13:02:14.97Z</time></trkpt><trkpt lat="45.378561631093675" lon="10.538260215349942"><ele>168.0</ele><time>2026-03-24T13:02:17.97Z</time></trkpt><trkpt lat="45.378529811286654" lon="10.538354072989062"><ele>168.0</ele><time>2026-03-24T13:02:20.97Z</time></trkpt><trkpt lat="45.37846119985873" lon="10.538365192647568"><ele>168.0</ele><time>2026-03-24T13:02:23.97Z</time></trkpt><trkpt lat="45.37841564035695" lon="10.538246154133368"><ele>168.0</ele><time>2026-03-24T13:02:26.97Z</time></trkpt><trkpt lat="45.378396469977226" lon="10.538146876800617"><ele>168.0</ele><time>2026-03-24T13:02:30.97Z</time></trkpt><trkpt lat="45.37842519475691" lon="10.538062362388349"><ele>168.0</ele><time>2026-03-24T13:02:33.97Z</time></trkpt><trkpt lat="45.37846663921228" lon="10.537962025878175"><ele>168.83333333333334</ele><time>2026-03-24T13:02:37.97Z</time></trkpt><trkpt lat="45.37849686654987" lon="10.537860855780737"><ele>169.66666666666666</ele><time>2026-03-24T13:02:41.97Z</time></trkpt><trkpt lat="45.37852555463935" lon="10.537748895443485"><ele>170.5</ele><time>2026-03-24T13:02:45.97Z</time></trkpt><trkpt lat="45.378526115822666" lon="10.537630167713045"><ele>171.33333333333331</ele><time>2026-03-24T13:02:48.97Z</time></trkpt><trkpt lat="45.378529967173776" lon="10.537527690896242"><ele>172.16666666666666</ele><time>2026-03-24T13:02:51.97Z</time></trkpt><trkpt lat="45.37851876011075" lon="10.537427156663755"><ele>173.0</ele><time>2026-03-24T13:02:54.97Z</time></trkpt><trkpt lat="45.37852481655861" lon="10.537335447481025"><ele>173.0</ele><time>2026-03-24T13:02:57.969Z</time></trkpt><trkpt lat="45.37851697357205" lon="10.537244720573797"><ele>173.0</ele><time>2026-03-24T13:03:00.969Z</time></trkpt><trkpt lat="45.37851498179729" lon="10.537145080859084"><ele>173.0</ele><time>2026-03-24T13:03:03.969Z</time></trkpt><trkpt lat="45.378517355417145" lon="10.537050434666918"><ele>173.0</ele><time>2026-03-24T13:03:06.969Z</time></trkpt><trkpt lat="45.37851324420143" lon="10.536957512227692"><ele>173.0</ele><time>2026-03-24T13:03:10.969Z</time></trkpt><trkpt lat="45.37842382734209" lon="10.536996240813504"><ele>173.0</ele><time>2026-03-24T13:03:47.972Z</time></trkpt><trkpt lat="45.378404583718684" lon="10.537097725651153"><ele>173.0</ele><time>2026-03-24T13:03:49.972Z</time></trkpt><trkpt lat="45.37839816255276" lon="10.53720788388992"><ele>173.0</ele><time>2026-03-24T13:03:52.972Z</time></trkpt><trkpt lat="45.378375230872614" lon="10.537326305210783"><ele>173.0</ele><time>2026-03-24T13:03:55.972Z</time></trkpt><trkpt lat="45.37834230650716" lon="10.537437248399478"><ele>173.0</ele><time>2026-03-24T13:03:58.972Z</time></trkpt><trkpt lat="45.37829878017164" lon="10.537541556469199"><ele>173.0</ele><time>2026-03-24T13:04:01.972Z</time></trkpt><trkpt lat="45.37825199992402" lon="10.537634879381073"><ele>173.0</ele><time>2026-03-24T13:04:04.972Z</time></trkpt><trkpt lat="45.37820633345399" lon="10.53773777467677"><ele>173.0</ele><time>2026-03-24T13:04:07.972Z</time></trkpt><trkpt lat="45.378163242391594" lon="10.537844734164032"><ele>172.16666666666666</ele><time>2026-03-24T13:04:10.972Z</time></trkpt><trkpt lat="45.37812107276165" lon="10.537923016348369"><ele>171.33333333333331</ele><time>2026-03-24T13:04:13.972Z</time></trkpt><trkpt lat="45.378060643712" lon="10.537965223936059"><ele>170.5</ele><time>2026-03-24T13:04:16.972Z</time></trkpt><trkpt lat="45.37800163123397" lon="10.538000784319854"><ele>169.66666666666666</ele><time>2026-03-24T13:04:19.972Z</time></trkpt><trkpt lat="45.377927193393916" lon="10.538017510477111"><ele>168.83333333333334</ele><time>2026-03-24T13:04:22.972Z</time></trkpt><trkpt lat="45.37784455648709" lon="10.538085992274404"><ele>168.0</ele><time>2026-03-24T13:04:25.972Z</time></trkpt><trkpt lat="45.37777197079256" lon="10.538145644244945"><ele>167.0</ele><time>2026-03-24T13:04:28.972Z</time></trkpt><trkpt lat="45.37768752395372" lon="10.538207635836484"><ele>166.0</ele><time>2026-03-24T13:04:31.972Z</time></trkpt><trkpt lat="45.37761393566605" lon="10.538227975833884"><ele>165.0</ele><time>2026-03-24T13:04:34.972Z</time></trkpt><trkpt lat="45.37753038509905" lon="10.538276224208296"><ele>164.0</ele><time>2026-03-24T13:04:37.972Z</time></trkpt><trkpt lat="45.377456752553144" lon="10.538332402334445"><ele>163.0</ele><time>2026-03-24T13:04:40.972Z</time></trkpt><trkpt lat="45.37738145873471" lon="10.538370318922556"><ele>162.0</ele><time>2026-03-24T13:04:43.972Z</time></trkpt><trkpt lat="45.37729824017835" lon="10.538390242371925"><ele>162.0</ele><time>2026-03-24T13:04:46.972Z</time></trkpt><trkpt lat="45.3772308798461" lon="10.538424211725268"><ele>162.0</ele><time>2026-03-24T13:04:48.972Z</time></trkpt><trkpt lat="45.377156811226705" lon="10.538423111684764"><ele>162.0</ele><time>2026-03-24T13:04:51.972Z</time></trkpt><trkpt lat="45.37708376731963" lon="10.538422761660687"><ele>162.0</ele><time>2026-03-24T13:04:55.971Z</time></trkpt><trkpt lat="45.37701371163521" lon="10.538405961469996"><ele>162.0</ele><time>2026-03-24T13:05:00.971Z</time></trkpt><trkpt lat="45.37693938161509" lon="10.538397159846737"><ele>162.0</ele><time>2026-03-24T13:05:05.971Z</time></trkpt><trkpt lat="45.37687137216417" lon="10.538419874389906"><ele>162.0</ele><time>2026-03-24T13:05:08.971Z</time></trkpt><trkpt lat="45.37680334644564" lon="10.538466551870188"><ele>160.83333333333334</ele><time>2026-03-24T13:05:16.971Z</time></trkpt><trkpt lat="45.37672859896919" lon="10.538491017980592"><ele>159.66666666666666</ele><time>2026-03-24T13:05:21.971Z</time></trkpt><trkpt lat="45.3766845483351" lon="10.538560219956802"><ele>158.5</ele><time>2026-03-24T13:05:24.971Z</time></trkpt><trkpt lat="45.37663635924943" lon="10.53868481915748"><ele>157.33333333333331</ele><time>2026-03-24T13:05:27.971Z</time></trkpt><trkpt lat="45.37659805936753" lon="10.538768759508738"><ele>156.16666666666666</ele><time>2026-03-24T13:05:30.974Z</time></trkpt><trkpt lat="45.37655768160976" lon="10.538839606374646"><ele>155.0</ele><time>2026-03-24T13:05:32.973Z</time></trkpt><trkpt lat="45.376499871610584" lon="10.538937699173983"><ele>155.0</ele><time>2026-03-24T13:05:35.974Z</time></trkpt><trkpt lat="45.37643656840784" lon="10.539031265393811"><ele>155.0</ele><time>2026-03-24T13:05:38.974Z</time></trkpt><trkpt lat="45.376372909297736" lon="10.539114033453773"><ele>155.0</ele><time>2026-03-24T13:05:41.974Z</time></trkpt><trkpt lat="45.376300663910534" lon="10.539182876706604"><ele>155.0</ele><time>2026-03-24T13:05:44.974Z</time></trkpt><trkpt lat="45.376241078270795" lon="10.539230358039186"><ele>155.0</ele><time>2026-03-24T13:05:46.974Z</time></trkpt><trkpt lat="45.376187938387986" lon="10.539290756209"><ele>155.0</ele><time>2026-03-24T13:06:11.974Z</time></trkpt><trkpt lat="45.376163488313665" lon="10.539391624965921"><ele>154.42857142857144</ele><time>2026-03-24T13:06:14.974Z</time></trkpt><trkpt lat="45.376137219609895" lon="10.539474320695234"><ele>153.85714285714286</ele><time>2026-03-24T13:06:17.974Z</time></trkpt><trkpt lat="45.37613411320003" lon="10.539574822852781"><ele>153.28571428571428</ele><time>2026-03-24T13:06:20.973Z</time></trkpt><trkpt lat="45.37613703714035" lon="10.539700681908034"><ele>152.71428571428572</ele><time>2026-03-24T13:06:24.973Z</time></trkpt><trkpt lat="45.376091093305114" lon="10.539786938860086"><ele>152.14285714285714</ele><time>2026-03-24T13:06:32.973Z</time></trkpt><trkpt lat="45.376021467334745" lon="10.539795717114716"><ele>151.57142857142858</ele><time>2026-03-24T13:06:34.973Z</time></trkpt><trkpt lat="45.37595479245131" lon="10.539793497233624"><ele>151.0</ele><time>2026-03-24T13:06:36.973Z</time></trkpt><trkpt lat="45.37587952072441" lon="10.539786077902736"><ele>151.0</ele><time>2026-03-24T13:06:39.973Z</time></trkpt><trkpt lat="45.37578668457817" lon="10.53979401153723"><ele>151.0</ele><time>2026-03-24T13:06:42.973Z</time></trkpt><trkpt lat="45.375700354747586" lon="10.539800519814417"><ele>151.0</ele><time>2026-03-24T13:06:45.973Z</time></trkpt><trkpt lat="45.3756140385723" lon="10.539816144547345"><ele>151.0</ele><time>2026-03-24T13:06:48.973Z</time></trkpt><trkpt lat="45.37552470342184" lon="10.539803305225204"><ele>151.0</ele><time>2026-03-24T13:06:51.973Z</time></trkpt><trkpt lat="45.375455864019095" lon="10.539813236362741"><ele>151.0</ele><time>2026-03-24T13:06:53.973Z</time></trkpt><trkpt lat="45.37536782579888" lon="10.539811787838644"><ele>150.0</ele><time>2026-03-24T13:06:56.973Z</time></trkpt><trkpt lat="45.37527660443673" lon="10.53979970078075"><ele>149.0</ele><time>2026-03-24T13:06:59.973Z</time></trkpt><trkpt lat="45.37518472558087" lon="10.539805909503446"><ele>148.0</ele><time>2026-03-24T13:07:02.973Z</time></trkpt><trkpt lat="45.37511533025061" lon="10.539813418316106"><ele>147.0</ele><time>2026-03-24T13:07:04.973Z</time></trkpt><trkpt lat="45.37501557287475" lon="10.539805800844494"><ele>146.0</ele><time>2026-03-24T13:07:07.973Z</time></trkpt><trkpt lat="45.37491687938003" lon="10.539805098453417"><ele>146.0</ele><time>2026-03-24T13:07:10.973Z</time></trkpt><trkpt lat="45.37484886757901" lon="10.539779660400397"><ele>146.0</ele><time>2026-03-24T13:07:12.973Z</time></trkpt><trkpt lat="45.37475385299632" lon="10.539768922422665"><ele>146.0</ele><time>2026-03-24T13:07:15.973Z</time></trkpt><trkpt lat="45.374662938285425" lon="10.539748495987569"><ele>146.0</ele><time>2026-03-24T13:07:18.973Z</time></trkpt><trkpt lat="45.374586775203724" lon="10.53972225994435"><ele>146.0</ele><time>2026-03-24T13:07:20.973Z</time></trkpt><trkpt lat="45.37451963178802" lon="10.539702866501194"><ele>146.0</ele><time>2026-03-24T13:07:22.973Z</time></trkpt><trkpt lat="45.374452290298215" lon="10.539696580189897"><ele>145.14285714285714</ele><time>2026-03-24T13:07:24.973Z</time></trkpt><trkpt lat="45.374386752462655" lon="10.539664647792325"><ele>144.28571428571428</ele><time>2026-03-24T13:07:26.973Z</time></trkpt><trkpt lat="45.37431784416902" lon="10.539675091747757"><ele>143.42857142857144</ele><time>2026-03-24T13:07:28.973Z</time></trkpt><trkpt lat="45.374247044895824" lon="10.539676989034174"><ele>142.57142857142856</ele><time>2026-03-24T13:07:30.973Z</time></trkpt><trkpt lat="45.3741813610871" lon="10.53966171510437"><ele>141.71428571428572</ele><time>2026-03-24T13:07:32.973Z</time></trkpt><trkpt lat="45.37411092118279" lon="10.53961658322368"><ele>140.85714285714286</ele><time>2026-03-24T13:07:57.975Z</time></trkpt><trkpt lat="45.374068651747805" lon="10.539704624483438"><ele>140.0</ele><time>2026-03-24T13:08:06.975Z</time></trkpt><trkpt lat="45.374076455358995" lon="10.53980082961485"><ele>140.0</ele><time>2026-03-24T13:08:11.974Z</time></trkpt><trkpt lat="45.37405756358344" lon="10.539901020359649"><ele>140.0</ele><time>2026-03-24T13:08:16.974Z</time></trkpt><trkpt lat="45.37404189647098" lon="10.54002388032646"><ele>140.0</ele><time>2026-03-24T13:08:21.974Z</time></trkpt><trkpt lat="45.37404519875862" lon="10.540117636996783"><ele>140.0</ele><time>2026-03-24T13:08:25.974Z</time></trkpt><trkpt lat="45.37403471243735" lon="10.540214844680083"><ele>140.0</ele><time>2026-03-24T13:08:30.974Z</time></trkpt><trkpt lat="45.37402726903358" lon="10.540309884347725"><ele>140.0</ele><time>2026-03-24T13:08:35.974Z</time></trkpt><trkpt lat="45.37399286068803" lon="10.540388553687219"><ele>140.0</ele><time>2026-03-24T13:08:38.974Z</time></trkpt><trkpt lat="45.3739165886288" lon="10.54044859426053"><ele>140.42857142857142</ele><time>2026-03-24T13:08:41.974Z</time></trkpt><trkpt lat="45.37386663315149" lon="10.540518343685672"><ele>140.85714285714286</ele><time>2026-03-24T13:08:44.974Z</time></trkpt><trkpt lat="45.37384645117706" lon="10.540624179654868"><ele>141.28571428571428</ele><time>2026-03-24T13:08:47.974Z</time></trkpt><trkpt lat="45.37381715066624" lon="10.540713822757755"><ele>141.71428571428572</ele><time>2026-03-24T13:08:50.974Z</time></trkpt><trkpt lat="45.37379881139883" lon="10.540824367109558"><ele>142.14285714285714</ele><time>2026-03-24T13:08:53.974Z</time></trkpt><trkpt lat="45.37377974845903" lon="10.540913624789283"><ele>142.57142857142856</ele><time>2026-03-24T13:08:56.974Z</time></trkpt><trkpt lat="45.373752315075016" lon="10.54101365316224"><ele>143.0</ele><time>2026-03-24T13:09:00.974Z</time></trkpt><trkpt lat="45.37372728833558" lon="10.54109761510628"><ele>142.14285714285714</ele><time>2026-03-24T13:09:03.974Z</time></trkpt><trkpt lat="45.37371508556564" lon="10.541191205430898"><ele>141.28571428571428</ele><time>2026-03-24T13:09:06.974Z</time></trkpt><trkpt lat="45.37373546303385" lon="10.541289509116568"><ele>140.42857142857144</ele><time>2026-03-24T13:09:09.974Z</time></trkpt><trkpt lat="45.37374685046207" lon="10.541396485700584"><ele>139.57142857142856</ele><time>2026-03-24T13:09:12.974Z</time></trkpt><trkpt lat="45.37376402585845" lon="10.541504877054514"><ele>138.71428571428572</ele><time>2026-03-24T13:09:15.974Z</time></trkpt><trkpt lat="45.373780325022" lon="10.541604617966463"><ele>137.85714285714286</ele><time>2026-03-24T13:09:18.974Z</time></trkpt><trkpt lat="45.37378798427733" lon="10.541713314266936"><ele>137.0</ele><time>2026-03-24T13:09:21.974Z</time></trkpt><trkpt lat="45.37382210087678" lon="10.541815315560335"><ele>137.0</ele><time>2026-03-24T13:09:24.974Z</time></trkpt><trkpt lat="45.37386365536825" lon="10.541925529038194"><ele>137.0</ele><time>2026-03-24T13:09:27.974Z</time></trkpt><trkpt lat="45.37389386337858" lon="10.54202392494473"><ele>137.0</ele><time>2026-03-24T13:09:30.973Z</time></trkpt><trkpt lat="45.3739064027954" lon="10.542140926114866"><ele>137.0</ele><time>2026-03-24T13:09:33.973Z</time></trkpt><trkpt lat="45.37392607031843" lon="10.542269814338287"><ele>137.0</ele><time>2026-03-24T13:09:36.973Z</time></trkpt><trkpt lat="45.373937244006555" lon="10.54238637031397"><ele>137.0</ele><time>2026-03-24T13:09:39.973Z</time></trkpt><trkpt lat="45.37395208494088" lon="10.542473782061963"><ele>137.0</ele><time>2026-03-24T13:09:41.977Z</time></trkpt><trkpt lat="45.37399871272747" lon="10.542576428945244"><ele>137.0</ele><time>2026-03-24T13:09:44.976Z</time></trkpt><trkpt lat="45.3740010013691" lon="10.542686201804967"><ele>137.0</ele><time>2026-03-24T13:09:47.976Z</time></trkpt><trkpt lat="45.373964049567775" lon="10.54278169966348"><ele>137.0</ele><time>2026-03-24T13:09:50.976Z</time></trkpt><trkpt lat="45.37389637235937" lon="10.542794778102817"><ele>137.0</ele><time>2026-03-24T13:10:08.976Z</time></trkpt><trkpt lat="45.3738450117146" lon="10.542861646747877"><ele>137.0</ele><time>2026-03-24T13:10:21.976Z</time></trkpt><trkpt lat="45.37377024402319" lon="10.542875510340252"><ele>136.5</ele><time>2026-03-24T13:10:28.976Z</time></trkpt><trkpt lat="45.373704548311224" lon="10.542902460063777"><ele>136.0</ele><time>2026-03-24T13:10:32.976Z</time></trkpt><trkpt lat="45.37363498077525" lon="10.542914133444933"><ele>135.5</ele><time>2026-03-24T13:10:43.975Z</time></trkpt><trkpt lat="45.37358350340485" lon="10.542851946188776"><ele>135.0</ele><time>2026-03-24T13:10:45.975Z</time></trkpt><trkpt lat="45.373529799766544" lon="10.542787308256989"><ele>134.5</ele><time>2026-03-24T13:10:48.975Z</time></trkpt><trkpt lat="45.3734515297745" lon="10.542722187565973"><ele>134.0</ele><time>2026-03-24T13:10:51.975Z</time></trkpt><trkpt lat="45.37336729475923" lon="10.542671162137829"><ele>134.0</ele><time>2026-03-24T13:10:54.975Z</time></trkpt><trkpt lat="45.37327565964658" lon="10.542631122976179"><ele>134.0</ele><time>2026-03-24T13:10:57.975Z</time></trkpt><trkpt lat="45.37319232084542" lon="10.542591209384177"><ele>134.0</ele><time>2026-03-24T13:11:00.975Z</time></trkpt><trkpt lat="45.37310132565362" lon="10.542576039199325"><ele>134.0</ele><time>2026-03-24T13:11:03.975Z</time></trkpt><trkpt lat="45.37301728166432" lon="10.542555656750748"><ele>134.0</ele><time>2026-03-24T13:11:06.975Z</time></trkpt><trkpt lat="45.3729526780009" lon="10.54254995961609"><ele>134.0</ele><time>2026-03-24T13:11:08.975Z</time></trkpt><trkpt lat="45.372863145085894" lon="10.542524173528768"><ele>133.42857142857144</ele><time>2026-03-24T13:11:11.975Z</time></trkpt><trkpt lat="45.37280026198412" lon="10.542518744833282"><ele>132.85714285714286</ele><time>2026-03-24T13:11:13.975Z</time></trkpt><trkpt lat="45.37271581107167" lon="10.542514838497983"><ele>132.28571428571428</ele><time>2026-03-24T13:11:16.975Z</time></trkpt><trkpt lat="45.372647212685315" lon="10.542501249220013"><ele>131.71428571428572</ele><time>2026-03-24T13:11:18.975Z</time></trkpt><trkpt lat="45.372578832306274" lon="10.54249541107079"><ele>131.14285714285714</ele><time>2026-03-24T13:11:20.975Z</time></trkpt><trkpt lat="45.37251647730632" lon="10.542471301802632"><ele>130.57142857142858</ele><time>2026-03-24T13:11:22.975Z</time></trkpt><trkpt lat="45.37245320536095" lon="10.542483483341398"><ele>130.0</ele><time>2026-03-24T13:11:24.975Z</time></trkpt><trkpt lat="45.37238949948966" lon="10.542479374578152"><ele>130.0</ele><time>2026-03-24T13:11:26.975Z</time></trkpt><trkpt lat="45.372320692654654" lon="10.54248339114492"><ele>130.0</ele><time>2026-03-24T13:11:28.975Z</time></trkpt><trkpt lat="45.372257181735876" lon="10.542481838897968"><ele>130.0</ele><time>2026-03-24T13:11:30.975Z</time></trkpt><trkpt lat="45.37217138601081" lon="10.542554861021912"><ele>130.0</ele><time>2026-03-24T13:11:33.975Z</time></trkpt><trkpt lat="45.372112010889694" lon="10.542655423746558"><ele>130.0</ele><time>2026-03-24T13:11:36.975Z</time></trkpt><trkpt lat="45.372035492993675" lon="10.542718848705604"><ele>130.0</ele><time>2026-03-24T13:11:39.975Z</time></trkpt><trkpt lat="45.37195035156774" lon="10.542683941615062"><ele>129.5</ele><time>2026-03-24T13:11:42.975Z</time></trkpt><trkpt lat="45.37186496208216" lon="10.54264383084552"><ele>129.0</ele><time>2026-03-24T13:11:45.975Z</time></trkpt><trkpt lat="45.3717722653152" lon="10.542621015952164"><ele>128.5</ele><time>2026-03-24T13:11:48.977Z</time></trkpt><trkpt lat="45.37171070714016" lon="10.54259591506772"><ele>128.0</ele><time>2026-03-24T13:11:50.978Z</time></trkpt><trkpt lat="45.37162951799095" lon="10.542558305095973"><ele>127.50000000000001</ele><time>2026-03-24T13:11:53.977Z</time></trkpt><trkpt lat="45.37154461922177" lon="10.542521035430175"><ele>127.0</ele><time>2026-03-24T13:11:56.977Z</time></trkpt><trkpt lat="45.37146426489595" lon="10.542486708942004"><ele>127.00000000000001</ele><time>2026-03-24T13:11:59.977Z</time></trkpt><trkpt lat="45.37139740782023" lon="10.542468681884772"><ele>127.0</ele><time>2026-03-24T13:12:02.977Z</time></trkpt><trkpt lat="45.371312130839875" lon="10.54247490850556"><ele>127.0</ele><time>2026-03-24T13:12:36.977Z</time></trkpt><trkpt lat="45.37124359590163" lon="10.542500655908588"><ele>127.0</ele><time>2026-03-24T13:12:39.977Z</time></trkpt><trkpt lat="45.37122386326248" lon="10.542640946156427"><ele>127.00000000000001</ele><time>2026-03-24T13:12:42.977Z</time></trkpt><trkpt lat="45.37118856831853" lon="10.542744420704407"><ele>127.0</ele><time>2026-03-24T13:12:45.976Z</time></trkpt><trkpt lat="45.37116527715238" lon="10.542871644076374"><ele>128.0</ele><time>2026-03-24T13:12:48.976Z</time></trkpt><trkpt lat="45.37113556709109" lon="10.542988064885636"><ele>129.0</ele><time>2026-03-24T13:12:51.976Z</time></trkpt><trkpt lat="45.37110863863526" lon="10.54310391480608"><ele>130.0</ele><time>2026-03-24T13:12:54.976Z</time></trkpt><trkpt lat="45.37109260736674" lon="10.543222870072716"><ele>131.0</ele><time>2026-03-24T13:12:57.976Z</time></trkpt><trkpt lat="45.371078318784" lon="10.543351691981334"><ele>132.0</ele><time>2026-03-24T13:13:00.976Z</time></trkpt><trkpt lat="45.37106031626354" lon="10.54346565624066"><ele>133.0</ele><time>2026-03-24T13:13:03.976Z</time></trkpt><trkpt lat="45.37101990750413" lon="10.543567884295442"><ele>133.0</ele><time>2026-03-24T13:13:06.976Z</time></trkpt><trkpt lat="45.37095280464818" lon="10.543561528423112"><ele>133.0</ele><time>2026-03-24T13:13:19.976Z</time></trkpt><trkpt lat="45.37087081674991" lon="10.543600733363885"><ele>133.0</ele><time>2026-03-24T13:13:23.976Z</time></trkpt><trkpt lat="45.37080959811933" lon="10.543625019964956"><ele>133.0</ele><time>2026-03-24T13:13:26.976Z</time></trkpt><trkpt lat="45.37073379322857" lon="10.54361781315089"><ele>133.0</ele><time>2026-03-24T13:13:32.976Z</time></trkpt><trkpt lat="45.37066296152624" lon="10.54359419363399"><ele>133.0</ele><time>2026-03-24T13:13:35.976Z</time></trkpt><trkpt lat="45.37059780494048" lon="10.54361378400952"><ele>133.0</ele><time>2026-03-24T13:13:39.976Z</time></trkpt><trkpt lat="45.37059232540868" lon="10.54350464397867"><ele>133.0</ele><time>2026-03-24T13:13:45.976Z</time></trkpt><trkpt lat="45.370534289608834" lon="10.543469230497056"><ele>133.0</ele><time>2026-03-24T13:13:48.976Z</time></trkpt><trkpt lat="45.37046022157293" lon="10.54348848948325"><ele>133.0</ele><time>2026-03-24T13:13:51.976Z</time></trkpt><trkpt lat="45.370483314301005" lon="10.543584877007063"><ele>133.0</ele><time>2026-03-24T13:13:55.979Z</time></trkpt><trkpt lat="45.37050224115586" lon="10.543690126896996"><ele>133.0</ele><time>2026-03-24T13:13:58.979Z</time></trkpt><trkpt lat="45.37049671592948" lon="10.54378012363016"><ele>133.0</ele><time>2026-03-24T13:14:02.979Z</time></trkpt><trkpt lat="45.3704484437226" lon="10.54384147258836"><ele>133.0</ele><time>2026-03-24T13:14:04.979Z</time></trkpt><trkpt lat="45.370412020474056" lon="10.54396033629809"><ele>132.66666666666669</ele><time>2026-03-24T13:14:10.978Z</time></trkpt><trkpt lat="45.37035766424068" lon="10.54406834663334"><ele>132.33333333333334</ele><time>2026-03-24T13:14:13.978Z</time></trkpt><trkpt lat="45.37031545328584" lon="10.544171944293414"><ele>132.0</ele><time>2026-03-24T13:14:16.978Z</time></trkpt><trkpt lat="45.37027749756481" lon="10.54426869110111"><ele>131.66666666666666</ele><time>2026-03-24T13:14:19.978Z</time></trkpt><trkpt lat="45.370229097475224" lon="10.54438185663562"><ele>131.33333333333331</ele><time>2026-03-24T13:14:22.978Z</time></trkpt><trkpt lat="45.37018636939168" lon="10.544486637567624"><ele>131.0</ele><time>2026-03-24T13:14:25.978Z</time></trkpt><trkpt lat="45.370145696108125" lon="10.544604236018754"><ele>130.33333333333331</ele><time>2026-03-24T13:14:28.978Z</time></trkpt><trkpt lat="45.37009894236031" lon="10.544715000733767"><ele>129.66666666666666</ele><time>2026-03-24T13:14:31.978Z</time></trkpt><trkpt lat="45.37005652544079" lon="10.544824091922921"><ele>129.0</ele><time>2026-03-24T13:14:34.978Z</time></trkpt><trkpt lat="45.37004209253438" lon="10.544926809751681"><ele>128.33333333333334</ele><time>2026-03-24T13:14:37.978Z</time></trkpt><trkpt lat="45.37003629336668" lon="10.545019533664766"><ele>127.66666666666667</ele><time>2026-03-24T13:14:40.978Z</time></trkpt><trkpt lat="45.37002367213754" lon="10.54511829848688"><ele>127.0</ele><time>2026-03-24T13:14:43.978Z</time></trkpt><trkpt lat="45.3700043446815" lon="10.545227219026804"><ele>127.0</ele><time>2026-03-24T13:14:46.978Z</time></trkpt><trkpt lat="45.369978113510996" lon="10.545342392094115"><ele>127.0</ele><time>2026-03-24T13:14:49.978Z</time></trkpt><trkpt lat="45.36993572119629" lon="10.545434737932899"><ele>127.0</ele><time>2026-03-24T13:14:52.977Z</time></trkpt><trkpt lat="45.36989762117218" lon="10.545511393423723"><ele>127.0</ele><time>2026-03-24T13:14:55.977Z</time></trkpt><trkpt lat="45.369833005265306" lon="10.545520560052399"><ele>127.0</ele><time>2026-03-24T13:14:58.977Z</time></trkpt><trkpt lat="45.36977145151982" lon="10.545483719139327"><ele>127.0</ele><time>2026-03-24T13:15:00.977Z</time></trkpt><trkpt lat="45.36969461162471" lon="10.545447147598631"><ele>127.0</ele><time>2026-03-24T13:15:03.976Z</time></trkpt><trkpt lat="45.36962254365493" lon="10.545411730782329"><ele>125.50000000000001</ele><time>2026-03-24T13:15:06.976Z</time></trkpt><trkpt lat="45.3695615282361" lon="10.545389342427224"><ele>124.0</ele><time>2026-03-24T13:15:08.976Z</time></trkpt><trkpt lat="45.36947686544265" lon="10.545399427217161"><ele>122.5</ele><time>2026-03-24T13:15:11.976Z</time></trkpt><trkpt lat="45.369441549827265" lon="10.54531047539001"><ele>121.0</ele><time>2026-03-24T13:15:24.976Z</time></trkpt><trkpt lat="45.36940065616161" lon="10.545205480703649"><ele>119.50000000000001</ele><time>2026-03-24T13:15:27.976Z</time></trkpt><trkpt lat="45.36933623859755" lon="10.545132230886251"><ele>118.0</ele><time>2026-03-24T13:15:30.976Z</time></trkpt><trkpt lat="45.369271976866905" lon="10.545041266231058"><ele>118.00000000000001</ele><time>2026-03-24T13:15:33.976Z</time></trkpt><trkpt lat="45.36923035666268" lon="10.544927852682038"><ele>118.0</ele><time>2026-03-24T13:15:36.976Z</time></trkpt><trkpt lat="45.36917525691985" lon="10.544828184217746"><ele>118.0</ele><time>2026-03-24T13:15:39.975Z</time></trkpt><trkpt lat="45.36913863656351" lon="10.544744390477769"><ele>118.0</ele><time>2026-03-24T13:15:41.975Z</time></trkpt><trkpt lat="45.36909793498457" lon="10.544645782806937"><ele>118.00000000000001</ele><time>2026-03-24T13:15:44.975Z</time></trkpt><trkpt lat="45.36907219401144" lon="10.544529098116215"><ele>118.0</ele><time>2026-03-24T13:15:47.975Z</time></trkpt><trkpt lat="45.36903379328761" lon="10.544420048688632"><ele>118.83333333333334</ele><time>2026-03-24T13:15:50.975Z</time></trkpt><trkpt lat="45.36899446870178" lon="10.544322462279595"><ele>119.66666666666667</ele><time>2026-03-24T13:15:53.975Z</time></trkpt><trkpt lat="45.36895862131766" lon="10.544211576796847"><ele>120.5</ele><time>2026-03-24T13:15:56.975Z</time></trkpt><trkpt lat="45.368913335076215" lon="10.544102070793294"><ele>121.33333333333334</ele><time>2026-03-24T13:15:59.978Z</time></trkpt><trkpt lat="45.36888839632417" lon="10.543978862690812"><ele>122.16666666666667</ele><time>2026-03-24T13:16:02.978Z</time></trkpt><trkpt lat="45.368855516218076" lon="10.543860829458064"><ele>123.0</ele><time>2026-03-24T13:16:05.978Z</time></trkpt><trkpt lat="45.36883751814549" lon="10.543769592327749"><ele>121.16666666666667</ele><time>2026-03-24T13:16:07.978Z</time></trkpt><trkpt lat="45.368817601837" lon="10.54364513191252"><ele>119.33333333333334</ele><time>2026-03-24T13:16:10.978Z</time></trkpt><trkpt lat="45.368798077121006" lon="10.543547258982642"><ele>117.5</ele><time>2026-03-24T13:16:12.978Z</time></trkpt><trkpt lat="45.368769496524195" lon="10.54342547060286"><ele>115.66666666666667</ele><time>2026-03-24T13:16:15.978Z</time></trkpt><trkpt lat="45.36875191467366" lon="10.543330706214405"><ele>113.83333333333334</ele><time>2026-03-24T13:16:17.978Z</time></trkpt><trkpt lat="45.36872666785964" lon="10.543208626764164"><ele>112.0</ele><time>2026-03-24T13:16:20.978Z</time></trkpt><trkpt lat="45.36869429794665" lon="10.543081195043168"><ele>112.00000000000001</ele><time>2026-03-24T13:16:23.978Z</time></trkpt><trkpt lat="45.368682029149916" lon="10.542988491913606"><ele>112.0</ele><time>2026-03-24T13:16:25.978Z</time></trkpt><trkpt lat="45.36866009598932" lon="10.542844476230142"><ele>112.0</ele><time>2026-03-24T13:16:28.978Z</time></trkpt><trkpt lat="45.36864268417142" lon="10.542750641884878"><ele>112.0</ele><time>2026-03-24T13:16:30.977Z</time></trkpt><trkpt lat="45.368618217595824" lon="10.542622344164862"><ele>112.00000000000001</ele><time>2026-03-24T13:16:33.977Z</time></trkpt><trkpt lat="45.36859049710744" lon="10.542493947957635"><ele>112.0</ele><time>2026-03-24T13:16:36.977Z</time></trkpt><trkpt lat="45.368586500362525" lon="10.542400721975822"><ele>112.0</ele><time>2026-03-24T13:16:38.977Z</time></trkpt><trkpt lat="45.368583506575945" lon="10.542309579615706"><ele>112.0</ele><time>2026-03-24T13:16:40.977Z</time></trkpt><trkpt lat="45.36858565273848" lon="10.542175894666686"><ele>112.0</ele><time>2026-03-24T13:16:43.977Z</time></trkpt><trkpt lat="45.36859180899319" lon="10.542059964903784"><ele>112.0</ele><time>2026-03-24T13:16:46.977Z</time></trkpt><trkpt lat="45.3686348520775" lon="10.541992288335832"><ele>112.0</ele><time>2026-03-24T13:16:49.977Z</time></trkpt><trkpt lat="45.368703781829026" lon="10.54195220492454"><ele>112.0</ele><time>2026-03-24T13:16:54.977Z</time></trkpt><trkpt lat="45.36876961240348" lon="10.541914976552114"><ele>112.0</ele><time>2026-03-24T13:16:58.977Z</time></trkpt><trkpt lat="45.36879778457751" lon="10.541810841433202"><ele>112.00000000000001</ele><time>2026-03-24T13:17:02.977Z</time></trkpt><trkpt lat="45.36875009237835" lon="10.54174470927599"><ele>112.0</ele><time>2026-03-24T13:17:04.977Z</time></trkpt><trkpt lat="45.36870757321592" lon="10.541641606573641"><ele>112.0</ele><time>2026-03-24T13:17:07.977Z</time></trkpt><trkpt lat="45.36868919458625" lon="10.541520355126304"><ele>112.0</ele><time>2026-03-24T13:17:10.977Z</time></trkpt><trkpt lat="45.36868145224409" lon="10.541384373660186"><ele>112.00000000000001</ele><time>2026-03-24T13:17:13.977Z</time></trkpt><trkpt lat="45.36868618948703" lon="10.541249735162351"><ele>112.0</ele><time>2026-03-24T13:17:16.977Z</time></trkpt><trkpt lat="45.368671601796976" lon="10.54111809841714"><ele>112.00000000000001</ele><time>2026-03-24T13:17:19.977Z</time></trkpt><trkpt lat="45.36865793562668" lon="10.540995039842556"><ele>112.0</ele><time>2026-03-24T13:17:22.977Z</time></trkpt><trkpt lat="45.36864898712501" lon="10.540902252810774"><ele>112.0</ele><time>2026-03-24T13:17:24.977Z</time></trkpt><trkpt lat="45.36863917600659" lon="10.540778500612202"><ele>112.0</ele><time>2026-03-24T13:17:27.977Z</time></trkpt><trkpt lat="45.36864671624033" lon="10.54063961525106"><ele>112.00000000000001</ele><time>2026-03-24T13:17:30.977Z</time></trkpt><trkpt lat="45.36864473504786" lon="10.540545862749747"><ele>112.0</ele><time>2026-03-24T13:17:32.977Z</time></trkpt><trkpt lat="45.36863622417671" lon="10.540415298179802"><ele>111.71428571428571</ele><time>2026-03-24T13:17:35.977Z</time></trkpt><trkpt lat="45.36863532288428" lon="10.540289430770816"><ele>111.42857142857143</ele><time>2026-03-24T13:17:38.977Z</time></trkpt><trkpt lat="45.36864284007682" lon="10.540197836027168"><ele>111.14285714285714</ele><time>2026-03-24T13:17:41.977Z</time></trkpt><trkpt lat="45.36870479654421" lon="10.540169292689553"><ele>110.85714285714286</ele><time>2026-03-24T13:17:43.977Z</time></trkpt><trkpt lat="45.36877840869789" lon="10.540197771264138"><ele>110.57142857142857</ele><time>2026-03-24T13:17:46.977Z</time></trkpt><trkpt lat="45.36885887324888" lon="10.540218145820583"><ele>110.28571428571428</ele><time>2026-03-24T13:17:50.976Z</time></trkpt><trkpt lat="45.36892310874564" lon="10.54023741018506"><ele>110.0</ele><time>2026-03-24T13:17:53.976Z</time></trkpt><trkpt lat="45.369000212264005" lon="10.540218036522795"><ele>111.42857142857142</ele><time>2026-03-24T13:17:57.976Z</time></trkpt><trkpt lat="45.369072266259714" lon="10.540255531561392"><ele>112.85714285714286</ele><time>2026-03-24T13:18:01.976Z</time></trkpt><trkpt lat="45.369140244170616" lon="10.540276886775487"><ele>114.28571428571428</ele><time>2026-03-24T13:18:04.979Z</time></trkpt><trkpt lat="45.36921390450333" lon="10.540298727627762"><ele>115.71428571428571</ele><time>2026-03-24T13:18:08.979Z</time></trkpt><trkpt lat="45.36928786339126" lon="10.540323366367039"><ele>117.14285714285714</ele><time>2026-03-24T13:18:12.979Z</time></trkpt><trkpt lat="45.36935579181781" lon="10.54034178589752"><ele>118.57142857142857</ele><time>2026-03-24T13:18:16.979Z</time></trkpt><trkpt lat="45.36941960691267" lon="10.540387975354818"><ele>120.0</ele><time>2026-03-24T13:18:20.979Z</time></trkpt><trkpt lat="45.36948814265782" lon="10.540396945553756"><ele>120.57142857142858</ele><time>2026-03-24T13:18:24.979Z</time></trkpt><trkpt lat="45.36954925054471" lon="10.54042492181166"><ele>121.14285714285714</ele><time>2026-03-24T13:18:28.979Z</time></trkpt><trkpt lat="45.369614334492816" lon="10.540477406893851"><ele>121.71428571428572</ele><time>2026-03-24T13:18:33.979Z</time></trkpt><trkpt lat="45.36968817859533" lon="10.540516938731692"><ele>122.28571428571429</ele><time>2026-03-24T13:18:39.979Z</time></trkpt><trkpt lat="45.369757569167184" lon="10.540538307737622"><ele>122.85714285714286</ele><time>2026-03-24T13:18:44.979Z</time></trkpt><trkpt lat="45.36982168051323" lon="10.540591271041968"><ele>123.42857142857143</ele><time>2026-03-24T13:18:49.979Z</time></trkpt><trkpt lat="45.36988713021618" lon="10.540615655666867"><ele>124.0</ele><time>2026-03-24T13:18:54.979Z</time></trkpt><trkpt lat="45.36996220883054" lon="10.540619831035203"><ele>126.33333333333334</ele><time>2026-03-24T13:18:59.979Z</time></trkpt><trkpt lat="45.37003357893309" lon="10.540622675991603"><ele>128.66666666666669</ele><time>2026-03-24T13:19:04.979Z</time></trkpt><trkpt lat="45.37010429571582" lon="10.540673643523876"><ele>131.0</ele><time>2026-03-24T13:19:08.979Z</time></trkpt><trkpt lat="45.370184790333035" lon="10.54070368444972"><ele>133.33333333333334</ele><time>2026-03-24T13:19:12.979Z</time></trkpt><trkpt lat="45.37024303055475" lon="10.540749768451613"><ele>135.66666666666666</ele><time>2026-03-24T13:19:15.979Z</time></trkpt><trkpt lat="45.370322723640264" lon="10.540789507633942"><ele>138.0</ele><time>2026-03-24T13:19:18.979Z</time></trkpt><trkpt lat="45.37040077909175" lon="10.54081610481038"><ele>138.0</ele><time>2026-03-24T13:19:21.978Z</time></trkpt><trkpt lat="45.370481308109284" lon="10.540850806019074"><ele>138.0</ele><time>2026-03-24T13:19:24.978Z</time></trkpt><trkpt lat="45.37053464431516" lon="10.540928035444532"><ele>138.0</ele><time>2026-03-24T13:19:27.978Z</time></trkpt><trkpt lat="45.37053852482907" lon="10.54104333136274"><ele>138.0</ele><time>2026-03-24T13:19:30.978Z</time></trkpt><trkpt lat="45.37053232956242" lon="10.541174540233724"><ele>138.0</ele><time>2026-03-24T13:19:33.978Z</time></trkpt><trkpt lat="45.370532711053386" lon="10.541282991686064"><ele>138.0</ele><time>2026-03-24T13:19:36.978Z</time></trkpt><trkpt lat="45.370534999860695" lon="10.541413726213333"><ele>137.5</ele><time>2026-03-24T13:19:39.978Z</time></trkpt><trkpt lat="45.37054428972304" lon="10.541532240226854"><ele>137.0</ele><time>2026-03-24T13:19:42.978Z</time></trkpt><trkpt lat="45.37057891631953" lon="10.541630621221511"><ele>136.5</ele><time>2026-03-24T13:19:45.978Z</time></trkpt><trkpt lat="45.370632809112614" lon="10.541727413860254"><ele>136.0</ele><time>2026-03-24T13:19:48.978Z</time></trkpt><trkpt lat="45.37069613838956" lon="10.541806149250768"><ele>135.5</ele><time>2026-03-24T13:19:51.978Z</time></trkpt><trkpt lat="45.37075376146204" lon="10.541852904826545"><ele>135.0</ele><time>2026-03-24T13:19:53.978Z</time></trkpt><trkpt lat="45.37083024409543" lon="10.541918755354516"><ele>135.0</ele><time>2026-03-24T13:19:56.978Z</time></trkpt><trkpt lat="45.37091527741461" lon="10.541951905606075"><ele>135.0</ele><time>2026-03-24T13:19:59.978Z</time></trkpt><trkpt lat="45.37099494508505" lon="10.541998625781865"><ele>135.0</ele><time>2026-03-24T13:20:02.978Z</time></trkpt><trkpt lat="45.371072622871026" lon="10.54204739946543"><ele>135.0</ele><time>2026-03-24T13:20:05.978Z</time></trkpt><trkpt lat="45.371153885740746" lon="10.54208721057808"><ele>135.0</ele><time>2026-03-24T13:20:08.978Z</time></trkpt><trkpt lat="45.37122388238534" lon="10.542155252957688"><ele>135.0</ele><time>2026-03-24T13:20:11.98Z</time></trkpt><trkpt lat="45.37127655709575" lon="10.542232378396298"><ele>134.66666666666666</ele><time>2026-03-24T13:20:14.98Z</time></trkpt><trkpt lat="45.371274240074925" lon="10.542335819223286"><ele>134.33333333333334</ele><time>2026-03-24T13:20:23.98Z</time></trkpt><trkpt lat="45.37128600701477" lon="10.542457585855527"><ele>134.0</ele><time>2026-03-24T13:20:26.98Z</time></trkpt><trkpt lat="45.37133722200682" lon="10.542546317528995"><ele>133.66666666666669</ele><time>2026-03-24T13:20:29.98Z</time></trkpt><trkpt lat="45.37136123030277" lon="10.542658867579782"><ele>133.33333333333334</ele><time>2026-03-24T13:20:32.98Z</time></trkpt><trkpt lat="45.37134798036901" lon="10.542781375385518"><ele>133.0</ele><time>2026-03-24T13:20:35.98Z</time></trkpt><trkpt lat="45.37132854198938" lon="10.542894299226969"><ele>133.0</ele><time>2026-03-24T13:20:38.98Z</time></trkpt><trkpt lat="45.371310603715756" lon="10.543007394243254"><ele>133.0</ele><time>2026-03-24T13:20:41.98Z</time></trkpt><trkpt lat="45.37128049953217" lon="10.543122212169886"><ele>133.0</ele><time>2026-03-24T13:20:44.98Z</time></trkpt><trkpt lat="45.37124729644921" lon="10.543232509147863"><ele>133.0</ele><time>2026-03-24T13:20:47.98Z</time></trkpt><trkpt lat="45.37123425667868" lon="10.543351307129916"><ele>133.0</ele><time>2026-03-24T13:20:50.98Z</time></trkpt><trkpt lat="45.37121096365324" lon="10.543473362480603"><ele>133.0</ele><time>2026-03-24T13:20:53.98Z</time></trkpt><trkpt lat="45.371202652337836" lon="10.543599137732713"><ele>132.16666666666669</ele><time>2026-03-24T13:20:56.98Z</time></trkpt><trkpt lat="45.37118993967521" lon="10.543715546603085"><ele>131.33333333333334</ele><time>2026-03-24T13:20:59.98Z</time></trkpt><trkpt lat="45.371160986637015" lon="10.543834712722873"><ele>130.5</ele><time>2026-03-24T13:21:02.98Z</time></trkpt><trkpt lat="45.37112226858221" lon="10.543906146921765"><ele>129.66666666666666</ele><time>2026-03-24T13:21:04.98Z</time></trkpt><trkpt lat="45.37105516781986" lon="10.543991561200324"><ele>128.83333333333331</ele><time>2026-03-24T13:21:07.98Z</time></trkpt><trkpt lat="45.370992303939694" lon="10.544058573024524"><ele>128.0</ele><time>2026-03-24T13:21:10.98Z</time></trkpt><trkpt lat="45.37091412867681" lon="10.544113747336787"><ele>127.99999999999999</ele><time>2026-03-24T13:21:13.98Z</time></trkpt><trkpt lat="45.37085845452474" lon="10.544198643567283"><ele>128.0</ele><time>2026-03-24T13:21:16.979Z</time></trkpt><trkpt lat="45.37078885551106" lon="10.544284298821708"><ele>128.0</ele><time>2026-03-24T13:21:19.979Z</time></trkpt><trkpt lat="45.37073151766375" lon="10.544371618762293"><ele>128.0</ele><time>2026-03-24T13:21:22.979Z</time></trkpt><trkpt lat="45.37068720856827" lon="10.544442446298492"><ele>127.99999999999999</ele><time>2026-03-24T13:21:24.979Z</time></trkpt><trkpt lat="45.370640122523774" lon="10.544549250390416"><ele>128.0</ele><time>2026-03-24T13:21:27.979Z</time></trkpt><trkpt lat="45.37060386826957" lon="10.544624079883233"><ele>127.83333333333333</ele><time>2026-03-24T13:21:29.979Z</time></trkpt><trkpt lat="45.37057282203022" lon="10.54472986129699"><ele>127.66666666666666</ele><time>2026-03-24T13:21:32.979Z</time></trkpt><trkpt lat="45.370521414017844" lon="10.544842270503956"><ele>127.5</ele><time>2026-03-24T13:21:35.979Z</time></trkpt><trkpt lat="45.37049458424519" lon="10.544972904029677"><ele>127.33333333333334</ele><time>2026-03-24T13:21:38.979Z</time></trkpt><trkpt lat="45.370450504369515" lon="10.545091837523533"><ele>127.16666666666667</ele><time>2026-03-24T13:21:41.979Z</time></trkpt><trkpt lat="45.37041915346108" lon="10.54517382453863"><ele>127.0</ele><time>2026-03-24T13:21:43.979Z</time></trkpt><trkpt lat="45.370380069153" lon="10.545298057922171"><ele>125.71428571428572</ele><time>2026-03-24T13:21:46.979Z</time></trkpt><trkpt lat="45.37037533086203" lon="10.545387451015019"><ele>124.42857142857142</ele><time>2026-03-24T13:21:48.979Z</time></trkpt><trkpt lat="45.37035966262734" lon="10.545476473713423"><ele>123.14285714285714</ele><time>2026-03-24T13:21:50.979Z</time></trkpt><trkpt lat="45.37033963361867" lon="10.545597255364667"><ele>121.85714285714286</ele><time>2026-03-24T13:21:53.979Z</time></trkpt><trkpt lat="45.37035592351561" lon="10.545709362917933"><ele>120.57142857142858</ele><time>2026-03-24T13:22:10.979Z</time></trkpt><trkpt lat="45.37041826360764" lon="10.545728204884247"><ele>119.28571428571428</ele><time>2026-03-24T13:22:16.981Z</time></trkpt><trkpt lat="45.37034338407591" lon="10.545772968296662"><ele>118.0</ele><time>2026-03-24T13:22:31.982Z</time></trkpt><trkpt lat="45.37027069320243" lon="10.545816007775203"><ele>118.0</ele><time>2026-03-24T13:22:34.982Z</time></trkpt><trkpt lat="45.370217168170456" lon="10.54586369507954"><ele>118.0</ele><time>2026-03-24T13:22:36.982Z</time></trkpt><trkpt lat="45.37014266667151" lon="10.54591663124931"><ele>118.0</ele><time>2026-03-24T13:22:39.982Z</time></trkpt><trkpt lat="45.37007700737419" lon="10.54595667700102"><ele>118.0</ele><time>2026-03-24T13:22:43.981Z</time></trkpt><trkpt lat="45.370007355915284" lon="10.546035701232649"><ele>118.0</ele><time>2026-03-24T13:22:46.981Z</time></trkpt><trkpt lat="45.369964772130594" lon="10.546105953351114"><ele>118.0</ele><time>2026-03-24T13:22:48.981Z</time></trkpt><trkpt lat="45.36994714182079" lon="10.546192468210002"><ele>118.0</ele><time>2026-03-24T13:22:50.981Z</time></trkpt><trkpt lat="45.36991868731516" lon="10.546286909026913"><ele>117.50000000000001</ele><time>2026-03-24T13:22:52.981Z</time></trkpt><trkpt lat="45.36989783120868" lon="10.54637781422382"><ele>117.0</ele><time>2026-03-24T13:22:54.981Z</time></trkpt><trkpt lat="45.369865513839535" lon="10.546461937313449"><ele>116.5</ele><time>2026-03-24T13:22:56.981Z</time></trkpt><trkpt lat="45.36982448718382" lon="10.54658186557037"><ele>116.0</ele><time>2026-03-24T13:22:59.981Z</time></trkpt><trkpt lat="45.369785459357345" lon="10.546662974589713"><ele>115.50000000000001</ele><time>2026-03-24T13:23:01.981Z</time></trkpt><trkpt lat="45.36974355120975" lon="10.54673652648"><ele>115.0</ele><time>2026-03-24T13:23:07.981Z</time></trkpt><trkpt lat="45.369668977652836" lon="10.546809840188706"><ele>114.66666666666667</ele><time>2026-03-24T13:23:10.981Z</time></trkpt><trkpt lat="45.36959342268508" lon="10.546855499839824"><ele>114.33333333333334</ele><time>2026-03-24T13:23:13.981Z</time></trkpt><trkpt lat="45.36950998434418" lon="10.546858824836354"><ele>114.0</ele><time>2026-03-24T13:23:16.981Z</time></trkpt><trkpt lat="45.36942293366325" lon="10.546857583187505"><ele>113.66666666666666</ele><time>2026-03-24T13:23:19.981Z</time></trkpt><trkpt lat="45.369341300442066" lon="10.546850353665514"><ele>113.33333333333333</ele><time>2026-03-24T13:23:22.981Z</time></trkpt><trkpt lat="45.369276300315136" lon="10.54684470502331"><ele>113.0</ele><time>2026-03-24T13:23:24.981Z</time></trkpt><trkpt lat="45.369207418345205" lon="10.546839478788572"><ele>112.99999999999999</ele><time>2026-03-24T13:23:26.981Z</time></trkpt><trkpt lat="45.36912324288771" lon="10.546792714719228"><ele>113.0</ele><time>2026-03-24T13:23:29.981Z</time></trkpt><trkpt lat="45.36904633261756" lon="10.546743213475853"><ele>113.0</ele><time>2026-03-24T13:23:32.981Z</time></trkpt><trkpt lat="45.36898890193603" lon="10.546795953232957"><ele>113.0</ele><time>2026-03-24T13:23:34.981Z</time></trkpt><trkpt lat="45.36895669065915" lon="10.54687528344493"><ele>112.99999999999999</ele><time>2026-03-24T13:23:38.981Z</time></trkpt><trkpt lat="45.36895481794061" lon="10.547022961848945"><ele>113.0</ele><time>2026-03-24T13:24:05.98Z</time></trkpt><trkpt lat="45.36893918554887" lon="10.547145779033567"><ele>113.16666666666666</ele><time>2026-03-24T13:24:08.98Z</time></trkpt><trkpt lat="45.368925148742086" lon="10.547262378651785"><ele>113.33333333333333</ele><time>2026-03-24T13:24:11.98Z</time></trkpt><trkpt lat="45.36892371927626" lon="10.547384307337182"><ele>113.5</ele><time>2026-03-24T13:24:14.98Z</time></trkpt><trkpt lat="45.36891594330602" lon="10.547475555816979"><ele>113.66666666666666</ele><time>2026-03-24T13:24:16.98Z</time></trkpt><trkpt lat="45.36890642272669" lon="10.547593291279092"><ele>113.83333333333333</ele><time>2026-03-24T13:24:19.98Z</time></trkpt><trkpt lat="45.36888626517304" lon="10.547711126416997"><ele>114.0</ele><time>2026-03-24T13:24:22.982Z</time></trkpt><trkpt lat="45.36887260429363" lon="10.547819404205155"><ele>114.16666666666667</ele><time>2026-03-24T13:24:25.982Z</time></trkpt><trkpt lat="45.36884543466456" lon="10.547942402217794"><ele>114.33333333333334</ele><time>2026-03-24T13:24:28.982Z</time></trkpt><trkpt lat="45.36882607954345" lon="10.548046860782131"><ele>114.5</ele><time>2026-03-24T13:24:31.982Z</time></trkpt><trkpt lat="45.368814307701655" lon="10.548149057647764"><ele>114.66666666666667</ele><time>2026-03-24T13:24:34.982Z</time></trkpt><trkpt lat="45.36880264599436" lon="10.548243907267294"><ele>114.83333333333334</ele><time>2026-03-24T13:24:37.983Z</time></trkpt><trkpt lat="45.36881036919045" lon="10.548338747444248"><ele>115.0</ele><time>2026-03-24T13:24:40.982Z</time></trkpt><trkpt lat="45.368840556219936" lon="10.548442942362158"><ele>116.16666666666667</ele><time>2026-03-24T13:24:43.982Z</time></trkpt><trkpt lat="45.36887252281051" lon="10.548543507111907"><ele>117.33333333333334</ele><time>2026-03-24T13:24:46.982Z</time></trkpt><trkpt lat="45.36891980959428" lon="10.548642906176218"><ele>118.5</ele><time>2026-03-24T13:24:49.982Z</time></trkpt><trkpt lat="45.36895358083237" lon="10.548737308361313"><ele>119.66666666666666</ele><time>2026-03-24T13:24:52.982Z</time></trkpt><trkpt lat="45.3689866451996" lon="10.54881906306522"><ele>120.83333333333333</ele><time>2026-03-24T13:24:55.982Z</time></trkpt><trkpt lat="45.36904114106203" lon="10.548887333520534"><ele>122.0</ele><time>2026-03-24T13:24:58.982Z</time></trkpt><trkpt lat="45.36909871505614" lon="10.548968310025307"><ele>122.57142857142856</ele><time>2026-03-24T13:25:01.982Z</time></trkpt><trkpt lat="45.36914431904217" lon="10.54905746494709"><ele>123.14285714285714</ele><time>2026-03-24T13:25:04.982Z</time></trkpt><trkpt lat="45.36918073881727" lon="10.549138064275745"><ele>123.71428571428571</ele><time>2026-03-24T13:25:07.982Z</time></trkpt><trkpt lat="45.369218613443515" lon="10.54923192862311"><ele>124.28571428571428</ele><time>2026-03-24T13:25:10.982Z</time></trkpt><trkpt lat="45.36925164286539" lon="10.549317856980275"><ele>124.85714285714286</ele><time>2026-03-24T13:25:13.982Z</time></trkpt><trkpt lat="45.36928550123795" lon="10.549407475586477"><ele>125.42857142857143</ele><time>2026-03-24T13:25:16.982Z</time></trkpt><trkpt lat="45.3693284110821" lon="10.549493616844504"><ele>126.0</ele><time>2026-03-24T13:25:19.982Z</time></trkpt><trkpt lat="45.36937962788114" lon="10.54958681146163"><ele>126.16666666666667</ele><time>2026-03-24T13:25:23.982Z</time></trkpt><trkpt lat="45.36943594471249" lon="10.549672309494673"><ele>126.33333333333334</ele><time>2026-03-24T13:25:26.982Z</time></trkpt><trkpt lat="45.36945752370768" lon="10.54975763537811"><ele>126.5</ele><time>2026-03-24T13:25:28.982Z</time></trkpt><trkpt lat="45.36949272272234" lon="10.549832745989049"><ele>126.66666666666667</ele><time>2026-03-24T13:25:30.982Z</time></trkpt><trkpt lat="45.36953953363829" lon="10.549920189205645"><ele>126.83333333333334</ele><time>2026-03-24T13:25:33.982Z</time></trkpt><trkpt lat="45.36959392157848" lon="10.550011817057532"><ele>127.0</ele><time>2026-03-24T13:25:36.982Z</time></trkpt><trkpt lat="45.369648505504514" lon="10.550096374731458"><ele>127.0</ele><time>2026-03-24T13:25:39.982Z</time></trkpt><trkpt lat="45.369685480030654" lon="10.550186420503627"><ele>127.0</ele><time>2026-03-24T13:25:42.982Z</time></trkpt><trkpt lat="45.36973456783065" lon="10.550274274712631"><ele>127.0</ele><time>2026-03-24T13:25:45.982Z</time></trkpt><trkpt lat="45.36977298677992" lon="10.550349048885472"><ele>127.0</ele><time>2026-03-24T13:25:47.982Z</time></trkpt><trkpt lat="45.36981204087759" lon="10.55045719426778"><ele>127.0</ele><time>2026-03-24T13:25:51.982Z</time></trkpt><trkpt lat="45.36984304693701" lon="10.550547798009092"><ele>127.0</ele><time>2026-03-24T13:25:54.982Z</time></trkpt><trkpt lat="45.36987991781033" lon="10.550625838055671"><ele>127.0</ele><time>2026-03-24T13:25:57.982Z</time></trkpt><trkpt lat="45.36992852814414" lon="10.550687295114875"><ele>127.83333333333334</ele><time>2026-03-24T13:26:10.981Z</time></trkpt><trkpt lat="45.369975055300735" lon="10.550590458098123"><ele>128.66666666666669</ele><time>2026-03-24T13:26:13.981Z</time></trkpt><trkpt lat="45.37003513293915" lon="10.550511874885002"><ele>129.5</ele><time>2026-03-24T13:26:17.981Z</time></trkpt><trkpt lat="45.3700898392202" lon="10.550465102217679"><ele>130.33333333333334</ele><time>2026-03-24T13:26:20.981Z</time></trkpt><trkpt lat="45.37014269059762" lon="10.550397323251199"><ele>131.16666666666666</ele><time>2026-03-24T13:26:23.981Z</time></trkpt><trkpt lat="45.37020517879645" lon="10.550332521967768"><ele>132.0</ele><time>2026-03-24T13:26:27.981Z</time></trkpt><trkpt lat="45.37027590927975" lon="10.550268176046318"><ele>132.0</ele><time>2026-03-24T13:26:31.984Z</time></trkpt><trkpt lat="45.370324108731126" lon="10.550192674692095"><ele>132.0</ele><time>2026-03-24T13:26:34.983Z</time></trkpt><trkpt lat="45.37038222345681" lon="10.550127882029653"><ele>132.0</ele><time>2026-03-24T13:26:38.984Z</time></trkpt><trkpt lat="45.37043379690951" lon="10.550069796963331"><ele>132.0</ele><time>2026-03-24T13:26:41.983Z</time></trkpt><trkpt lat="45.37049960631073" lon="10.550010301558611"><ele>132.0</ele><time>2026-03-24T13:26:45.983Z</time></trkpt><trkpt lat="45.3705570543068" lon="10.549967124133197"><ele>132.0</ele><time>2026-03-24T13:26:48.983Z</time></trkpt><trkpt lat="45.37062775767818" lon="10.549954155856181"><ele>132.0</ele><time>2026-03-24T13:26:52.983Z</time></trkpt><trkpt lat="45.37070486048851" lon="10.549924953538754"><ele>133.66666666666666</ele><time>2026-03-24T13:26:56.983Z</time></trkpt><trkpt lat="45.37078111207506" lon="10.54990055956971"><ele>135.33333333333334</ele><time>2026-03-24T13:27:00.983Z</time></trkpt><trkpt lat="45.370856212640646" lon="10.549880435418856"><ele>137.0</ele><time>2026-03-24T13:27:04.983Z</time></trkpt><trkpt lat="45.370928853473345" lon="10.54985951468866"><ele>138.66666666666669</ele><time>2026-03-24T13:27:08.983Z</time></trkpt><trkpt lat="45.37100418317577" lon="10.549848224175372"><ele>140.33333333333334</ele><time>2026-03-24T13:27:12.983Z</time></trkpt><trkpt lat="45.371080432229164" lon="10.549826542734555"><ele>142.0</ele><time>2026-03-24T13:27:16.983Z</time></trkpt><trkpt lat="45.37114589871855" lon="10.549801426318082"><ele>142.0</ele><time>2026-03-24T13:27:20.983Z</time></trkpt><trkpt lat="45.37122270680423" lon="10.549759373823921"><ele>142.0</ele><time>2026-03-24T13:27:24.983Z</time></trkpt><trkpt lat="45.371292551343466" lon="10.549708577820265"><ele>142.0</ele><time>2026-03-24T13:27:30.983Z</time></trkpt><trkpt lat="45.371344547827306" lon="10.54965165180185"><ele>142.0</ele><time>2026-03-24T13:27:36.983Z</time></trkpt><trkpt lat="45.37141764056783" lon="10.549597012980335"><ele>142.0</ele><time>2026-03-24T13:27:42.983Z</time></trkpt><trkpt lat="45.371483323870414" lon="10.549547038394282"><ele>142.0</ele><time>2026-03-24T13:27:46.983Z</time></trkpt><trkpt lat="45.37155807276511" lon="10.549517749429743"><ele>142.16666666666669</ele><time>2026-03-24T13:27:49.983Z</time></trkpt><trkpt lat="45.3716257986873" lon="10.54950915512269"><ele>142.33333333333334</ele><time>2026-03-24T13:27:51.982Z</time></trkpt><trkpt lat="45.37170316893697" lon="10.549465739719482"><ele>142.5</ele><time>2026-03-24T13:27:54.982Z</time></trkpt><trkpt lat="45.371773985665314" lon="10.549441098655794"><ele>142.66666666666666</ele><time>2026-03-24T13:27:57.982Z</time></trkpt><trkpt lat="45.3718468586317" lon="10.549409331512464"><ele>142.83333333333331</ele><time>2026-03-24T13:28:00.982Z</time></trkpt><trkpt lat="45.37192494773531" lon="10.549384151866768"><ele>143.0</ele><time>2026-03-24T13:28:03.982Z</time></trkpt><trkpt lat="45.37200124736045" lon="10.54933958622916"><ele>142.99999999999997</ele><time>2026-03-24T13:28:06.982Z</time></trkpt><trkpt lat="45.37208365511471" lon="10.54934044879024"><ele>143.0</ele><time>2026-03-24T13:28:09.982Z</time></trkpt><trkpt lat="45.37209130664864" lon="10.549448863025289"><ele>143.0</ele><time>2026-03-24T13:28:12.982Z</time></trkpt><trkpt lat="45.37211542490181" lon="10.549551515838813"><ele>143.0</ele><time>2026-03-24T13:28:15.982Z</time></trkpt><trkpt lat="45.37214068301809" lon="10.549635845090494"><ele>143.0</ele><time>2026-03-24T13:28:18.982Z</time></trkpt><trkpt lat="45.37216185859569" lon="10.54973682815101"><ele>142.99999999999997</ele><time>2026-03-24T13:28:21.982Z</time></trkpt><trkpt lat="45.372191829166404" lon="10.549820817805085"><ele>143.0</ele><time>2026-03-24T13:28:24.982Z</time></trkpt><trkpt lat="45.372209150422" lon="10.549908921184118"><ele>143.99999999999997</ele><time>2026-03-24T13:28:27.982Z</time></trkpt><trkpt lat="45.37222921435319" lon="10.549996287894881"><ele>145.0</ele><time>2026-03-24T13:28:30.982Z</time></trkpt><trkpt lat="45.37223220211624" lon="10.550098825327268"><ele>146.0</ele><time>2026-03-24T13:28:33.982Z</time></trkpt><trkpt lat="45.37225112987563" lon="10.55018629256687"><ele>147.0</ele><time>2026-03-24T13:28:36.985Z</time></trkpt><trkpt lat="45.372265806741495" lon="10.55028773848459"><ele>148.0</ele><time>2026-03-24T13:28:39.984Z</time></trkpt><trkpt lat="45.3722723307496" lon="10.550383147552408"><ele>148.99999999999997</ele><time>2026-03-24T13:28:42.985Z</time></trkpt><trkpt lat="45.372270437516" lon="10.550485331872126"><ele>150.0</ele><time>2026-03-24T13:28:45.985Z</time></trkpt><trkpt lat="45.37226711713401" lon="10.55058117813095"><ele>150.7142857142857</ele><time>2026-03-24T13:28:48.985Z</time></trkpt><trkpt lat="45.37226988470174" lon="10.550682463629391"><ele>151.42857142857142</ele><time>2026-03-24T13:28:51.985Z</time></trkpt><trkpt lat="45.37226642953922" lon="10.550785299924755"><ele>152.14285714285714</ele><time>2026-03-24T13:28:54.985Z</time></trkpt><trkpt lat="45.37225349807156" lon="10.550880498248107"><ele>152.85714285714283</ele><time>2026-03-24T13:28:57.985Z</time></trkpt><trkpt lat="45.3722410742586" lon="10.55098800756652"><ele>153.57142857142856</ele><time>2026-03-24T13:29:00.985Z</time></trkpt><trkpt lat="45.3722225720495" lon="10.551086058872068"><ele>154.28571428571428</ele><time>2026-03-24T13:29:03.985Z</time></trkpt><trkpt lat="45.37224731740596" lon="10.55119596634872"><ele>155.0</ele><time>2026-03-24T13:29:10.985Z</time></trkpt><trkpt lat="45.372334763351134" lon="10.551247344376353"><ele>155.66666666666666</ele><time>2026-03-24T13:29:13.985Z</time></trkpt><trkpt lat="45.37242705858461" lon="10.551255487208403"><ele>156.33333333333331</ele><time>2026-03-24T13:29:16.985Z</time></trkpt><trkpt lat="45.372504567639005" lon="10.551291171109051"><ele>157.0</ele><time>2026-03-24T13:29:37.984Z</time></trkpt><trkpt lat="45.37258899954435" lon="10.551295900678802"><ele>157.66666666666666</ele><time>2026-03-24T13:29:40.984Z</time></trkpt><trkpt lat="45.37266158017754" lon="10.551293823274452"><ele>158.33333333333334</ele><time>2026-03-24T13:29:43.984Z</time></trkpt><trkpt lat="45.37269230047666" lon="10.551409055285353"><ele>159.0</ele><time>2026-03-24T13:29:48.984Z</time></trkpt><trkpt lat="45.37265841891855" lon="10.551504783438999"><ele>159.0</ele><time>2026-03-24T13:29:51.984Z</time></trkpt><trkpt lat="45.37264639858252" lon="10.551597135420954"><ele>159.0</ele><time>2026-03-24T13:29:54.984Z</time></trkpt><trkpt lat="45.372628448197105" lon="10.55169425079306"><ele>159.0</ele><time>2026-03-24T13:29:57.984Z</time></trkpt><trkpt lat="45.37262952980629" lon="10.551791035092597"><ele>159.0</ele><time>2026-03-24T13:30:00.984Z</time></trkpt><trkpt lat="45.37262195639596" lon="10.551891754227803"><ele>159.0</ele><time>2026-03-24T13:30:03.984Z</time></trkpt><trkpt lat="45.37262732265897" lon="10.552005433537321"><ele>159.0</ele><time>2026-03-24T13:30:06.984Z</time></trkpt><trkpt lat="45.37262297174971" lon="10.552122353733742"><ele>159.0</ele><time>2026-03-24T13:30:09.984Z</time></trkpt><trkpt lat="45.37262273107513" lon="10.552229250456037"><ele>159.16666666666666</ele><time>2026-03-24T13:30:12.984Z</time></trkpt><trkpt lat="45.37263500706963" lon="10.552335265710935"><ele>159.33333333333334</ele><time>2026-03-24T13:30:15.984Z</time></trkpt><trkpt lat="45.37264634465681" lon="10.552453799307166"><ele>159.5</ele><time>2026-03-24T13:30:18.984Z</time></trkpt><trkpt lat="45.37265091155075" lon="10.552557093463554"><ele>159.66666666666669</ele><time>2026-03-24T13:30:21.984Z</time></trkpt><trkpt lat="45.37266416514579" lon="10.552666790117208"><ele>159.83333333333334</ele><time>2026-03-24T13:30:24.984Z</time></trkpt><trkpt lat="45.37267064521831" lon="10.552774926946443"><ele>160.0</ele><time>2026-03-24T13:30:27.984Z</time></trkpt><trkpt lat="45.37267025890036" lon="10.55288919849633"><ele>160.0</ele><time>2026-03-24T13:30:30.984Z</time></trkpt><trkpt lat="45.37267551305943" lon="10.553008954854151"><ele>160.0</ele><time>2026-03-24T13:30:33.984Z</time></trkpt><trkpt lat="45.37268068394947" lon="10.553122507962689"><ele>160.0</ele><time>2026-03-24T13:30:36.984Z</time></trkpt><trkpt lat="45.372688170170335" lon="10.553234049618837"><ele>160.0</ele><time>2026-03-24T13:30:39.986Z</time></trkpt><trkpt lat="45.37274228835512" lon="10.553331735354986"><ele>160.0</ele><time>2026-03-24T13:30:42.986Z</time></trkpt><trkpt lat="45.37279822424395" lon="10.553394335558393"><ele>160.0</ele><time>2026-03-24T13:30:46.986Z</time></trkpt><trkpt lat="45.37286138810106" lon="10.553437866447172"><ele>160.0</ele><time>2026-03-24T13:30:53.984Z</time></trkpt><trkpt lat="45.37291657503813" lon="10.553486035597702"><ele>160.0</ele><time>2026-03-24T13:31:00.983Z</time></trkpt><trkpt lat="45.37296800371815" lon="10.553562142360107"><ele>160.0</ele><time>2026-03-24T13:31:06.982Z</time></trkpt><trkpt lat="45.373023014388195" lon="10.553642095429474"><ele>160.0</ele><time>2026-03-24T13:31:12.982Z</time></trkpt><trkpt lat="45.37307337931345" lon="10.553704673670175"><ele>160.0</ele><time>2026-03-24T13:31:17.981Z</time></trkpt><trkpt lat="45.373137525425946" lon="10.55373296284692"><ele>160.0</ele><time>2026-03-24T13:31:23.981Z</time></trkpt><trkpt lat="45.373269051092514" lon="10.554755519237672"><ele>156.33333333333334</ele><time>2026-03-24T13:34:02.922Z</time></trkpt><trkpt lat="45.373151746378504" lon="10.554915879504444"><ele>152.66666666666666</ele><time>2026-03-24T13:34:03.872Z</time></trkpt><trkpt lat="45.373120774843315" lon="10.555062359231492"><ele>149.0</ele><time>2026-03-24T13:34:04.822Z</time></trkpt><trkpt lat="45.37313244716207" lon="10.554618431439064"><ele>150.66666666666666</ele><time>2026-03-24T13:34:05.772Z</time></trkpt><trkpt lat="45.373154871673265" lon="10.554244477985966"><ele>152.33333333333334</ele><time>2026-03-24T13:34:06.722Z</time></trkpt><trkpt lat="45.37316905994137" lon="10.55412157228724"><ele>154.0</ele><time>2026-03-24T13:34:07.672Z</time></trkpt><trkpt lat="45.37326147761151" lon="10.554067354318699"><ele>154.0</ele><time>2026-03-24T13:34:12.423Z</time></trkpt><trkpt lat="45.373329247970865" lon="10.554108261246661"><ele>154.0</ele><time>2026-03-24T13:34:15.273Z</time></trkpt><trkpt lat="45.373397479846936" lon="10.554102094050657"><ele>154.0</ele><time>2026-03-24T13:34:18.123Z</time></trkpt><trkpt lat="45.37346872432389" lon="10.554148830180823"><ele>154.0</ele><time>2026-03-24T13:34:20.981Z</time></trkpt><trkpt lat="45.37355455991175" lon="10.554139207854908"><ele>154.0</ele><time>2026-03-24T13:34:23.981Z</time></trkpt><trkpt lat="45.37356825553456" lon="10.55405109476491"><ele>154.0</ele><time>2026-03-24T13:34:25.981Z</time></trkpt><trkpt lat="45.37355671385742" lon="10.553944600946616"><ele>154.0</ele><time>2026-03-24T13:34:31.981Z</time></trkpt><trkpt lat="45.37354228572674" lon="10.553831894058174"><ele>154.0</ele><time>2026-03-24T13:34:34.981Z</time></trkpt><trkpt lat="45.37353710896491" lon="10.553737956459747"><ele>154.0</ele><time>2026-03-24T13:34:37.981Z</time></trkpt><trkpt lat="45.373545474368285" lon="10.553635986992658"><ele>154.0</ele><time>2026-03-24T13:34:40.981Z</time></trkpt><trkpt lat="45.37353270682434" lon="10.55352369523429"><ele>154.0</ele><time>2026-03-24T13:34:43.981Z</time></trkpt><trkpt lat="45.37352251316458" lon="10.553411631535008"><ele>154.0</ele><time>2026-03-24T13:34:46.98Z</time></trkpt><trkpt lat="45.37351064927244" lon="10.553304400679686"><ele>154.0</ele><time>2026-03-24T13:34:49.98Z</time></trkpt><trkpt lat="45.37350589835587" lon="10.553196023200222"><ele>155.66666666666669</ele><time>2026-03-24T13:34:52.98Z</time></trkpt><trkpt lat="45.37349636354523" lon="10.553091306145605"><ele>157.33333333333334</ele><time>2026-03-24T13:34:55.98Z</time></trkpt><trkpt lat="45.373500731781704" lon="10.552978829208897"><ele>159.0</ele><time>2026-03-24T13:34:58.98Z</time></trkpt><trkpt lat="45.37349964260585" lon="10.552858482283387"><ele>160.66666666666666</ele><time>2026-03-24T13:35:02.98Z</time></trkpt><trkpt lat="45.3734953538397" lon="10.552748169549396"><ele>162.33333333333331</ele><time>2026-03-24T13:35:05.98Z</time></trkpt><trkpt lat="45.37349010094133" lon="10.552621213332749"><ele>164.0</ele><time>2026-03-24T13:35:08.98Z</time></trkpt><trkpt lat="45.37348111369821" lon="10.552511371194678"><ele>164.0</ele><time>2026-03-24T13:35:11.98Z</time></trkpt><trkpt lat="45.37344275650688" lon="10.55240747604631"><ele>164.0</ele><time>2026-03-24T13:35:13.98Z</time></trkpt><trkpt lat="45.37344300441035" lon="10.552277439734281"><ele>164.0</ele><time>2026-03-24T13:35:16.98Z</time></trkpt><trkpt lat="45.373422676722946" lon="10.552165636895879"><ele>164.0</ele><time>2026-03-24T13:35:19.98Z</time></trkpt><trkpt lat="45.37342752899049" lon="10.552075149697595"><ele>164.0</ele><time>2026-03-24T13:35:21.98Z</time></trkpt><trkpt lat="45.37341574068913" lon="10.551942972811645"><ele>164.0</ele><time>2026-03-24T13:35:24.98Z</time></trkpt><trkpt lat="45.37340315879714" lon="10.551851190770297"><ele>164.0</ele><time>2026-03-24T13:35:26.98Z</time></trkpt><trkpt lat="45.37339526024633" lon="10.551735381791783"><ele>164.0</ele><time>2026-03-24T13:35:29.98Z</time></trkpt><trkpt lat="45.373398670320704" lon="10.551616053959544"><ele>164.0</ele><time>2026-03-24T13:35:32.98Z</time></trkpt><trkpt lat="45.373399702063196" lon="10.551516975945905"><ele>164.0</ele><time>2026-03-24T13:35:39.98Z</time></trkpt><trkpt lat="45.37342382299168" lon="10.551407922305053"><ele>164.0</ele><time>2026-03-24T13:35:45.981Z</time></trkpt><trkpt lat="45.373382901512294" lon="10.551500565328668"><ele>164.0</ele><time>2026-03-24T13:35:51.981Z</time></trkpt><trkpt lat="45.37336903537403" lon="10.551598353085497"><ele>164.0</ele><time>2026-03-24T13:35:54.981Z</time></trkpt><trkpt lat="45.37337282169666" lon="10.55169645824269"><ele>164.0</ele><time>2026-03-24T13:35:57.981Z</time></trkpt><trkpt lat="45.37338702301669" lon="10.551804575651918"><ele>164.0</ele><time>2026-03-24T13:36:00.981Z</time></trkpt><trkpt lat="45.37339036778899" lon="10.551908100910271"><ele>164.0</ele><time>2026-03-24T13:36:02.98Z</time></trkpt><trkpt lat="45.37339129388853" lon="10.552032191876899"><ele>164.0</ele><time>2026-03-24T13:36:05.98Z</time></trkpt><trkpt lat="45.37340315610769" lon="10.552162788452693"><ele>164.0</ele><time>2026-03-24T13:36:08.98Z</time></trkpt><trkpt lat="45.373413429706446" lon="10.552294085476179"><ele>164.0</ele><time>2026-03-24T13:36:11.98Z</time></trkpt><trkpt lat="45.37344714333184" lon="10.552420964836111"><ele>164.0</ele><time>2026-03-24T13:36:14.982Z</time></trkpt><trkpt lat="45.37344535443976" lon="10.55251246814928"><ele>164.0</ele><time>2026-03-24T13:36:16.982Z</time></trkpt><trkpt lat="45.37345510450418" lon="10.552602916320291"><ele>164.0</ele><time>2026-03-24T13:36:18.982Z</time></trkpt><trkpt lat="45.3734631447611" lon="10.552733089968044"><ele>164.0</ele><time>2026-03-24T13:36:21.982Z</time></trkpt><trkpt lat="45.37346547571823" lon="10.552874453394354"><ele>164.0</ele><time>2026-03-24T13:36:24.982Z</time></trkpt><trkpt lat="45.37348030126729" lon="10.552962513010195"><ele>164.0</ele><time>2026-03-24T13:36:26.982Z</time></trkpt><trkpt lat="45.373481882997105" lon="10.55309736871162"><ele>164.0</ele><time>2026-03-24T13:36:29.982Z</time></trkpt><trkpt lat="45.37349428472377" lon="10.553186176276524"><ele>164.0</ele><time>2026-03-24T13:36:31.982Z</time></trkpt><trkpt lat="45.37350065712182" lon="10.55331862794116"><ele>164.0</ele><time>2026-03-24T13:36:34.981Z</time></trkpt><trkpt lat="45.373507458895126" lon="10.553409316345148"><ele>164.0</ele><time>2026-03-24T13:36:38.981Z</time></trkpt><trkpt lat="45.37350547210652" lon="10.553530121436813"><ele>164.0</ele><time>2026-03-24T13:37:03.981Z</time></trkpt><trkpt lat="45.373509993182104" lon="10.553622124728165"><ele>162.33333333333331</ele><time>2026-03-24T13:37:06.981Z</time></trkpt><trkpt lat="45.37351259990822" lon="10.55373461994053"><ele>160.66666666666666</ele><time>2026-03-24T13:37:09.981Z</time></trkpt><trkpt lat="45.373533559419904" lon="10.553842606050278"><ele>159.0</ele><time>2026-03-24T13:37:12.981Z</time></trkpt><trkpt lat="45.373538491324624" lon="10.55393223567732"><ele>157.33333333333334</ele><time>2026-03-24T13:37:14.981Z</time></trkpt><trkpt lat="45.3735530888654" lon="10.554036359628885"><ele>155.66666666666669</ele><time>2026-03-24T13:37:16.981Z</time></trkpt><trkpt lat="45.37358301269363" lon="10.554150764331657"><ele>154.0</ele><time>2026-03-24T13:37:19.981Z</time></trkpt><trkpt lat="45.3736312922912" lon="10.554268015717756"><ele>154.0</ele><time>2026-03-24T13:37:22.981Z</time></trkpt><trkpt lat="45.373680234423425" lon="10.554370203472761"><ele>154.0</ele><time>2026-03-24T13:37:25.981Z</time></trkpt><trkpt lat="45.37371283239516" lon="10.554450498680522"><ele>154.0</ele><time>2026-03-24T13:37:27.981Z</time></trkpt><trkpt lat="45.373721520737476" lon="10.554587207433828"><ele>154.0</ele><time>2026-03-24T13:37:30.981Z</time></trkpt><trkpt lat="45.37371771481481" lon="10.554707107596226"><ele>154.0</ele><time>2026-03-24T13:37:33.981Z</time></trkpt><trkpt lat="45.37370963767375" lon="10.554822200063718"><ele>154.0</ele><time>2026-03-24T13:37:36.981Z</time></trkpt><trkpt lat="45.37370509032668" lon="10.554913965010451"><ele>153.42857142857142</ele><time>2026-03-24T13:37:38.981Z</time></trkpt><trkpt lat="45.37368642216957" lon="10.555018674430809"><ele>152.85714285714286</ele><time>2026-03-24T13:37:41.981Z</time></trkpt><trkpt lat="45.3736529008619" lon="10.555099190878586"><ele>152.28571428571428</ele><time>2026-03-24T13:37:43.981Z</time></trkpt><trkpt lat="45.37362232618408" lon="10.555217665739779"><ele>151.71428571428572</ele><time>2026-03-24T13:37:46.981Z</time></trkpt><trkpt lat="45.37361162382888" lon="10.555306525112432"><ele>151.14285714285714</ele><time>2026-03-24T13:37:48.981Z</time></trkpt><trkpt lat="45.373594525652884" lon="10.555398882855526"><ele>150.57142857142856</ele><time>2026-03-24T13:37:50.98Z</time></trkpt><trkpt lat="45.37356314244786" lon="10.555514385000158"><ele>150.0</ele><time>2026-03-24T13:37:53.98Z</time></trkpt><trkpt lat="45.37350487858753" lon="10.55560866321288"><ele>150.0</ele><time>2026-03-24T13:37:56.98Z</time></trkpt><trkpt lat="45.37343639621298" lon="10.555676023202633"><ele>150.0</ele><time>2026-03-24T13:37:59.98Z</time></trkpt><trkpt lat="45.37336476858382" lon="10.555750932259812"><ele>150.0</ele><time>2026-03-24T13:38:02.98Z</time></trkpt><trkpt lat="45.37329557946138" lon="10.555842146312168"><ele>150.0</ele><time>2026-03-24T13:38:05.98Z</time></trkpt><trkpt lat="45.37322750892066" lon="10.555917254928955"><ele>150.0</ele><time>2026-03-24T13:38:08.98Z</time></trkpt><trkpt lat="45.37316746898714" lon="10.5559757600632"><ele>150.0</ele><time>2026-03-24T13:38:13.98Z</time></trkpt><trkpt lat="45.37309336777948" lon="10.55593129926707"><ele>150.0</ele><time>2026-03-24T13:38:20.983Z</time></trkpt><trkpt lat="45.37306290016355" lon="10.555849741622366"><ele>150.0</ele><time>2026-03-24T13:38:24.983Z</time></trkpt><trkpt lat="45.372993149884856" lon="10.555764444297626"><ele>150.0</ele><time>2026-03-24T13:38:27.983Z</time></trkpt><trkpt lat="45.372926148483636" lon="10.55568541475386"><ele>150.0</ele><time>2026-03-24T13:38:29.982Z</time></trkpt><trkpt lat="45.372846157653505" lon="10.555645989050893"><ele>150.0</ele><time>2026-03-24T13:38:32.983Z</time></trkpt><trkpt lat="45.372754981199115" lon="10.55560098828312"><ele>150.0</ele><time>2026-03-24T13:38:35.983Z</time></trkpt><trkpt lat="45.372683357129915" lon="10.555552894799224"><ele>149.83333333333334</ele><time>2026-03-24T13:38:37.983Z</time></trkpt><trkpt lat="45.372611424727374" lon="10.555513255880838"><ele>149.66666666666666</ele><time>2026-03-24T13:38:40.983Z</time></trkpt><trkpt lat="45.37254216178071" lon="10.555444963481078"><ele>149.5</ele><time>2026-03-24T13:38:43.983Z</time></trkpt><trkpt lat="45.37247814978787" lon="10.555433293874852"><ele>149.33333333333331</ele><time>2026-03-24T13:38:45.983Z</time></trkpt><trkpt lat="45.37240827159024" lon="10.555480861647155"><ele>149.16666666666666</ele><time>2026-03-24T13:38:55.982Z</time></trkpt><trkpt lat="45.372328348287034" lon="10.555510016499458"><ele>149.0</ele><time>2026-03-24T13:38:58.982Z</time></trkpt><trkpt lat="45.37226454532959" lon="10.555546552697056"><ele>149.0</ele><time>2026-03-24T13:39:02.982Z</time></trkpt><trkpt lat="45.372243467076935" lon="10.555634264179574"><ele>149.0</ele><time>2026-03-24T13:39:05.982Z</time></trkpt><trkpt lat="45.37222115353856" lon="10.555728521337835"><ele>149.0</ele><time>2026-03-24T13:39:09.982Z</time></trkpt><trkpt lat="45.37219275311673" lon="10.555816238008598"><ele>149.0</ele><time>2026-03-24T13:39:13.982Z</time></trkpt><trkpt lat="45.37213546693997" lon="10.555888558621966"><ele>149.0</ele><time>2026-03-24T13:39:17.982Z</time></trkpt><trkpt lat="45.37208040889263" lon="10.555954847928676"><ele>149.0</ele><time>2026-03-24T13:39:20.982Z</time></trkpt><trkpt lat="45.372043942239166" lon="10.556035552258574"><ele>149.0</ele><time>2026-03-24T13:39:24.982Z</time></trkpt><trkpt lat="45.37201607989987" lon="10.556141582064944"><ele>149.85714285714286</ele><time>2026-03-24T13:39:28.982Z</time></trkpt><trkpt lat="45.37198574694247" lon="10.55626061423276"><ele>150.7142857142857</ele><time>2026-03-24T13:39:32.982Z</time></trkpt><trkpt lat="45.37196311533975" lon="10.556359662830628"><ele>151.57142857142856</ele><time>2026-03-24T13:39:36.982Z</time></trkpt><trkpt lat="45.371945311100774" lon="10.5564460801187"><ele>152.42857142857142</ele><time>2026-03-24T13:39:39.982Z</time></trkpt><trkpt lat="45.37194201899175" lon="10.556538036873206"><ele>153.28571428571428</ele><time>2026-03-24T13:39:42.982Z</time></trkpt><trkpt lat="45.37192381632551" lon="10.556625095346835"><ele>154.14285714285714</ele><time>2026-03-24T13:39:45.982Z</time></trkpt><trkpt lat="45.37191970084424" lon="10.556723777327372"><ele>155.0</ele><time>2026-03-24T13:39:48.982Z</time></trkpt><trkpt lat="45.37192659650244" lon="10.55681896252794"><ele>155.0</ele><time>2026-03-24T13:39:51.982Z</time></trkpt><trkpt lat="45.37193741401469" lon="10.556927737670838"><ele>155.0</ele><time>2026-03-24T13:39:55.982Z</time></trkpt><trkpt lat="45.37194257106345" lon="10.557039199715192"><ele>155.0</ele><time>2026-03-24T13:39:59.982Z</time></trkpt><trkpt lat="45.37195260294309" lon="10.557160899233011"><ele>155.0</ele><time>2026-03-24T13:40:03.981Z</time></trkpt><trkpt lat="45.37195030623456" lon="10.557260115560382"><ele>155.0</ele><time>2026-03-24T13:40:07.981Z</time></trkpt><trkpt lat="45.37195016012656" lon="10.557357714650438"><ele>155.0</ele><time>2026-03-24T13:40:10.981Z</time></trkpt><trkpt lat="45.371941807920486" lon="10.557453241443762"><ele>155.0</ele><time>2026-03-24T13:40:13.981Z</time></trkpt><trkpt lat="45.37193026207201" lon="10.557552852300836"><ele>156.33333333333331</ele><time>2026-03-24T13:40:17.981Z</time></trkpt><trkpt lat="45.371923307896026" lon="10.557668939818994"><ele>157.66666666666666</ele><time>2026-03-24T13:40:21.981Z</time></trkpt><trkpt lat="45.37192533001296" lon="10.557772107441014"><ele>159.0</ele><time>2026-03-24T13:40:25.983Z</time></trkpt><trkpt lat="45.37191781437011" lon="10.557894261651747"><ele>160.33333333333334</ele><time>2026-03-24T13:40:29.984Z</time></trkpt><trkpt lat="45.37190746102032" lon="10.558019374030376"><ele>161.66666666666669</ele><time>2026-03-24T13:40:33.984Z</time></trkpt><trkpt lat="45.37189978398519" lon="10.558119680997264"><ele>163.0</ele><time>2026-03-24T13:40:36.983Z</time></trkpt><trkpt lat="45.37193480932591" lon="10.558222856819699"><ele>164.2857142857143</ele><time>2026-03-24T13:40:45.983Z</time></trkpt><trkpt lat="45.37199848342147" lon="10.55824326111446"><ele>165.57142857142856</ele><time>2026-03-24T13:40:48.983Z</time></trkpt><trkpt lat="45.372055548129254" lon="10.558306639831283"><ele>166.85714285714286</ele><time>2026-03-24T13:40:51.983Z</time></trkpt><trkpt lat="45.37206297920525" lon="10.558410850445666"><ele>168.14285714285717</ele><time>2026-03-24T13:40:57.983Z</time></trkpt><trkpt lat="45.3720538531542" lon="10.558500036797755"><ele>169.42857142857144</ele><time>2026-03-24T13:41:00.983Z</time></trkpt><trkpt lat="45.37206412338668" lon="10.55859433976738"><ele>170.71428571428572</ele><time>2026-03-24T13:41:05.983Z</time></trkpt><trkpt lat="45.3720710290409" lon="10.55870100995757"><ele>172.0</ele><time>2026-03-24T13:41:10.983Z</time></trkpt><trkpt lat="45.37204669274449" lon="10.558811179723692"><ele>173.42857142857144</ele><time>2026-03-24T13:41:16.983Z</time></trkpt><trkpt lat="45.37201684918766" lon="10.55889605888903"><ele>174.85714285714286</ele><time>2026-03-24T13:41:21.983Z</time></trkpt><trkpt lat="45.37201608704332" lon="10.55898626605497"><ele>176.28571428571428</ele><time>2026-03-24T13:41:26.983Z</time></trkpt><trkpt lat="45.37198471728845" lon="10.55908031039266"><ele>177.71428571428572</ele><time>2026-03-24T13:41:30.983Z</time></trkpt><trkpt lat="45.37192829764886" lon="10.559135981076485"><ele>179.14285714285714</ele><time>2026-03-24T13:41:34.983Z</time></trkpt><trkpt lat="45.37188526598851" lon="10.559220159675364"><ele>180.57142857142858</ele><time>2026-03-24T13:41:38.983Z</time></trkpt><trkpt lat="45.37181750858335" lon="10.559291089896645"><ele>182.0</ele><time>2026-03-24T13:41:42.983Z</time></trkpt><trkpt lat="45.37175777111441" lon="10.55934175902173"><ele>182.0</ele><time>2026-03-24T13:41:45.983Z</time></trkpt><trkpt lat="45.37171420830966" lon="10.559434679176553"><ele>182.0</ele><time>2026-03-24T13:41:48.983Z</time></trkpt><trkpt lat="45.37166209038938" lon="10.559514298797072"><ele>182.0</ele><time>2026-03-24T13:41:51.983Z</time></trkpt><trkpt lat="45.37162151943543" lon="10.559600527172227"><ele>182.0</ele><time>2026-03-24T13:41:54.982Z</time></trkpt><trkpt lat="45.37157824398367" lon="10.559678565504518"><ele>182.0</ele><time>2026-03-24T13:41:57.982Z</time></trkpt><trkpt lat="45.371573600703975" lon="10.559771214133264"><ele>182.0</ele><time>2026-03-24T13:42:00.982Z</time></trkpt><trkpt lat="45.371522272791154" lon="10.559834814549115"><ele>182.0</ele><time>2026-03-24T13:42:03.982Z</time></trkpt><trkpt lat="45.37152406793466" lon="10.559931098471143"><ele>182.0</ele><time>2026-03-24T13:42:06.982Z</time></trkpt><trkpt lat="45.37147820485042" lon="10.55999635769641"><ele>182.0</ele><time>2026-03-24T13:42:09.982Z</time></trkpt><trkpt lat="45.3714414083858" lon="10.560076130187397"><ele>182.0</ele><time>2026-03-24T13:42:12.982Z</time></trkpt><trkpt lat="45.371425031006204" lon="10.560164231101405"><ele>182.0</ele><time>2026-03-24T13:42:15.982Z</time></trkpt><trkpt lat="45.37138802938751" lon="10.560259617042382"><ele>182.0</ele><time>2026-03-24T13:42:24.982Z</time></trkpt><trkpt lat="45.37136589545206" lon="10.560353869037435"><ele>182.0</ele><time>2026-03-24T13:42:38.985Z</time></trkpt><trkpt lat="45.37131818924333" lon="10.560447474147836"><ele>182.0</ele><time>2026-03-24T13:43:02.985Z</time></trkpt><trkpt lat="45.371301896915234" lon="10.560323281856451"><ele>179.85714285714286</ele><time>2026-03-24T13:43:16.985Z</time></trkpt><trkpt lat="45.37126950782027" lon="10.560236322142558"><ele>177.71428571428572</ele><time>2026-03-24T13:43:19.984Z</time></trkpt><trkpt lat="45.37125565321622" lon="10.560114718798383"><ele>175.57142857142856</ele><time>2026-03-24T13:43:22.984Z</time></trkpt><trkpt lat="45.3712071909501" lon="10.560177037909488"><ele>173.42857142857144</ele><time>2026-03-24T13:43:29.984Z</time></trkpt><trkpt lat="45.3712188108372" lon="10.560274771813347"><ele>171.28571428571428</ele><time>2026-03-24T13:43:32.984Z</time></trkpt><trkpt lat="45.37121028997818" lon="10.560375421203746"><ele>169.14285714285714</ele><time>2026-03-24T13:43:35.984Z</time></trkpt><trkpt lat="45.371231127728045" lon="10.560465821045534"><ele>167.0</ele><time>2026-03-24T13:43:38.984Z</time></trkpt><trkpt lat="45.37124292771668" lon="10.560560355130026"><ele>167.0</ele><time>2026-03-24T13:43:41.984Z</time></trkpt><trkpt lat="45.37123534941743" lon="10.560656315121316"><ele>167.0</ele><time>2026-03-24T13:43:44.984Z</time></trkpt><trkpt lat="45.37126380345728" lon="10.560751824621544"><ele>167.0</ele><time>2026-03-24T13:43:53.984Z</time></trkpt><trkpt lat="45.37129455890647" lon="10.560834027444054"><ele>167.0</ele><time>2026-03-24T13:43:56.984Z</time></trkpt><trkpt lat="45.37130313669904" lon="10.560943583204628"><ele>167.0</ele><time>2026-03-24T13:43:59.984Z</time></trkpt><trkpt lat="45.371320526888475" lon="10.561041557364147"><ele>167.0</ele><time>2026-03-24T13:44:02.984Z</time></trkpt><trkpt lat="45.3713372515331" lon="10.561132561909067"><ele>167.0</ele><time>2026-03-24T13:44:05.984Z</time></trkpt><trkpt lat="45.37134980814862" lon="10.561234831660444"><ele>168.66666666666666</ele><time>2026-03-24T13:44:08.984Z</time></trkpt><trkpt lat="45.37137420326213" lon="10.561344885101889"><ele>170.33333333333331</ele><time>2026-03-24T13:44:11.984Z</time></trkpt><trkpt lat="45.37138562263854" lon="10.561451733984066"><ele>172.0</ele><time>2026-03-24T13:44:14.984Z</time></trkpt><trkpt lat="45.371420961605196" lon="10.561556358156638"><ele>173.66666666666666</ele><time>2026-03-24T13:44:17.984Z</time></trkpt><trkpt lat="45.371443003576005" lon="10.561666841130597"><ele>175.33333333333334</ele><time>2026-03-24T13:44:20.984Z</time></trkpt><trkpt lat="45.37147095905811" lon="10.561771511793525"><ele>177.0</ele><time>2026-03-24T13:44:23.984Z</time></trkpt><trkpt lat="45.37148644218907" lon="10.56188142757578"><ele>177.0</ele><time>2026-03-24T13:44:26.984Z</time></trkpt><trkpt lat="45.37150193884396" lon="10.561972119609447"><ele>177.0</ele><time>2026-03-24T13:44:38.985Z</time></trkpt><trkpt lat="45.37151476585461" lon="10.56206090786954"><ele>177.0</ele><time>2026-03-24T13:44:41.986Z</time></trkpt><trkpt lat="45.37153941950301" lon="10.56214929748836"><ele>177.0</ele><time>2026-03-24T13:44:43.985Z</time></trkpt><trkpt lat="45.37155713080483" lon="10.56225883367487"><ele>177.0</ele><time>2026-03-24T13:44:46.986Z</time></trkpt><trkpt lat="45.37156839772303" lon="10.56235124499461"><ele>177.0</ele><time>2026-03-24T13:44:49.986Z</time></trkpt><trkpt lat="45.371503401358694" lon="10.562319612458133"><ele>177.0</ele><time>2026-03-24T13:44:57.986Z</time></trkpt><trkpt lat="45.371466772262075" lon="10.562209006746183"><ele>177.0</ele><time>2026-03-24T13:45:00.986Z</time></trkpt><trkpt lat="45.371427120863025" lon="10.562103716958081"><ele>177.0</ele><time>2026-03-24T13:45:03.986Z</time></trkpt><trkpt lat="45.37138808609038" lon="10.562014715592086"><ele>177.0</ele><time>2026-03-24T13:45:06.986Z</time></trkpt><trkpt lat="45.37133765894749" lon="10.561942776853718"><ele>177.0</ele><time>2026-03-24T13:45:09.986Z</time></trkpt><trkpt lat="45.371305894688255" lon="10.56184526745554"><ele>177.0</ele><time>2026-03-24T13:45:12.986Z</time></trkpt><trkpt lat="45.371256211186854" lon="10.561736091022507"><ele>177.0</ele><time>2026-03-24T13:45:15.986Z</time></trkpt><trkpt lat="45.371210473939705" lon="10.56163974426976"><ele>175.57142857142858</ele><time>2026-03-24T13:45:18.986Z</time></trkpt><trkpt lat="45.37118492538395" lon="10.561529113481495"><ele>174.14285714285714</ele><time>2026-03-24T13:45:21.986Z</time></trkpt><trkpt lat="45.37114423473711" lon="10.561459229510673"><ele>172.71428571428572</ele><time>2026-03-24T13:45:23.985Z</time></trkpt><trkpt lat="45.37111315648471" lon="10.561377407298767"><ele>171.28571428571428</ele><time>2026-03-24T13:45:25.985Z</time></trkpt><trkpt lat="45.37107809135306" lon="10.561279140106484"><ele>169.85714285714286</ele><time>2026-03-24T13:45:28.985Z</time></trkpt><trkpt lat="45.37100387522578" lon="10.561221691642062"><ele>168.42857142857142</ele><time>2026-03-24T13:45:31.985Z</time></trkpt><trkpt lat="45.37096131290422" lon="10.561146918174058"><ele>167.0</ele><time>2026-03-24T13:45:34.985Z</time></trkpt><trkpt lat="45.37092812327859" lon="10.561044349949096"><ele>167.0</ele><time>2026-03-24T13:45:37.985Z</time></trkpt><trkpt lat="45.37087210740134" lon="10.560969643083764"><ele>167.0</ele><time>2026-03-24T13:45:40.985Z</time></trkpt><trkpt lat="45.37080563477487" lon="10.560902600413902"><ele>167.0</ele><time>2026-03-24T13:45:43.985Z</time></trkpt><trkpt lat="45.37078451450338" lon="10.56079533980315"><ele>167.0</ele><time>2026-03-24T13:45:46.985Z</time></trkpt><trkpt lat="45.37071770261782" lon="10.560724182050128"><ele>167.0</ele><time>2026-03-24T13:45:49.985Z</time></trkpt><trkpt lat="45.370687519300056" lon="10.560631215496914"><ele>167.0</ele><time>2026-03-24T13:45:52.985Z</time></trkpt><trkpt lat="45.37065390439161" lon="10.560536024262115"><ele>167.0</ele><time>2026-03-24T13:45:55.985Z</time></trkpt><trkpt lat="45.370609009292494" lon="10.560440137952874"><ele>167.0</ele><time>2026-03-24T13:45:58.985Z</time></trkpt><trkpt lat="45.3705607304111" lon="10.560355144259228"><ele>167.0</ele><time>2026-03-24T13:46:01.985Z</time></trkpt><trkpt lat="45.37052855970597" lon="10.560269732833968"><ele>167.0</ele><time>2026-03-24T13:46:03.985Z</time></trkpt><trkpt lat="45.37050951261118" lon="10.560169225869092"><ele>167.0</ele><time>2026-03-24T13:46:06.985Z</time></trkpt><trkpt lat="45.37048263816262" lon="10.560076983310575"><ele>167.0</ele><time>2026-03-24T13:46:09.985Z</time></trkpt><trkpt lat="45.37043472239916" lon="10.559985938300121"><ele>167.0</ele><time>2026-03-24T13:46:12.985Z</time></trkpt><trkpt lat="45.37037750890263" lon="10.559879801668743"><ele>164.16666666666666</ele><time>2026-03-24T13:46:15.985Z</time></trkpt><trkpt lat="45.370326427299105" lon="10.559825787569316"><ele>161.33333333333331</ele><time>2026-03-24T13:46:17.985Z</time></trkpt><trkpt lat="45.370239126321465" lon="10.55977324373169"><ele>158.5</ele><time>2026-03-24T13:46:20.985Z</time></trkpt><trkpt lat="45.3701584179036" lon="10.559710913750122"><ele>155.66666666666666</ele><time>2026-03-24T13:46:23.985Z</time></trkpt><trkpt lat="45.37008564017409" lon="10.559641250112978"><ele>152.83333333333334</ele><time>2026-03-24T13:46:26.985Z</time></trkpt><trkpt lat="45.37002073715442" lon="10.559546861747455"><ele>150.0</ele><time>2026-03-24T13:46:29.985Z</time></trkpt><trkpt lat="45.36994966488488" lon="10.559485421574742"><ele>150.0</ele><time>2026-03-24T13:47:14.982Z</time></trkpt><trkpt lat="45.36986216251112" lon="10.559446786165939"><ele>150.0</ele><time>2026-03-24T13:47:20.981Z</time></trkpt><trkpt lat="45.36980532930079" lon="10.559397686501866"><ele>150.0</ele><time>2026-03-24T13:47:22.981Z</time></trkpt><trkpt lat="45.369752177546324" lon="10.55934853290565"><ele>150.0</ele><time>2026-03-24T13:47:24.981Z</time></trkpt><trkpt lat="45.369678373051876" lon="10.559303841930461"><ele>150.0</ele><time>2026-03-24T13:47:27.981Z</time></trkpt><trkpt lat="45.36961059605396" lon="10.559268863186219"><ele>150.0</ele><time>2026-03-24T13:47:30.981Z</time></trkpt><trkpt lat="45.36955536253452" lon="10.559176953766688"><ele>148.7142857142857</ele><time>2026-03-24T13:47:33.981Z</time></trkpt><trkpt lat="45.36955430261375" lon="10.559066933896943"><ele>147.42857142857142</ele><time>2026-03-24T13:47:36.98Z</time></trkpt><trkpt lat="45.36949054084557" lon="10.559057271666457"><ele>146.14285714285714</ele><time>2026-03-24T13:47:39.98Z</time></trkpt><trkpt lat="45.36947963882" lon="10.559166585695122"><ele>144.85714285714283</ele><time>2026-03-24T13:47:44.98Z</time></trkpt><trkpt lat="45.36947185244245" lon="10.559260152446658"><ele>143.57142857142856</ele><time>2026-03-24T13:47:47.98Z</time></trkpt><trkpt lat="45.36946884256138" lon="10.55936024016359"><ele>142.28571428571428</ele><time>2026-03-24T13:47:50.98Z</time></trkpt><trkpt lat="45.36945798857698" lon="10.559457955611142"><ele>141.0</ele><time>2026-03-24T13:47:52.98Z</time></trkpt><trkpt lat="45.36944618972728" lon="10.559568107098313"><ele>140.33333333333334</ele><time>2026-03-24T13:47:55.98Z</time></trkpt><trkpt lat="45.36944312495485" lon="10.559658744232694"><ele>139.66666666666666</ele><time>2026-03-24T13:47:57.98Z</time></trkpt><trkpt lat="45.36943543155274" lon="10.559757102756784"><ele>139.0</ele><time>2026-03-24T13:47:59.98Z</time></trkpt><trkpt lat="45.369424659796685" lon="10.559878369502083"><ele>138.33333333333331</ele><time>2026-03-24T13:48:02.98Z</time></trkpt><trkpt lat="45.36941846929381" lon="10.560002915152015"><ele>137.66666666666666</ele><time>2026-03-24T13:48:05.98Z</time></trkpt><trkpt lat="45.36941424755736" lon="10.560125644644048"><ele>137.0</ele><time>2026-03-24T13:48:08.98Z</time></trkpt><trkpt lat="45.36947076178076" lon="10.560181441897294"><ele>137.0</ele><time>2026-03-24T13:48:10.98Z</time></trkpt><trkpt lat="45.3695489116816" lon="10.560225724735638"><ele>137.0</ele><time>2026-03-24T13:48:13.98Z</time></trkpt><trkpt lat="45.36960923509553" lon="10.560311238459834"><ele>137.0</ele><time>2026-03-24T13:48:16.98Z</time></trkpt><trkpt lat="45.369605187137786" lon="10.560432322606024"><ele>137.0</ele><time>2026-03-24T13:48:19.98Z</time></trkpt><trkpt lat="45.369555949998706" lon="10.560529812568792"><ele>137.0</ele><time>2026-03-24T13:48:22.98Z</time></trkpt><trkpt lat="45.36951125793893" lon="10.560613581951468"><ele>137.0</ele><time>2026-03-24T13:48:25.98Z</time></trkpt><trkpt lat="45.3694618554373" lon="10.560682860826942"><ele>137.16666666666666</ele><time>2026-03-24T13:48:28.979Z</time></trkpt><trkpt lat="45.36941542523537" lon="10.560774236725662"><ele>137.33333333333331</ele><time>2026-03-24T13:48:31.979Z</time></trkpt><trkpt lat="45.36936823171265" lon="10.560851265511285"><ele>137.5</ele><time>2026-03-24T13:48:34.979Z</time></trkpt><trkpt lat="45.36931613653686" lon="10.560919023259267"><ele>137.66666666666666</ele><time>2026-03-24T13:48:37.979Z</time></trkpt><trkpt lat="45.36925947642045" lon="10.561012634980166"><ele>137.83333333333334</ele><time>2026-03-24T13:48:40.979Z</time></trkpt><trkpt lat="45.36920746630893" lon="10.561096400163171"><ele>138.0</ele><time>2026-03-24T13:48:43.979Z</time></trkpt><trkpt lat="45.36920794462574" lon="10.56121669867329"><ele>138.0</ele><time>2026-03-24T13:48:46.979Z</time></trkpt><trkpt lat="45.369250166254076" lon="10.561301351168112"><ele>138.0</ele><time>2026-03-24T13:48:49.982Z</time></trkpt><trkpt lat="45.369304805253854" lon="10.561401824643129"><ele>138.0</ele><time>2026-03-24T13:48:53.982Z</time></trkpt><trkpt lat="45.36934637967048" lon="10.56148308478635"><ele>138.0</ele><time>2026-03-24T13:48:56.982Z</time></trkpt><trkpt lat="45.36938211852397" lon="10.561570838323998"><ele>138.0</ele><time>2026-03-24T13:48:59.982Z</time></trkpt><trkpt lat="45.3694139768348" lon="10.561651547613595"><ele>138.0</ele><time>2026-03-24T13:49:02.982Z</time></trkpt><trkpt lat="45.36944962647409" lon="10.561734212063255"><ele>138.0</ele><time>2026-03-24T13:49:05.982Z</time></trkpt><trkpt lat="45.369473027465915" lon="10.561825575361413"><ele>138.0</ele><time>2026-03-24T13:49:08.982Z</time></trkpt><trkpt lat="45.36951891462275" lon="10.561931762823662"><ele>138.0</ele><time>2026-03-24T13:49:12.982Z</time></trkpt><trkpt lat="45.369547397558314" lon="10.562013170759952"><ele>138.0</ele><time>2026-03-24T13:49:15.982Z</time></trkpt><trkpt lat="45.36960379466321" lon="10.5621006929606"><ele>138.0</ele><time>2026-03-24T13:49:19.982Z</time></trkpt><trkpt lat="45.36964959637022" lon="10.562185323294196"><ele>138.0</ele><time>2026-03-24T13:49:23.982Z</time></trkpt><trkpt lat="45.36969784813335" lon="10.56225627263189"><ele>138.0</ele><time>2026-03-24T13:49:26.982Z</time></trkpt><trkpt lat="45.36973187505992" lon="10.562335579161095"><ele>138.0</ele><time>2026-03-24T13:49:29.982Z</time></trkpt><trkpt lat="45.36977675387505" lon="10.562426084833717"><ele>140.14285714285714</ele><time>2026-03-24T13:49:33.982Z</time></trkpt><trkpt lat="45.369827406793334" lon="10.562502942199796"><ele>142.2857142857143</ele><time>2026-03-24T13:49:36.982Z</time></trkpt><trkpt lat="45.36986322650207" lon="10.562586086363373"><ele>144.42857142857144</ele><time>2026-03-24T13:49:39.982Z</time></trkpt><trkpt lat="45.36992342168484" lon="10.562669240228834"><ele>146.57142857142858</ele><time>2026-03-24T13:49:43.982Z</time></trkpt><trkpt lat="45.369996932587654" lon="10.56270177125081"><ele>148.71428571428572</ele><time>2026-03-24T13:49:47.982Z</time></trkpt><trkpt lat="45.37006883502517" lon="10.56269027565981"><ele>150.85714285714286</ele><time>2026-03-24T13:49:50.982Z</time></trkpt><trkpt lat="45.37013351350081" lon="10.562716408446766"><ele>153.0</ele><time>2026-03-24T13:49:53.982Z</time></trkpt><trkpt lat="45.37019550627434" lon="10.562740756159041"><ele>153.0</ele><time>2026-03-24T13:49:57.982Z</time></trkpt><trkpt lat="45.37021023224266" lon="10.562830159894755"><ele>153.0</ele><time>2026-03-24T13:50:06.982Z</time></trkpt><trkpt lat="45.37022505938147" lon="10.56292382872964"><ele>153.0</ele><time>2026-03-24T13:50:11.981Z</time></trkpt><trkpt lat="45.37019407697255" lon="10.563010488161224"><ele>153.0</ele><time>2026-03-24T13:50:15.981Z</time></trkpt><trkpt lat="45.37021668864287" lon="10.563111312353435"><ele>153.0</ele><time>2026-03-24T13:50:19.981Z</time></trkpt><trkpt lat="45.37020473712553" lon="10.563215116051811"><ele>153.0</ele><time>2026-03-24T13:50:22.981Z</time></trkpt><trkpt lat="45.37021417334893" lon="10.56330999075584"><ele>153.0</ele><time>2026-03-24T13:50:25.981Z</time></trkpt><trkpt lat="45.37021127124084" lon="10.563411183033907"><ele>153.28571428571428</ele><time>2026-03-24T13:50:28.981Z</time></trkpt><trkpt lat="45.370198254758165" lon="10.563510852286477"><ele>153.57142857142858</ele><time>2026-03-24T13:50:31.981Z</time></trkpt><trkpt lat="45.37023177716653" lon="10.5636186326464"><ele>153.85714285714286</ele><time>2026-03-24T13:50:34.981Z</time></trkpt><trkpt lat="45.37023317648506" lon="10.563714093691477"><ele>154.14285714285714</ele><time>2026-03-24T13:50:37.981Z</time></trkpt><trkpt lat="45.37030471980027" lon="10.56378310031388"><ele>154.42857142857142</ele><time>2026-03-24T13:50:42.981Z</time></trkpt><trkpt lat="45.37036385729692" lon="10.563816009210438"><ele>154.71428571428572</ele><time>2026-03-24T13:50:47.981Z</time></trkpt><trkpt lat="45.37041730343799" lon="10.563866155509302"><ele>155.0</ele><time>2026-03-24T13:51:02.983Z</time></trkpt><trkpt lat="45.37049112904752" lon="10.563868164764227"><ele>157.0</ele><time>2026-03-24T13:51:08.983Z</time></trkpt><trkpt lat="45.37055576072077" lon="10.563870912476638"><ele>159.0</ele><time>2026-03-24T13:51:14.983Z</time></trkpt><trkpt lat="45.37063077340072" lon="10.56388036807772"><ele>161.0</ele><time>2026-03-24T13:51:21.983Z</time></trkpt><trkpt lat="45.370694398329945" lon="10.563905839554758"><ele>163.0</ele><time>2026-03-24T13:51:26.982Z</time></trkpt><trkpt lat="45.37076363319767" lon="10.563910008391852"><ele>165.0</ele><time>2026-03-24T13:51:30.982Z</time></trkpt><trkpt lat="45.370827952774135" lon="10.563908863024201"><ele>167.0</ele><time>2026-03-24T13:51:34.982Z</time></trkpt><trkpt lat="45.37089510590776" lon="10.5639253985719"><ele>169.0</ele><time>2026-03-24T13:51:57.982Z</time></trkpt><trkpt lat="45.370963572556846" lon="10.563973250288631"><ele>169.0</ele><time>2026-03-24T13:52:02.982Z</time></trkpt><trkpt lat="45.37103414867733" lon="10.564007324140753"><ele>169.0</ele><time>2026-03-24T13:52:07.982Z</time></trkpt><trkpt lat="45.37109544200869" lon="10.563985241305094"><ele>169.0</ele><time>2026-03-24T13:52:12.982Z</time></trkpt><trkpt lat="45.37116252152705" lon="10.563939493566677"><ele>169.0</ele><time>2026-03-24T13:52:18.982Z</time></trkpt><trkpt lat="45.37120169783401" lon="10.563868434249411"><ele>169.0</ele><time>2026-03-24T13:52:23.982Z</time></trkpt><trkpt lat="45.371261494027046" lon="10.56390235377839"><ele>169.0</ele><time>2026-03-24T13:52:28.982Z</time></trkpt><trkpt lat="45.371329676296256" lon="10.56393563217101"><ele>169.0</ele><time>2026-03-24T13:52:32.981Z</time></trkpt><trkpt lat="45.37139094865371" lon="10.564020751799283"><ele>172.14285714285714</ele><time>2026-03-24T13:52:36.981Z</time></trkpt><trkpt lat="45.3714573697297" lon="10.564084453080858"><ele>175.28571428571428</ele><time>2026-03-24T13:52:40.981Z</time></trkpt><trkpt lat="45.371521108663316" lon="10.564133828352801"><ele>178.42857142857144</ele><time>2026-03-24T13:52:45.981Z</time></trkpt><trkpt lat="45.37159038022367" lon="10.564172298695858"><ele>181.57142857142856</ele><time>2026-03-24T13:52:51.981Z</time></trkpt><trkpt lat="45.37165703861859" lon="10.564190811010016"><ele>184.7142857142857</ele><time>2026-03-24T13:52:54.981Z</time></trkpt><trkpt lat="45.37173132615167" lon="10.564184100352428"><ele>187.85714285714286</ele><time>2026-03-24T13:52:57.981Z</time></trkpt><trkpt lat="45.37180141290216" lon="10.564143215979069"><ele>191.0</ele><time>2026-03-24T13:53:01.984Z</time></trkpt><trkpt lat="45.37186968347922" lon="10.564115180711"><ele>191.0</ele><time>2026-03-24T13:53:04.984Z</time></trkpt><trkpt lat="45.371942981035964" lon="10.564103647272836"><ele>191.0</ele><time>2026-03-24T13:53:07.984Z</time></trkpt><trkpt lat="45.37200537183437" lon="10.564085182378173"><ele>191.0</ele><time>2026-03-24T13:53:10.984Z</time></trkpt><trkpt lat="45.372041796854084" lon="10.563993286822212"><ele>191.0</ele><time>2026-03-24T13:53:14.984Z</time></trkpt><trkpt lat="45.372002788321794" lon="10.563922618598673"><ele>191.0</ele><time>2026-03-24T13:53:18.983Z</time></trkpt><trkpt lat="45.37192780179327" lon="10.563920251472089"><ele>191.0</ele><time>2026-03-24T13:53:22.983Z</time></trkpt><trkpt lat="45.37186080245837" lon="10.563917260457462"><ele>191.0</ele><time>2026-03-24T13:53:26.983Z</time></trkpt><trkpt lat="45.37179215814312" lon="10.563937192202594"><ele>191.0</ele><time>2026-03-24T13:53:30.983Z</time></trkpt><trkpt lat="45.37184325424296" lon="10.563849661662012"><ele>191.0</ele><time>2026-03-24T13:53:41.983Z</time></trkpt><trkpt lat="45.371817565351236" lon="10.563727248171158"><ele>191.0</ele><time>2026-03-24T13:53:45.983Z</time></trkpt><trkpt lat="45.37177710280387" lon="10.563641238755727"><ele>191.0</ele><time>2026-03-24T13:53:49.983Z</time></trkpt><trkpt lat="45.37170202951688" lon="10.563617082255695"><ele>191.0</ele><time>2026-03-24T13:53:53.983Z</time></trkpt><trkpt lat="45.37171683934932" lon="10.56352720232736"><ele>191.0</ele><time>2026-03-24T13:54:00.983Z</time></trkpt><trkpt lat="45.3717845777761" lon="10.56348863682794"><ele>191.0</ele><time>2026-03-24T13:54:03.983Z</time></trkpt><trkpt lat="45.37186010568129" lon="10.563471184350805"><ele>191.0</ele><time>2026-03-24T13:54:06.983Z</time></trkpt><trkpt lat="45.371921839622054" lon="10.563496904083541"><ele>191.0</ele><time>2026-03-24T13:54:10.983Z</time></trkpt><trkpt lat="45.37195582354573" lon="10.563613157772911"><ele>191.0</ele><time>2026-03-24T13:54:21.984Z</time></trkpt><trkpt lat="45.37199666908511" lon="10.563681616940679"><ele>191.0</ele><time>2026-03-24T13:54:24.983Z</time></trkpt><trkpt lat="45.37202285641968" lon="10.563785672965189"><ele>191.0</ele><time>2026-03-24T13:54:27.983Z</time></trkpt><trkpt lat="45.3720205839689" lon="10.56388847889021"><ele>191.0</ele><time>2026-03-24T13:54:30.983Z</time></trkpt><trkpt lat="45.37207516144242" lon="10.563980132415386"><ele>191.0</ele><time>2026-03-24T13:54:34.983Z</time></trkpt><trkpt lat="45.37198727530714" lon="10.564033047917897"><ele>191.0</ele><time>2026-03-24T13:54:39.983Z</time></trkpt><trkpt lat="45.37196123066425" lon="10.564118262653363"><ele>191.0</ele><time>2026-03-24T13:54:42.983Z</time></trkpt><trkpt lat="45.371905118466145" lon="10.564162156965097"><ele>191.0</ele><time>2026-03-24T13:54:47.983Z</time></trkpt><trkpt lat="45.3718486474824" lon="10.564226827113538"><ele>191.0</ele><time>2026-03-24T13:54:50.983Z</time></trkpt><trkpt lat="45.37180198582194" lon="10.564296793853376"><ele>191.0</ele><time>2026-03-24T13:54:53.983Z</time></trkpt><trkpt lat="45.37174151333399" lon="10.564360030547695"><ele>191.0</ele><time>2026-03-24T13:54:56.983Z</time></trkpt><trkpt lat="45.37171806397197" lon="10.564456169168855"><ele>191.0</ele><time>2026-03-24T13:54:59.983Z</time></trkpt><trkpt lat="45.3717025076982" lon="10.564544547098423"><ele>191.0</ele><time>2026-03-24T13:55:02.983Z</time></trkpt><trkpt lat="45.37177168765027" lon="10.564556843073346"><ele>191.0</ele><time>2026-03-24T13:55:06.985Z</time></trkpt><trkpt lat="45.37184455985244" lon="10.564510274183748"><ele>191.0</ele><time>2026-03-24T13:55:09.986Z</time></trkpt><trkpt lat="45.371922159953954" lon="10.564512747344018"><ele>191.0</ele><time>2026-03-24T13:55:12.986Z</time></trkpt><trkpt lat="45.37200162495119" lon="10.564487915319253"><ele>191.0</ele><time>2026-03-24T13:55:15.986Z</time></trkpt><trkpt lat="45.37206833335429" lon="10.56450905281812"><ele>191.0</ele><time>2026-03-24T13:55:18.986Z</time></trkpt><trkpt lat="45.372135533255495" lon="10.564522808018127"><ele>187.5</ele><time>2026-03-24T13:55:21.985Z</time></trkpt><trkpt lat="45.372207357229755" lon="10.564534030241896"><ele>184.0</ele><time>2026-03-24T13:55:24.985Z</time></trkpt><trkpt lat="45.37227342937928" lon="10.564539409270864"><ele>180.5</ele><time>2026-03-24T13:55:27.985Z</time></trkpt><trkpt lat="45.372346662096476" lon="10.564541349383775"><ele>177.0</ele><time>2026-03-24T13:55:30.985Z</time></trkpt><trkpt lat="45.37242711514315" lon="10.564575519202547"><ele>173.5</ele><time>2026-03-24T13:55:33.985Z</time></trkpt><trkpt lat="45.37242304506682" lon="10.564701631619004"><ele>170.0</ele><time>2026-03-24T13:55:36.985Z</time></trkpt><trkpt lat="45.37235636264473" lon="10.56475464380806"><ele>170.0</ele><time>2026-03-24T13:55:40.985Z</time></trkpt><trkpt lat="45.372296210221506" lon="10.564810589651572"><ele>170.0</ele><time>2026-03-24T13:55:45.985Z</time></trkpt><trkpt lat="45.37223975001089" lon="10.564850541757856"><ele>170.0</ele><time>2026-03-24T13:55:49.985Z</time></trkpt><trkpt lat="45.372195931239034" lon="10.564921420222893"><ele>170.0</ele><time>2026-03-24T13:55:53.985Z</time></trkpt><trkpt lat="45.372175661873285" lon="10.565021403203216"><ele>170.0</ele><time>2026-03-24T13:55:57.985Z</time></trkpt><trkpt lat="45.37211542573624" lon="10.565081963753869"><ele>170.0</ele><time>2026-03-24T13:56:02.984Z</time></trkpt><trkpt lat="45.3720488320175" lon="10.56507788443712"><ele>170.0</ele><time>2026-03-24T13:56:05.984Z</time></trkpt><trkpt lat="45.37203330484499" lon="10.565200989089629"><ele>170.14285714285714</ele><time>2026-03-24T13:56:09.984Z</time></trkpt><trkpt lat="45.37199549842566" lon="10.5653057335811"><ele>170.28571428571428</ele><time>2026-03-24T13:56:18.984Z</time></trkpt><trkpt lat="45.37192993220212" lon="10.565368298565541"><ele>170.42857142857142</ele><time>2026-03-24T13:56:23.984Z</time></trkpt><trkpt lat="45.371864345050255" lon="10.565411228387914"><ele>170.57142857142856</ele><time>2026-03-24T13:56:30.984Z</time></trkpt><trkpt lat="45.37180133585191" lon="10.565466876385438"><ele>170.71428571428572</ele><time>2026-03-24T13:56:33.984Z</time></trkpt><trkpt lat="45.371750718918264" lon="10.565533195262033"><ele>170.85714285714283</ele><time>2026-03-24T13:56:43.984Z</time></trkpt><trkpt lat="45.371688690765666" lon="10.565577312156204"><ele>171.0</ele><time>2026-03-24T13:56:46.984Z</time></trkpt><trkpt lat="45.37161275712635" lon="10.565618013234857"><ele>166.66666666666666</ele><time>2026-03-24T13:56:50.984Z</time></trkpt><trkpt lat="45.371538665530366" lon="10.56562437934686"><ele>162.33333333333334</ele><time>2026-03-24T13:56:52.984Z</time></trkpt><trkpt lat="45.3714558758419" lon="10.565613357694211"><ele>158.0</ele><time>2026-03-24T13:56:55.984Z</time></trkpt><trkpt lat="45.37137244632884" lon="10.565604813339968"><ele>153.66666666666669</ele><time>2026-03-24T13:56:58.984Z</time></trkpt><trkpt lat="45.37129274769302" lon="10.565597420543341"><ele>149.33333333333334</ele><time>2026-03-24T13:57:01.984Z</time></trkpt><trkpt lat="45.37121942585109" lon="10.565578223041248"><ele>145.0</ele><time>2026-03-24T13:57:04.984Z</time></trkpt><trkpt lat="45.37114928007202" lon="10.565547899748136"><ele>143.0</ele><time>2026-03-24T13:57:07.984Z</time></trkpt><trkpt lat="45.37107048556353" lon="10.56550210642475"><ele>141.0</ele><time>2026-03-24T13:57:10.983Z</time></trkpt><trkpt lat="45.37099825177063" lon="10.565498431903043"><ele>139.0</ele><time>2026-03-24T13:57:13.986Z</time></trkpt><trkpt lat="45.37093165562467" lon="10.565518312731884"><ele>137.0</ele><time>2026-03-24T13:57:15.986Z</time></trkpt><trkpt lat="45.37084970150939" lon="10.565464952435882"><ele>135.0</ele><time>2026-03-24T13:57:18.987Z</time></trkpt><trkpt lat="45.37076864252366" lon="10.565427227842662"><ele>133.0</ele><time>2026-03-24T13:57:21.987Z</time></trkpt><trkpt lat="45.370692904964265" lon="10.565390585683335"><ele>135.28571428571428</ele><time>2026-03-24T13:57:24.987Z</time></trkpt><trkpt lat="45.37061458274755" lon="10.565342340377578"><ele>137.57142857142856</ele><time>2026-03-24T13:57:27.987Z</time></trkpt><trkpt lat="45.37055708720289" lon="10.565276969006838"><ele>139.85714285714286</ele><time>2026-03-24T13:57:30.987Z</time></trkpt><trkpt lat="45.37063570689468" lon="10.565285624981986"><ele>142.14285714285714</ele><time>2026-03-24T13:57:41.987Z</time></trkpt><trkpt lat="45.370694976762834" lon="10.56524956477094"><ele>144.42857142857142</ele><time>2026-03-24T13:57:46.987Z</time></trkpt><trkpt lat="45.37075865331099" lon="10.565194733505704"><ele>146.71428571428572</ele><time>2026-03-24T13:57:51.987Z</time></trkpt><trkpt lat="45.37081348534527" lon="10.565146402125475"><ele>149.0</ele><time>2026-03-24T13:57:55.987Z</time></trkpt><trkpt lat="45.37088220945967" lon="10.565090857410533"><ele>149.0</ele><time>2026-03-24T13:58:00.987Z</time></trkpt><trkpt lat="45.37088850888457" lon="10.564987728956112"><ele>149.0</ele><time>2026-03-24T13:58:11.986Z</time></trkpt><trkpt lat="45.37095351861859" lon="10.56499346390159"><ele>149.0</ele><time>2026-03-24T13:58:30.986Z</time></trkpt><trkpt lat="45.371011554731574" lon="10.565033038640093"><ele>149.0</ele><time>2026-03-24T13:58:33.986Z</time></trkpt><trkpt lat="45.371076165595404" lon="10.565075148981505"><ele>149.0</ele><time>2026-03-24T13:58:39.986Z</time></trkpt><trkpt lat="45.37114394086529" lon="10.565115113062694"><ele>149.0</ele><time>2026-03-24T13:58:42.986Z</time></trkpt><trkpt lat="45.3712129442172" lon="10.565160842603818"><ele>149.0</ele><time>2026-03-24T13:58:45.986Z</time></trkpt><trkpt lat="45.371272540004334" lon="10.565222529586737"><ele>149.0</ele><time>2026-03-24T13:58:48.986Z</time></trkpt><trkpt lat="45.37133294600022" lon="10.565192190957335"><ele>149.0</ele><time>2026-03-24T13:58:53.986Z</time></trkpt><trkpt lat="45.371396080935426" lon="10.565237833995285"><ele>149.0</ele><time>2026-03-24T13:58:59.986Z</time></trkpt><trkpt lat="45.37143326975703" lon="10.56514870831415"><ele>149.0</ele><time>2026-03-24T13:59:07.986Z</time></trkpt><trkpt lat="45.37139635801661" lon="10.565073976961855"><ele>149.0</ele><time>2026-03-24T13:59:13.986Z</time></trkpt><trkpt lat="45.371342462442406" lon="10.5649924106179"><ele>149.0</ele><time>2026-03-24T13:59:18.988Z</time></trkpt><trkpt lat="45.371293470823446" lon="10.564930262338718"><ele>149.0</ele><time>2026-03-24T13:59:21.988Z</time></trkpt><trkpt lat="45.37124258510684" lon="10.564853091141751"><ele>149.0</ele><time>2026-03-24T13:59:25.988Z</time></trkpt><trkpt lat="45.37119549186669" lon="10.564762547749842"><ele>149.0</ele><time>2026-03-24T13:59:29.987Z</time></trkpt><trkpt lat="45.371148059061184" lon="10.564694864611486"><ele>149.0</ele><time>2026-03-24T13:59:32.988Z</time></trkpt><trkpt lat="45.371092619455794" lon="10.56462138183023"><ele>149.0</ele><time>2026-03-24T13:59:36.988Z</time></trkpt><trkpt lat="45.371032847125285" lon="10.564563632273604"><ele>149.0</ele><time>2026-03-24T13:59:40.988Z</time></trkpt><trkpt lat="45.37097577163459" lon="10.564515170366501"><ele>149.0</ele><time>2026-03-24T13:59:43.988Z</time></trkpt><trkpt lat="45.370969321923425" lon="10.5644131895185"><ele>149.0</ele><time>2026-03-24T13:59:50.988Z</time></trkpt><trkpt lat="45.370992321667174" lon="10.564328617294786"><ele>151.85714285714286</ele><time>2026-03-24T14:00:00.988Z</time></trkpt><trkpt lat="45.37096476841966" lon="10.56421694938762"><ele>154.7142857142857</ele><time>2026-03-24T14:00:12.988Z</time></trkpt><trkpt lat="45.37095257893515" lon="10.564128872980636"><ele>157.57142857142856</ele><time>2026-03-24T14:00:23.988Z</time></trkpt><trkpt lat="45.370889214354655" lon="10.564074742934073"><ele>160.42857142857142</ele><time>2026-03-24T14:00:30.987Z</time></trkpt><trkpt lat="45.370827558860846" lon="10.564041787310712"><ele>163.28571428571428</ele><time>2026-03-24T14:00:33.987Z</time></trkpt><trkpt lat="45.37076510459722" lon="10.563990966249598"><ele>166.14285714285714</ele><time>2026-03-24T14:00:37.987Z</time></trkpt><trkpt lat="45.370712880711835" lon="10.563928716507817"><ele>169.0</ele><time>2026-03-24T14:00:41.987Z</time></trkpt><trkpt lat="45.37064961757191" lon="10.56390800033948"><ele>169.0</ele><time>2026-03-24T14:00:45.987Z</time></trkpt><trkpt lat="45.370573995191954" lon="10.56391155498185"><ele>169.0</ele><time>2026-03-24T14:00:49.987Z</time></trkpt><trkpt lat="45.37050193828905" lon="10.56391080219173"><ele>169.0</ele><time>2026-03-24T14:00:53.987Z</time></trkpt><trkpt lat="45.37043772196042" lon="10.56391400148751"><ele>169.0</ele><time>2026-03-24T14:00:59.987Z</time></trkpt><trkpt lat="45.37037583312075" lon="10.56386641896918"><ele>169.0</ele><time>2026-03-24T14:01:07.987Z</time></trkpt><trkpt lat="45.37032439584424" lon="10.563803264665518"><ele>169.0</ele><time>2026-03-24T14:01:11.987Z</time></trkpt><trkpt lat="45.370259545888864" lon="10.5637664011096"><ele>169.0</ele><time>2026-03-24T14:01:45.988Z</time></trkpt><trkpt lat="45.37027272757522" lon="10.563668869669392"><ele>166.66666666666669</ele><time>2026-03-24T14:01:49.988Z</time></trkpt><trkpt lat="45.37026059706392" lon="10.563563084228074"><ele>164.33333333333334</ele><time>2026-03-24T14:01:52.988Z</time></trkpt><trkpt lat="45.37027299421029" lon="10.563436204128157"><ele>162.0</ele><time>2026-03-24T14:01:56.988Z</time></trkpt><trkpt lat="45.37025835639236" lon="10.563327201275325"><ele>159.66666666666666</ele><time>2026-03-24T14:01:59.988Z</time></trkpt><trkpt lat="45.370266850867274" lon="10.563207993139581"><ele>157.33333333333331</ele><time>2026-03-24T14:02:02.988Z</time></trkpt><trkpt lat="45.37025746092521" lon="10.56310844105087"><ele>155.0</ele><time>2026-03-24T14:02:07.988Z</time></trkpt><trkpt lat="45.37029321264332" lon="10.56302522445432"><ele>155.0</ele><time>2026-03-24T14:02:11.988Z</time></trkpt><trkpt lat="45.370284486181674" lon="10.562925067285141"><ele>155.0</ele><time>2026-03-24T14:02:15.988Z</time></trkpt><trkpt lat="45.37027225543827" lon="10.562816790768954"><ele>155.0</ele><time>2026-03-24T14:02:18.988Z</time></trkpt><trkpt lat="45.370209819212604" lon="10.562771130142924"><ele>155.0</ele><time>2026-03-24T14:02:20.988Z</time></trkpt><trkpt lat="45.37012070464451" lon="10.562763620667253"><ele>155.0</ele><time>2026-03-24T14:02:23.988Z</time></trkpt><trkpt lat="45.370038459163496" lon="10.562758064163823"><ele>155.0</ele><time>2026-03-24T14:02:26.988Z</time></trkpt><trkpt lat="45.369986645108675" lon="10.562703859674558"><ele>154.71428571428572</ele><time>2026-03-24T14:02:28.988Z</time></trkpt><trkpt lat="45.36992408068984" lon="10.562621570139557"><ele>154.42857142857142</ele><time>2026-03-24T14:02:31.988Z</time></trkpt><trkpt lat="45.3698919013529" lon="10.562538353433377"><ele>154.14285714285714</ele><time>2026-03-24T14:02:33.988Z</time></trkpt><trkpt lat="45.36985184535752" lon="10.562459356063089"><ele>153.85714285714286</ele><time>2026-03-24T14:02:35.988Z</time></trkpt><trkpt lat="45.36980148391268" lon="10.562373062608252"><ele>153.57142857142858</ele><time>2026-03-24T14:02:37.988Z</time></trkpt><trkpt lat="45.36976132286458" lon="10.562296672846013"><ele>153.28571428571428</ele><time>2026-03-24T14:02:39.988Z</time></trkpt><trkpt lat="45.369721117706796" lon="10.562221645263845"><ele>153.0</ele><time>2026-03-24T14:02:41.987Z</time></trkpt><trkpt lat="45.369655535708674" lon="10.56211949337869"><ele>150.85714285714286</ele><time>2026-03-24T14:02:44.987Z</time></trkpt><trkpt lat="45.369594908178435" lon="10.56201665177885"><ele>148.71428571428572</ele><time>2026-03-24T14:02:47.987Z</time></trkpt><trkpt lat="45.36955858070169" lon="10.56194173388208"><ele>146.57142857142858</ele><time>2026-03-24T14:02:49.986Z</time></trkpt><trkpt lat="45.36954483949306" lon="10.561853706185582"><ele>144.42857142857144</ele><time>2026-03-24T14:02:51.986Z</time></trkpt><trkpt lat="45.369506561900394" lon="10.56178125622131"><ele>142.2857142857143</ele><time>2026-03-24T14:02:53.985Z</time></trkpt><trkpt lat="45.369478026100744" lon="10.561690899053813"><ele>140.14285714285714</ele><time>2026-03-24T14:02:55.985Z</time></trkpt><trkpt lat="45.369440912492784" lon="10.561617908170469"><ele>138.0</ele><time>2026-03-24T14:02:57.984Z</time></trkpt><trkpt lat="45.369405407052405" lon="10.561530830931165"><ele>138.0</ele><time>2026-03-24T14:02:59.984Z</time></trkpt><trkpt lat="45.369367945732144" lon="10.561412625334047"><ele>138.0</ele><time>2026-03-24T14:03:02.983Z</time></trkpt><trkpt lat="45.36931488363725" lon="10.561317089271812"><ele>138.0</ele><time>2026-03-24T14:03:05.983Z</time></trkpt><trkpt lat="45.369279635434914" lon="10.561233289905516"><ele>138.0</ele><time>2026-03-24T14:03:07.982Z</time></trkpt><trkpt lat="45.36926511244985" lon="10.561145650568967"><ele>138.0</ele><time>2026-03-24T14:03:09.982Z</time></trkpt><trkpt lat="45.369281530013446" lon="10.56105045264387"><ele>138.0</ele><time>2026-03-24T14:03:11.982Z</time></trkpt><trkpt lat="45.36933986662735" lon="10.560963591813847"><ele>138.0</ele><time>2026-03-24T14:03:14.982Z</time></trkpt><trkpt lat="45.36940402020758" lon="10.560883754246246"><ele>138.0</ele><time>2026-03-24T14:03:17.981Z</time></trkpt><trkpt lat="45.369461009783365" lon="10.560792615121649"><ele>138.0</ele><time>2026-03-24T14:03:20.981Z</time></trkpt><trkpt lat="45.36949571673605" lon="10.560714138435056"><ele>138.0</ele><time>2026-03-24T14:03:22.981Z</time></trkpt><trkpt lat="45.369548572329045" lon="10.560607211147014"><ele>138.0</ele><time>2026-03-24T14:03:25.981Z</time></trkpt><trkpt lat="45.369611339377066" lon="10.560506528334749"><ele>138.0</ele><time>2026-03-24T14:03:28.981Z</time></trkpt><trkpt lat="45.36963687222281" lon="10.560386406569828"><ele>137.83333333333334</ele><time>2026-03-24T14:03:31.983Z</time></trkpt><trkpt lat="45.369642065913666" lon="10.560293594513233"><ele>137.66666666666666</ele><time>2026-03-24T14:03:33.984Z</time></trkpt><trkpt lat="45.3695828479259" lon="10.560238436305863"><ele>137.5</ele><time>2026-03-24T14:03:35.984Z</time></trkpt><trkpt lat="45.36951774677646" lon="10.560216293515955"><ele>137.33333333333331</ele><time>2026-03-24T14:03:37.983Z</time></trkpt><trkpt lat="45.369448511154246" lon="10.560137001817983"><ele>137.16666666666666</ele><time>2026-03-24T14:03:40.983Z</time></trkpt><trkpt lat="45.369448210785606" lon="10.560032298731862"><ele>137.0</ele><time>2026-03-24T14:03:43.983Z</time></trkpt><trkpt lat="45.36946926295955" lon="10.5599121606687"><ele>137.0</ele><time>2026-03-24T14:03:46.983Z</time></trkpt><trkpt lat="45.36946677655465" lon="10.559791990573551"><ele>137.0</ele><time>2026-03-24T14:03:49.983Z</time></trkpt><trkpt lat="45.3694742611399" lon="10.559678549431782"><ele>137.0</ele><time>2026-03-24T14:03:52.983Z</time></trkpt><trkpt lat="45.36947593229924" lon="10.559559917499937"><ele>137.0</ele><time>2026-03-24T14:03:55.983Z</time></trkpt><trkpt lat="45.36948654849618" lon="10.559471094270892"><ele>137.0</ele><time>2026-03-24T14:03:57.983Z</time></trkpt><trkpt lat="45.369499026341934" lon="10.559341237058318"><ele>137.0</ele><time>2026-03-24T14:04:00.982Z</time></trkpt><trkpt lat="45.369513605964315" lon="10.559219812287553"><ele>137.66666666666666</ele><time>2026-03-24T14:04:03.982Z</time></trkpt><trkpt lat="45.36952318676932" lon="10.559117119641863"><ele>138.33333333333331</ele><time>2026-03-24T14:04:06.982Z</time></trkpt><trkpt lat="45.36953520055786" lon="10.558994063934076"><ele>139.0</ele><time>2026-03-24T14:04:13.982Z</time></trkpt><trkpt lat="45.36954349840219" lon="10.558866897411372"><ele>139.66666666666666</ele><time>2026-03-24T14:04:16.982Z</time></trkpt><trkpt lat="45.369541305839334" lon="10.558760621884046"><ele>140.33333333333334</ele><time>2026-03-24T14:04:19.982Z</time></trkpt><trkpt lat="45.369537843424595" lon="10.55867019657031"><ele>141.0</ele><time>2026-03-24T14:04:21.982Z</time></trkpt><trkpt lat="45.36953264579754" lon="10.558561692270464"><ele>141.0</ele><time>2026-03-24T14:04:24.982Z</time></trkpt><trkpt lat="45.369526405431095" lon="10.558445946721463"><ele>141.0</ele><time>2026-03-24T14:04:27.982Z</time></trkpt><trkpt lat="45.36952490835259" lon="10.55832171316894"><ele>141.0</ele><time>2026-03-24T14:04:30.982Z</time></trkpt><trkpt lat="45.36950438748422" lon="10.558200505945049"><ele>141.0</ele><time>2026-03-24T14:04:33.982Z</time></trkpt><trkpt lat="45.369503034890506" lon="10.558079066298895"><ele>141.0</ele><time>2026-03-24T14:04:36.982Z</time></trkpt><trkpt lat="45.369514709640946" lon="10.557963145609015"><ele>141.0</ele><time>2026-03-24T14:04:39.982Z</time></trkpt><trkpt lat="45.369525028835056" lon="10.55787292743851"><ele>141.33333333333334</ele><time>2026-03-24T14:04:41.982Z</time></trkpt><trkpt lat="45.36954439119272" lon="10.557777376528682"><ele>141.66666666666666</ele><time>2026-03-24T14:04:44.982Z</time></trkpt><trkpt lat="45.3695848689651" lon="10.557694423464927"><ele>142.0</ele><time>2026-03-24T14:04:46.982Z</time></trkpt><trkpt lat="45.369635917163926" lon="10.557596387841208"><ele>142.33333333333331</ele><time>2026-03-24T14:04:49.982Z</time></trkpt><trkpt lat="45.36971514820058" lon="10.55755252381178"><ele>142.66666666666666</ele><time>2026-03-24T14:04:52.982Z</time></trkpt><trkpt lat="45.36979424213626" lon="10.557506961815934"><ele>143.0</ele><time>2026-03-24T14:04:55.982Z</time></trkpt><trkpt lat="45.36986986316958" lon="10.557458905984682"><ele>143.0</ele><time>2026-03-24T14:04:58.981Z</time></trkpt><trkpt lat="45.369944059369715" lon="10.557407292303084"><ele>143.0</ele><time>2026-03-24T14:05:01.981Z</time></trkpt><trkpt lat="45.37000915528474" lon="10.55735843713017"><ele>143.0</ele><time>2026-03-24T14:05:04.981Z</time></trkpt><trkpt lat="45.37009109235429" lon="10.557312684937514"><ele>143.0</ele><time>2026-03-24T14:05:07.981Z</time></trkpt><trkpt lat="45.370156064847635" lon="10.557242077823304"><ele>143.0</ele><time>2026-03-24T14:05:10.981Z</time></trkpt><trkpt lat="45.37021332101497" lon="10.557158138472516"><ele>143.0</ele><time>2026-03-24T14:05:13.981Z</time></trkpt><trkpt lat="45.37024460844934" lon="10.55705942151107"><ele>142.33333333333331</ele><time>2026-03-24T14:05:16.981Z</time></trkpt><trkpt lat="45.37028670277263" lon="10.556983899410541"><ele>141.66666666666666</ele><time>2026-03-24T14:05:22.981Z</time></trkpt><trkpt lat="45.370331655180195" lon="10.556877030551357"><ele>141.0</ele><time>2026-03-24T14:05:25.981Z</time></trkpt><trkpt lat="45.370385497364346" lon="10.556787152792483"><ele>140.33333333333334</ele><time>2026-03-24T14:05:28.981Z</time></trkpt><trkpt lat="45.37044376597804" lon="10.55669368692734"><ele>139.66666666666669</ele><time>2026-03-24T14:05:31.981Z</time></trkpt><trkpt lat="45.37051816393427" lon="10.55661498285564"><ele>139.0</ele><time>2026-03-24T14:05:34.981Z</time></trkpt><trkpt lat="45.37059652179362" lon="10.55655776754478"><ele>140.33333333333334</ele><time>2026-03-24T14:05:37.984Z</time></trkpt><trkpt lat="45.37067726656177" lon="10.556516703674333"><ele>141.66666666666669</ele><time>2026-03-24T14:05:40.984Z</time></trkpt><trkpt lat="45.37073947491963" lon="10.556481785515198"><ele>143.0</ele><time>2026-03-24T14:05:42.984Z</time></trkpt><trkpt lat="45.37081882515916" lon="10.556454558770518"><ele>144.33333333333334</ele><time>2026-03-24T14:05:45.983Z</time></trkpt><trkpt lat="45.37089872344054" lon="10.55642466512933"><ele>145.66666666666666</ele><time>2026-03-24T14:05:48.983Z</time></trkpt><trkpt lat="45.370980838361554" lon="10.556369877810814"><ele>147.0</ele><time>2026-03-24T14:05:51.983Z</time></trkpt><trkpt lat="45.37105264077824" lon="10.556331431665738"><ele>147.0</ele><time>2026-03-24T14:05:54.983Z</time></trkpt><trkpt lat="45.371126080944975" lon="10.55627950754822"><ele>147.0</ele><time>2026-03-24T14:05:57.983Z</time></trkpt><trkpt lat="45.3711930561261" lon="10.556201352780379"><ele>147.0</ele><time>2026-03-24T14:06:00.983Z</time></trkpt><trkpt lat="45.37126152201725" lon="10.556123358114133"><ele>147.0</ele><time>2026-03-24T14:06:03.983Z</time></trkpt><trkpt lat="45.37133316534391" lon="10.556054778913886"><ele>147.0</ele><time>2026-03-24T14:06:06.983Z</time></trkpt><trkpt lat="45.371392800114045" lon="10.555971680854192"><ele>147.0</ele><time>2026-03-24T14:06:09.983Z</time></trkpt><trkpt lat="45.37144470637877" lon="10.55587415512775"><ele>147.33333333333334</ele><time>2026-03-24T14:06:12.983Z</time></trkpt><trkpt lat="45.37152233824298" lon="10.555811224194752"><ele>147.66666666666666</ele><time>2026-03-24T14:06:15.983Z</time></trkpt><trkpt lat="45.37159555893634" lon="10.55573730696322"><ele>148.0</ele><time>2026-03-24T14:06:18.983Z</time></trkpt><trkpt lat="45.371666332347786" lon="10.55569680599782"><ele>148.33333333333331</ele><time>2026-03-24T14:06:21.983Z</time></trkpt><trkpt lat="45.37174580884648" lon="10.55567831732787"><ele>148.66666666666666</ele><time>2026-03-24T14:06:24.983Z</time></trkpt><trkpt lat="45.371825530697485" lon="10.55562060695667"><ele>149.0</ele><time>2026-03-24T14:06:27.983Z</time></trkpt><trkpt lat="45.3719047536183" lon="10.555586752231434"><ele>149.0</ele><time>2026-03-24T14:06:30.983Z</time></trkpt><trkpt lat="45.371979760464704" lon="10.555547538331261"><ele>149.0</ele><time>2026-03-24T14:06:33.983Z</time></trkpt><trkpt lat="45.37205858107286" lon="10.555516002135795"><ele>149.0</ele><time>2026-03-24T14:06:36.983Z</time></trkpt><trkpt lat="45.37215031744244" lon="10.555517198426358"><ele>149.0</ele><time>2026-03-24T14:06:39.983Z</time></trkpt><trkpt lat="45.37223102913159" lon="10.555496288794512"><ele>149.0</ele><time>2026-03-24T14:06:42.983Z</time></trkpt><trkpt lat="45.37231944960203" lon="10.555495035490106"><ele>149.0</ele><time>2026-03-24T14:06:45.983Z</time></trkpt><trkpt lat="45.37238178004115" lon="10.555513264123473"><ele>149.0</ele><time>2026-03-24T14:06:47.983Z</time></trkpt><trkpt lat="45.37246105996532" lon="10.555551566739044"><ele>149.0</ele><time>2026-03-24T14:06:50.982Z</time></trkpt><trkpt lat="45.37255127745975" lon="10.555590121621083"><ele>149.0</ele><time>2026-03-24T14:06:53.982Z</time></trkpt><trkpt lat="45.37262520433184" lon="10.555642003099756"><ele>149.0</ele><time>2026-03-24T14:06:56.982Z</time></trkpt><trkpt lat="45.37269100756192" lon="10.555665176982355"><ele>149.0</ele><time>2026-03-24T14:06:58.982Z</time></trkpt><trkpt lat="45.37276758239287" lon="10.555717914618237"><ele>149.0</ele><time>2026-03-24T14:07:01.982Z</time></trkpt><trkpt lat="45.37281865699261" lon="10.555622493594383"><ele>149.0</ele><time>2026-03-24T14:07:30.982Z</time></trkpt><trkpt lat="45.372774635376516" lon="10.55552478245057"><ele>149.0</ele><time>2026-03-24T14:07:32.982Z</time></trkpt><trkpt lat="45.37273416864687" lon="10.555425763898866"><ele>149.0</ele><time>2026-03-24T14:07:35.982Z</time></trkpt><trkpt lat="45.372675217989105" lon="10.555335296880333"><ele>149.0</ele><time>2026-03-24T14:07:38.982Z</time></trkpt><trkpt lat="45.37260281875714" lon="10.555260612060588"><ele>149.0</ele><time>2026-03-24T14:07:41.984Z</time></trkpt><trkpt lat="45.37253618527726" lon="10.55517532132649"><ele>149.0</ele><time>2026-03-24T14:07:44.984Z</time></trkpt><trkpt lat="45.372468033486584" lon="10.555073643346825"><ele>148.57142857142856</ele><time>2026-03-24T14:07:47.985Z</time></trkpt><trkpt lat="45.37240598897464" lon="10.554987479200342"><ele>148.14285714285714</ele><time>2026-03-24T14:07:50.985Z</time></trkpt><trkpt lat="45.37235412174587" lon="10.554915908539956"><ele>147.71428571428572</ele><time>2026-03-24T14:07:52.984Z</time></trkpt><trkpt lat="45.372314601816306" lon="10.554841496685434"><ele>147.28571428571428</ele><time>2026-03-24T14:07:54.985Z</time></trkpt><trkpt lat="45.3722611826383" lon="10.55478390595718"><ele>146.85714285714286</ele><time>2026-03-24T14:07:56.985Z</time></trkpt><trkpt lat="45.37220935858321" lon="10.55472584407407"><ele>146.42857142857142</ele><time>2026-03-24T14:07:58.985Z</time></trkpt><trkpt lat="45.372155303963545" lon="10.554635959731474"><ele>146.0</ele><time>2026-03-24T14:08:01.985Z</time></trkpt><trkpt lat="45.372093946937596" lon="10.554538858930268"><ele>144.83333333333331</ele><time>2026-03-24T14:08:04.985Z</time></trkpt><trkpt lat="45.37204951215121" lon="10.554471375005575"><ele>143.66666666666666</ele><time>2026-03-24T14:08:06.985Z</time></trkpt><trkpt lat="45.37200070513612" lon="10.554396679171754"><ele>142.5</ele><time>2026-03-24T14:08:08.985Z</time></trkpt><trkpt lat="45.37194919926451" lon="10.554284236146458"><ele>141.33333333333334</ele><time>2026-03-24T14:08:11.985Z</time></trkpt><trkpt lat="45.371903647624215" lon="10.554176074971984"><ele>140.16666666666669</ele><time>2026-03-24T14:08:14.985Z</time></trkpt><trkpt lat="45.37186348116811" lon="10.554106824596731"><ele>139.0</ele><time>2026-03-24T14:08:16.985Z</time></trkpt><trkpt lat="45.37183396538709" lon="10.554008338604579"><ele>139.0</ele><time>2026-03-24T14:08:19.985Z</time></trkpt><trkpt lat="45.37179300739537" lon="10.553910232574026"><ele>139.0</ele><time>2026-03-24T14:08:22.985Z</time></trkpt><trkpt lat="45.37174063006662" lon="10.553813912161885"><ele>139.0</ele><time>2026-03-24T14:08:25.984Z</time></trkpt><trkpt lat="45.37170846024647" lon="10.553713205302865"><ele>139.0</ele><time>2026-03-24T14:08:28.984Z</time></trkpt><trkpt lat="45.371667809772475" lon="10.553639156713874"><ele>139.0</ele><time>2026-03-24T14:08:30.984Z</time></trkpt><trkpt lat="45.3716008218901" lon="10.55357114064364"><ele>139.0</ele><time>2026-03-24T14:08:33.984Z</time></trkpt><trkpt lat="45.37152180842102" lon="10.553498906000632"><ele>139.66666666666669</ele><time>2026-03-24T14:08:36.984Z</time></trkpt><trkpt lat="45.37145298940599" lon="10.553417964514539"><ele>140.33333333333334</ele><time>2026-03-24T14:08:39.984Z</time></trkpt><trkpt lat="45.371382548372786" lon="10.55333264087443"><ele>141.0</ele><time>2026-03-24T14:08:42.984Z</time></trkpt><trkpt lat="45.371316120262605" lon="10.553252232432198"><ele>141.66666666666666</ele><time>2026-03-24T14:08:45.984Z</time></trkpt><trkpt lat="45.371239376215684" lon="10.5531643082316"><ele>142.33333333333331</ele><time>2026-03-24T14:08:48.984Z</time></trkpt><trkpt lat="45.371187381045814" lon="10.553112395207515"><ele>143.0</ele><time>2026-03-24T14:08:50.984Z</time></trkpt><trkpt lat="45.371125220000444" lon="10.553052810453806"><ele>142.16666666666666</ele><time>2026-03-24T14:08:52.984Z</time></trkpt><trkpt lat="45.371043701503474" lon="10.552962692210608"><ele>141.33333333333331</ele><time>2026-03-24T14:08:55.984Z</time></trkpt><trkpt lat="45.370986373251235" lon="10.552901085605745"><ele>140.5</ele><time>2026-03-24T14:08:57.984Z</time></trkpt><trkpt lat="45.37093203548246" lon="10.552850414865848"><ele>139.66666666666666</ele><time>2026-03-24T14:08:59.984Z</time></trkpt><trkpt lat="45.37087837864959" lon="10.552798940246916"><ele>138.83333333333334</ele><time>2026-03-24T14:09:01.984Z</time></trkpt><trkpt lat="45.37081755435188" lon="10.55274209876414"><ele>138.0</ele><time>2026-03-24T14:09:03.984Z</time></trkpt><trkpt lat="45.37074993702975" lon="10.55270447238149"><ele>138.0</ele><time>2026-03-24T14:09:05.984Z</time></trkpt><trkpt lat="45.370684448494515" lon="10.552662487178747"><ele>138.0</ele><time>2026-03-24T14:09:07.984Z</time></trkpt><trkpt lat="45.3706242117964" lon="10.5526248688108"><ele>138.0</ele><time>2026-03-24T14:09:09.984Z</time></trkpt><trkpt lat="45.37056072752108" lon="10.552602013451652"><ele>138.0</ele><time>2026-03-24T14:09:11.984Z</time></trkpt><trkpt lat="45.37049491537751" lon="10.552590075613939"><ele>138.0</ele><time>2026-03-24T14:09:13.984Z</time></trkpt><trkpt lat="45.370431916890226" lon="10.552568685194197"><ele>138.0</ele><time>2026-03-24T14:09:15.984Z</time></trkpt><trkpt lat="45.37034667384073" lon="10.552531936840513"><ele>138.0</ele><time>2026-03-24T14:09:18.984Z</time></trkpt><trkpt lat="45.370297526975854" lon="10.552464942107338"><ele>137.16666666666666</ele><time>2026-03-24T14:09:20.984Z</time></trkpt><trkpt lat="45.37027029608706" lon="10.552338806882267"><ele>136.33333333333334</ele><time>2026-03-24T14:09:23.984Z</time></trkpt><trkpt lat="45.370256021083996" lon="10.552212126880605"><ele>135.5</ele><time>2026-03-24T14:09:26.984Z</time></trkpt><trkpt lat="45.370247229708085" lon="10.552101368732135"><ele>134.66666666666669</ele><time>2026-03-24T14:09:29.983Z</time></trkpt><trkpt lat="45.37021840596146" lon="10.55198521025446"><ele>133.83333333333334</ele><time>2026-03-24T14:09:32.983Z</time></trkpt><trkpt lat="45.37019358346729" lon="10.551879645558875"><ele>133.0</ele><time>2026-03-24T14:09:35.983Z</time></trkpt><trkpt lat="45.3701949645659" lon="10.551780167935707"><ele>133.0</ele><time>2026-03-24T14:09:47.985Z</time></trkpt><trkpt lat="45.370176326736505" lon="10.551671890486128"><ele>133.0</ele><time>2026-03-24T14:09:51.986Z</time></trkpt><trkpt lat="45.37016975421072" lon="10.551550918525875"><ele>133.0</ele><time>2026-03-24T14:09:55.985Z</time></trkpt><trkpt lat="45.370141311629816" lon="10.55142799999201"><ele>133.0</ele><time>2026-03-24T14:09:58.986Z</time></trkpt><trkpt lat="45.370119537524936" lon="10.551307965812045"><ele>133.0</ele><time>2026-03-24T14:10:01.986Z</time></trkpt><trkpt lat="45.37010392141267" lon="10.551209262512955"><ele>133.0</ele><time>2026-03-24T14:10:03.985Z</time></trkpt><trkpt lat="45.37008128773399" lon="10.551119684725029"><ele>133.33333333333334</ele><time>2026-03-24T14:10:05.985Z</time></trkpt><trkpt lat="45.370061737970374" lon="10.550999877138391"><ele>133.66666666666669</ele><time>2026-03-24T14:10:08.985Z</time></trkpt><trkpt lat="45.37002893336834" lon="10.55089554980098"><ele>134.0</ele><time>2026-03-24T14:10:11.985Z</time></trkpt><trkpt lat="45.36997540228585" lon="10.55078214003378"><ele>134.33333333333334</ele><time>2026-03-24T14:10:24.985Z</time></trkpt><trkpt lat="45.36994172802355" lon="10.550690789704545"><ele>134.66666666666666</ele><time>2026-03-24T14:10:28.985Z</time></trkpt><trkpt lat="45.36992994752393" lon="10.550593541658781"><ele>135.0</ele><time>2026-03-24T14:10:37.985Z</time></trkpt><trkpt lat="45.3698884920166" lon="10.550486299155416"><ele>135.0</ele><time>2026-03-24T14:10:40.985Z</time></trkpt><trkpt lat="45.369855693153895" lon="10.550403730349736"><ele>135.0</ele><time>2026-03-24T14:10:42.985Z</time></trkpt><trkpt lat="45.369806339374485" lon="10.550344353115193"><ele>135.0</ele><time>2026-03-24T14:10:44.985Z</time></trkpt><trkpt lat="45.369757616580394" lon="10.550241854797088"><ele>135.0</ele><time>2026-03-24T14:10:47.985Z</time></trkpt><trkpt lat="45.36969854216209" lon="10.550160156466104"><ele>135.0</ele><time>2026-03-24T14:10:50.985Z</time></trkpt><trkpt lat="45.36965006198089" lon="10.55005664657867"><ele>135.0</ele><time>2026-03-24T14:10:53.985Z</time></trkpt><trkpt lat="45.369583333852646" lon="10.54997510899895"><ele>133.66666666666666</ele><time>2026-03-24T14:10:56.985Z</time></trkpt><trkpt lat="45.36953523965189" lon="10.549892295250391"><ele>132.33333333333334</ele><time>2026-03-24T14:10:59.985Z</time></trkpt><trkpt lat="45.36947525066132" lon="10.549800714609846"><ele>131.0</ele><time>2026-03-24T14:11:02.985Z</time></trkpt><trkpt lat="45.36941893112552" lon="10.549705083121513"><ele>129.66666666666669</ele><time>2026-03-24T14:11:05.984Z</time></trkpt><trkpt lat="45.369372367670266" lon="10.54963278684199"><ele>128.33333333333334</ele><time>2026-03-24T14:11:08.984Z</time></trkpt><trkpt lat="45.36931122232428" lon="10.54956404027298"><ele>127.0</ele><time>2026-03-24T14:11:11.984Z</time></trkpt><trkpt lat="45.36926320472498" lon="10.549461654871783"><ele>126.83333333333334</ele><time>2026-03-24T14:11:14.984Z</time></trkpt><trkpt lat="45.369217225517446" lon="10.549371592640428"><ele>126.66666666666667</ele><time>2026-03-24T14:11:17.984Z</time></trkpt><trkpt lat="45.36916281206957" lon="10.549268614912942"><ele>126.5</ele><time>2026-03-24T14:11:20.984Z</time></trkpt><trkpt lat="45.36912116534046" lon="10.549199088779316"><ele>126.33333333333334</ele><time>2026-03-24T14:11:22.984Z</time></trkpt><trkpt lat="45.369079924832356" lon="10.549127140611288"><ele>126.16666666666667</ele><time>2026-03-24T14:11:24.984Z</time></trkpt><trkpt lat="45.3690243655542" lon="10.549028348584663"><ele>126.0</ele><time>2026-03-24T14:11:27.984Z</time></trkpt><trkpt lat="45.36899197514654" lon="10.548918976497852"><ele>126.0</ele><time>2026-03-24T14:11:30.984Z</time></trkpt><trkpt lat="45.368967975354515" lon="10.54883319263942"><ele>126.0</ele><time>2026-03-24T14:11:32.984Z</time></trkpt><trkpt lat="45.36894696091666" lon="10.548746318840331"><ele>126.0</ele><time>2026-03-24T14:11:34.984Z</time></trkpt><trkpt lat="45.36890845885003" lon="10.548620817265407"><ele>126.0</ele><time>2026-03-24T14:11:37.984Z</time></trkpt><trkpt lat="45.36887276104" lon="10.548488904663738"><ele>126.0</ele><time>2026-03-24T14:11:40.984Z</time></trkpt><trkpt lat="45.3688765965471" lon="10.548364455819724"><ele>126.0</ele><time>2026-03-24T14:11:43.984Z</time></trkpt><trkpt lat="45.36889832953741" lon="10.548237584537112"><ele>125.33333333333333</ele><time>2026-03-24T14:11:46.984Z</time></trkpt><trkpt lat="45.3689532627965" lon="10.54817124448432"><ele>124.66666666666666</ele><time>2026-03-24T14:11:48.984Z</time></trkpt><trkpt lat="45.369035068307596" lon="10.548155515302991"><ele>124.0</ele><time>2026-03-24T14:11:51.986Z</time></trkpt><trkpt lat="45.369103730729215" lon="10.548124196452665"><ele>123.33333333333333</ele><time>2026-03-24T14:11:54.986Z</time></trkpt><trkpt lat="45.369174125115926" lon="10.54809408574381"><ele>122.66666666666666</ele><time>2026-03-24T14:11:57.986Z</time></trkpt><trkpt lat="45.369258035742845" lon="10.548076013745998"><ele>122.0</ele><time>2026-03-24T14:12:00.986Z</time></trkpt><trkpt lat="45.36932780719409" lon="10.548065818465432"><ele>121.99999999999999</ele><time>2026-03-24T14:12:03.986Z</time></trkpt><trkpt lat="45.36939866397803" lon="10.548056628615585"><ele>122.0</ele><time>2026-03-24T14:12:06.986Z</time></trkpt><trkpt lat="45.36947920653327" lon="10.54804715151794"><ele>122.0</ele><time>2026-03-24T14:12:09.986Z</time></trkpt><trkpt lat="45.3695646674412" lon="10.548024839300735"><ele>122.0</ele><time>2026-03-24T14:12:12.986Z</time></trkpt><trkpt lat="45.3696433338642" lon="10.548018402279805"><ele>121.99999999999999</ele><time>2026-03-24T14:12:15.986Z</time></trkpt><trkpt lat="45.36973602117352" lon="10.548009409925196"><ele>122.0</ele><time>2026-03-24T14:12:18.986Z</time></trkpt><trkpt lat="45.36982820893465" lon="10.547992933347963"><ele>122.66666666666666</ele><time>2026-03-24T14:12:21.986Z</time></trkpt><trkpt lat="45.36991462269849" lon="10.548005021770036"><ele>123.33333333333333</ele><time>2026-03-24T14:12:24.986Z</time></trkpt><trkpt lat="45.3700014119769" lon="10.548010137286992"><ele>124.0</ele><time>2026-03-24T14:12:27.986Z</time></trkpt><trkpt lat="45.370087387928585" lon="10.548044544226075"><ele>124.66666666666666</ele><time>2026-03-24T14:12:30.986Z</time></trkpt><trkpt lat="45.37017252720265" lon="10.54806843609522"><ele>125.33333333333333</ele><time>2026-03-24T14:12:33.986Z</time></trkpt><trkpt lat="45.370251676422704" lon="10.548095469681009"><ele>126.0</ele><time>2026-03-24T14:12:36.986Z</time></trkpt><trkpt lat="45.37033238284747" lon="10.54815111957299"><ele>126.0</ele><time>2026-03-24T14:12:39.986Z</time></trkpt><trkpt lat="45.37040892163653" lon="10.548183844626452"><ele>126.0</ele><time>2026-03-24T14:12:42.986Z</time></trkpt><trkpt lat="45.37048575025298" lon="10.548236344326334"><ele>126.0</ele><time>2026-03-24T14:12:45.985Z</time></trkpt><trkpt lat="45.370575636693246" lon="10.548251187140977"><ele>126.0</ele><time>2026-03-24T14:12:48.985Z</time></trkpt><trkpt lat="45.370664007563505" lon="10.548241348866172"><ele>126.0</ele><time>2026-03-24T14:12:51.985Z</time></trkpt><trkpt lat="45.370745376751394" lon="10.548220053224751"><ele>126.0</ele><time>2026-03-24T14:12:54.985Z</time></trkpt><trkpt lat="45.37082879335595" lon="10.548221646733454"><ele>126.16666666666667</ele><time>2026-03-24T14:12:57.985Z</time></trkpt><trkpt lat="45.370912013620995" lon="10.548222351948311"><ele>126.33333333333334</ele><time>2026-03-24T14:13:00.985Z</time></trkpt><trkpt lat="45.37098711054382" lon="10.548218600417027"><ele>126.5</ele><time>2026-03-24T14:13:03.985Z</time></trkpt><trkpt lat="45.37105885440256" lon="10.54823191251682"><ele>126.66666666666667</ele><time>2026-03-24T14:13:06.985Z</time></trkpt><trkpt lat="45.37114565580176" lon="10.54820173724645"><ele>126.83333333333334</ele><time>2026-03-24T14:13:09.985Z</time></trkpt><trkpt lat="45.37123070547765" lon="10.548199816353781"><ele>127.0</ele><time>2026-03-24T14:13:12.985Z</time></trkpt><trkpt lat="45.37129546375815" lon="10.54821461394733"><ele>127.16666666666667</ele><time>2026-03-24T14:13:15.985Z</time></trkpt><trkpt lat="45.371380939230015" lon="10.548228941175838"><ele>127.33333333333334</ele><time>2026-03-24T14:13:18.985Z</time></trkpt><trkpt lat="45.37146196505103" lon="10.54823964634298"><ele>127.5</ele><time>2026-03-24T14:13:21.985Z</time></trkpt><trkpt lat="45.371539232073495" lon="10.548241456457662"><ele>127.66666666666666</ele><time>2026-03-24T14:13:24.985Z</time></trkpt><trkpt lat="45.371615486030045" lon="10.54822481634351"><ele>127.83333333333333</ele><time>2026-03-24T14:13:27.985Z</time></trkpt><trkpt lat="45.371696625757465" lon="10.548215406692028"><ele>128.0</ele><time>2026-03-24T14:13:30.985Z</time></trkpt><trkpt lat="45.37175965215993" lon="10.548205241371825"><ele>128.0</ele><time>2026-03-24T14:13:33.985Z</time></trkpt><trkpt lat="45.371818650676936" lon="10.54817210601701"><ele>127.99999999999999</ele><time>2026-03-24T14:13:38.985Z</time></trkpt><trkpt lat="45.3718819539061" lon="10.548182056698035"><ele>128.0</ele><time>2026-03-24T14:13:43.985Z</time></trkpt><trkpt lat="45.371954189384525" lon="10.54818786549375"><ele>128.0</ele><time>2026-03-24T14:13:47.985Z</time></trkpt><trkpt lat="45.372018803628634" lon="10.54818485153796"><ele>127.99999999999999</ele><time>2026-03-24T14:13:50.984Z</time></trkpt><trkpt lat="45.37209203462874" lon="10.548174952258414"><ele>128.0</ele><time>2026-03-24T14:13:53.984Z</time></trkpt><trkpt lat="45.37215749760874" lon="10.54818134840059"><ele>128.0</ele><time>2026-03-24T14:13:56.984Z</time></trkpt><trkpt lat="45.37221916373134" lon="10.548263791825422"><ele>128.85714285714286</ele><time>2026-03-24T14:14:00.987Z</time></trkpt><trkpt lat="45.372255143000885" lon="10.548365267684405"><ele>129.7142857142857</ele><time>2026-03-24T14:14:04.987Z</time></trkpt><trkpt lat="45.37230410530317" lon="10.548426248694833"><ele>130.57142857142856</ele><time>2026-03-24T14:14:07.987Z</time></trkpt><trkpt lat="45.37235923627906" lon="10.548496508568958"><ele>131.42857142857142</ele><time>2026-03-24T14:14:10.987Z</time></trkpt><trkpt lat="45.372421306255596" lon="10.548561171621857"><ele>132.28571428571428</ele><time>2026-03-24T14:14:13.987Z</time></trkpt><trkpt lat="45.37246104533948" lon="10.548634181725069"><ele>133.14285714285714</ele><time>2026-03-24T14:14:16.987Z</time></trkpt><trkpt lat="45.37250773106859" lon="10.548711913037243"><ele>134.0</ele><time>2026-03-24T14:14:19.987Z</time></trkpt><trkpt lat="45.372553606187296" lon="10.548781266386799"><ele>135.57142857142858</ele><time>2026-03-24T14:14:22.987Z</time></trkpt><trkpt lat="45.37255219104376" lon="10.54889050294543"><ele>137.14285714285714</ele><time>2026-03-24T14:14:26.987Z</time></trkpt><trkpt lat="45.37250769745011" lon="10.548971753489152"><ele>138.71428571428572</ele><time>2026-03-24T14:14:29.987Z</time></trkpt><trkpt lat="45.37248794231066" lon="10.549070845021358"><ele>140.28571428571428</ele><time>2026-03-24T14:14:33.987Z</time></trkpt><trkpt lat="45.372462256306854" lon="10.549161060435397"><ele>141.85714285714286</ele><time>2026-03-24T14:14:36.987Z</time></trkpt><trkpt lat="45.372451883674735" lon="10.549273504657357"><ele>143.42857142857144</ele><time>2026-03-24T14:14:40.987Z</time></trkpt><trkpt lat="45.372514872868344" lon="10.54934324407893"><ele>145.0</ele><time>2026-03-24T14:14:44.987Z</time></trkpt><trkpt lat="45.37259170710556" lon="10.549353384326317"><ele>145.0</ele><time>2026-03-24T14:14:47.986Z</time></trkpt><trkpt lat="45.372656156735694" lon="10.549347641258034"><ele>145.0</ele><time>2026-03-24T14:14:50.986Z</time></trkpt><trkpt lat="45.37273282208724" lon="10.549364974573239"><ele>145.0</ele><time>2026-03-24T14:14:54.986Z</time></trkpt><trkpt lat="45.37279955797197" lon="10.549407910422762"><ele>145.0</ele><time>2026-03-24T14:14:58.986Z</time></trkpt><trkpt lat="45.37280570043893" lon="10.54950049113771"><ele>145.0</ele><time>2026-03-24T14:15:02.986Z</time></trkpt><trkpt lat="45.37276669677305" lon="10.549586933739542"><ele>145.0</ele><time>2026-03-24T14:15:06.986Z</time></trkpt><trkpt lat="45.37277621901591" lon="10.549704363511493"><ele>145.0</ele><time>2026-03-24T14:15:11.986Z</time></trkpt><trkpt lat="45.372839841158616" lon="10.549667037082292"><ele>145.0</ele><time>2026-03-24T14:15:15.986Z</time></trkpt><trkpt lat="45.372872237962056" lon="10.549568844562689"><ele>145.0</ele><time>2026-03-24T14:15:19.986Z</time></trkpt><trkpt lat="45.372904093918876" lon="10.54948838220296"><ele>145.0</ele><time>2026-03-24T14:15:23.986Z</time></trkpt><trkpt lat="45.372912072286574" lon="10.549376069058761"><ele>145.0</ele><time>2026-03-24T14:15:28.986Z</time></trkpt><trkpt lat="45.37290482421123" lon="10.549269117088057"><ele>145.0</ele><time>2026-03-24T14:15:32.986Z</time></trkpt><trkpt lat="45.37289108541792" lon="10.549174301865387"><ele>145.0</ele><time>2026-03-24T14:15:36.986Z</time></trkpt><trkpt lat="45.3729494640793" lon="10.549138293099489"><ele>145.0</ele><time>2026-03-24T14:15:39.986Z</time></trkpt><trkpt lat="45.373012450641134" lon="10.54911847372512"><ele>145.42857142857144</ele><time>2026-03-24T14:15:43.986Z</time></trkpt><trkpt lat="45.373076902398765" lon="10.54910705210273"><ele>145.85714285714286</ele><time>2026-03-24T14:15:47.986Z</time></trkpt><trkpt lat="45.37313622967703" lon="10.549076794667586"><ele>146.28571428571428</ele><time>2026-03-24T14:15:51.985Z</time></trkpt><trkpt lat="45.373199622840964" lon="10.549000429677372"><ele>146.71428571428572</ele><time>2026-03-24T14:15:55.985Z</time></trkpt><trkpt lat="45.37322238988189" lon="10.548895366483688"><ele>147.14285714285714</ele><time>2026-03-24T14:15:59.985Z</time></trkpt><trkpt lat="45.37320062925778" lon="10.54879084381319"><ele>147.57142857142858</ele><time>2026-03-24T14:16:02.985Z</time></trkpt><trkpt lat="45.37321006819908" lon="10.548691093779123"><ele>148.0</ele><time>2026-03-24T14:16:05.988Z</time></trkpt><trkpt lat="45.373219937871625" lon="10.548583957187972"><ele>148.0</ele><time>2026-03-24T14:16:08.987Z</time></trkpt><trkpt lat="45.37325228511116" lon="10.5484808045292"><ele>148.0</ele><time>2026-03-24T14:16:11.987Z</time></trkpt><trkpt lat="45.37327009826456" lon="10.548363257768413"><ele>148.0</ele><time>2026-03-24T14:16:14.988Z</time></trkpt><trkpt lat="45.37328357337066" lon="10.548266812594905"><ele>148.0</ele><time>2026-03-24T14:16:17.987Z</time></trkpt><trkpt lat="45.37328923200287" lon="10.54817454629773"><ele>148.0</ele><time>2026-03-24T14:16:20.987Z</time></trkpt><trkpt lat="45.37330536667063" lon="10.54808054497592"><ele>148.0</ele><time>2026-03-24T14:16:23.987Z</time></trkpt><trkpt lat="45.373307507238394" lon="10.54798268405052"><ele>148.0</ele><time>2026-03-24T14:16:27.987Z</time></trkpt><trkpt lat="45.37331977420958" lon="10.547891024725653"><ele>146.5</ele><time>2026-03-24T14:16:30.987Z</time></trkpt><trkpt lat="45.373317988666166" lon="10.54778687813491"><ele>145.0</ele><time>2026-03-24T14:16:33.987Z</time></trkpt><trkpt lat="45.3733372749228" lon="10.54768092165401"><ele>143.5</ele><time>2026-03-24T14:16:36.987Z</time></trkpt><trkpt lat="45.373341370319224" lon="10.547584669632654"><ele>142.0</ele><time>2026-03-24T14:16:39.987Z</time></trkpt><trkpt lat="45.37332650818397" lon="10.547474073947509"><ele>140.5</ele><time>2026-03-24T14:16:42.987Z</time></trkpt><trkpt lat="45.37336974065928" lon="10.54735897971096"><ele>139.0</ele><time>2026-03-24T14:16:45.987Z</time></trkpt><trkpt lat="45.3733686417845" lon="10.54726317691934"><ele>139.0</ele><time>2026-03-24T14:16:47.987Z</time></trkpt><trkpt lat="45.373372578143545" lon="10.547170648158142"><ele>139.0</ele><time>2026-03-24T14:16:49.987Z</time></trkpt><trkpt lat="45.3733783462799" lon="10.54704748299184"><ele>139.0</ele><time>2026-03-24T14:16:52.987Z</time></trkpt><trkpt lat="45.37337558207879" lon="10.54694000720921"><ele>139.0</ele><time>2026-03-24T14:16:55.987Z</time></trkpt><trkpt lat="45.37344041376761" lon="10.546865376044837"><ele>139.0</ele><time>2026-03-24T14:16:58.986Z</time></trkpt><trkpt lat="45.37349262323547" lon="10.546801675432297"><ele>139.0</ele><time>2026-03-24T14:17:01.986Z</time></trkpt><trkpt lat="45.37352971491362" lon="10.546706954705952"><ele>137.71428571428572</ele><time>2026-03-24T14:17:04.986Z</time></trkpt><trkpt lat="45.37352815842559" lon="10.546610206181038"><ele>136.42857142857144</ele><time>2026-03-24T14:17:08.986Z</time></trkpt><trkpt lat="45.37348215141317" lon="10.546546433870956"><ele>135.14285714285717</ele><time>2026-03-24T14:17:12.986Z</time></trkpt><trkpt lat="45.373411263539865" lon="10.546456412070727"><ele>133.85714285714286</ele><time>2026-03-24T14:17:15.986Z</time></trkpt><trkpt lat="45.373342508417004" lon="10.546392921051842"><ele>132.57142857142858</ele><time>2026-03-24T14:17:18.986Z</time></trkpt><trkpt lat="45.3732812603817" lon="10.546351348959732"><ele>131.2857142857143</ele><time>2026-03-24T14:17:20.986Z</time></trkpt><trkpt lat="45.37323606222899" lon="10.546278396203522"><ele>130.0</ele><time>2026-03-24T14:17:23.986Z</time></trkpt><trkpt lat="45.3733125560027" lon="10.546206960998282"><ele>129.5</ele><time>2026-03-24T14:17:26.986Z</time></trkpt><trkpt lat="45.373385520939856" lon="10.546134835272348"><ele>129.0</ele><time>2026-03-24T14:17:29.986Z</time></trkpt><trkpt lat="45.37345403264134" lon="10.546075358133395"><ele>128.5</ele><time>2026-03-24T14:17:32.986Z</time></trkpt><trkpt lat="45.373520200749965" lon="10.546000661843488"><ele>128.0</ele><time>2026-03-24T14:17:35.986Z</time></trkpt><trkpt lat="45.37358553103438" lon="10.545938575941754"><ele>127.50000000000001</ele><time>2026-03-24T14:17:38.986Z</time></trkpt><trkpt lat="45.373650657229184" lon="10.54585540666472"><ele>127.0</ele><time>2026-03-24T14:17:41.986Z</time></trkpt><trkpt lat="45.3737212658401" lon="10.545786092931467"><ele>127.00000000000001</ele><time>2026-03-24T14:17:44.986Z</time></trkpt><trkpt lat="45.37378940476231" lon="10.545724758674693"><ele>127.0</ele><time>2026-03-24T14:17:47.986Z</time></trkpt><trkpt lat="45.37385354348401" lon="10.54564504666679"><ele>127.0</ele><time>2026-03-24T14:17:50.986Z</time></trkpt><trkpt lat="45.37389155278817" lon="10.545565320441721"><ele>127.0</ele><time>2026-03-24T14:17:53.986Z</time></trkpt><trkpt lat="45.37386627944432" lon="10.545466302930391"><ele>127.00000000000001</ele><time>2026-03-24T14:17:56.986Z</time></trkpt><trkpt lat="45.37384231269354" lon="10.545348339424983"><ele>127.0</ele><time>2026-03-24T14:17:59.986Z</time></trkpt><trkpt lat="45.37385085720677" lon="10.54523529159816"><ele>128.0</ele><time>2026-03-24T14:18:02.985Z</time></trkpt><trkpt lat="45.37391208994804" lon="10.545148412683247"><ele>129.0</ele><time>2026-03-24T14:18:05.985Z</time></trkpt><trkpt lat="45.37396377819077" lon="10.545080772347669"><ele>130.0</ele><time>2026-03-24T14:18:08.985Z</time></trkpt><trkpt lat="45.37403045795418" lon="10.54499753865606"><ele>131.0</ele><time>2026-03-24T14:18:12.988Z</time></trkpt><trkpt lat="45.37408481713287" lon="10.544925675340476"><ele>132.0</ele><time>2026-03-24T14:18:15.988Z</time></trkpt><trkpt lat="45.3741527895675" lon="10.54487303130753"><ele>133.0</ele><time>2026-03-24T14:18:18.988Z</time></trkpt><trkpt lat="45.374214267640376" lon="10.544820688502108"><ele>133.0</ele><time>2026-03-24T14:18:21.988Z</time></trkpt><trkpt lat="45.37426507070662" lon="10.544739596171402"><ele>133.0</ele><time>2026-03-24T14:18:24.989Z</time></trkpt><trkpt lat="45.37431731208749" lon="10.544669593440615"><ele>133.0</ele><time>2026-03-24T14:18:27.989Z</time></trkpt><trkpt lat="45.37436655976239" lon="10.544611206490075"><ele>133.0</ele><time>2026-03-24T14:18:30.989Z</time></trkpt><trkpt lat="45.37441713100893" lon="10.544550353856346"><ele>133.0</ele><time>2026-03-24T14:18:33.989Z</time></trkpt><trkpt lat="45.374482645330524" lon="10.544490391941075"><ele>133.0</ele><time>2026-03-24T14:18:36.989Z</time></trkpt><trkpt lat="45.37453942096086" lon="10.544410854013963"><ele>133.0</ele><time>2026-03-24T14:18:39.989Z</time></trkpt><trkpt lat="45.37460277674145" lon="10.54434787790226"><ele>132.5</ele><time>2026-03-24T14:18:42.989Z</time></trkpt><trkpt lat="45.37468224373109" lon="10.54429520116482"><ele>132.0</ele><time>2026-03-24T14:18:45.989Z</time></trkpt><trkpt lat="45.374752000172464" lon="10.54423603020604"><ele>131.5</ele><time>2026-03-24T14:18:48.988Z</time></trkpt><trkpt lat="45.374820997797215" lon="10.54417753752262"><ele>131.0</ele><time>2026-03-24T14:18:51.988Z</time></trkpt><trkpt lat="45.37489058900145" lon="10.544105127250926"><ele>130.5</ele><time>2026-03-24T14:18:54.987Z</time></trkpt><trkpt lat="45.37494959459454" lon="10.54402498956819"><ele>130.0</ele><time>2026-03-24T14:18:57.987Z</time></trkpt><trkpt lat="45.3750095878204" lon="10.543937424116772"><ele>130.00000000000003</ele><time>2026-03-24T14:19:00.987Z</time></trkpt><trkpt lat="45.375078865274865" lon="10.543900042009524"><ele>130.0</ele><time>2026-03-24T14:19:03.986Z</time></trkpt><trkpt lat="45.37507454359535" lon="10.543992309034545"><ele>130.0</ele><time>2026-03-24T14:19:20.986Z</time></trkpt><trkpt lat="45.375016686596844" lon="10.544086875670072"><ele>130.0</ele><time>2026-03-24T14:19:24.985Z</time></trkpt><trkpt lat="45.37497352730215" lon="10.544154257901067"><ele>130.0</ele><time>2026-03-24T14:19:28.985Z</time></trkpt><trkpt lat="45.3749268368926" lon="10.544237068233866"><ele>130.00000000000003</ele><time>2026-03-24T14:19:32.985Z</time></trkpt><trkpt lat="45.37487182726695" lon="10.544313074879218"><ele>130.0</ele><time>2026-03-24T14:19:36.985Z</time></trkpt><trkpt lat="45.37482595871689" lon="10.544394572337447"><ele>130.00000000000003</ele><time>2026-03-24T14:19:40.985Z</time></trkpt><trkpt lat="45.374779330216754" lon="10.544472688873919"><ele>130.0</ele><time>2026-03-24T14:19:44.985Z</time></trkpt><trkpt lat="45.374746721071276" lon="10.544564611503564"><ele>130.0</ele><time>2026-03-24T14:19:48.985Z</time></trkpt><trkpt lat="45.37472612896967" lon="10.544657945563747"><ele>130.0</ele><time>2026-03-24T14:19:52.985Z</time></trkpt><trkpt lat="45.3747014544111" lon="10.544748111453616"><ele>130.0</ele><time>2026-03-24T14:19:58.985Z</time></trkpt><trkpt lat="45.37465428139315" lon="10.544827227617743"><ele>130.00000000000003</ele><time>2026-03-24T14:20:01.985Z</time></trkpt><trkpt lat="45.37461064730398" lon="10.544922623878813"><ele>130.0</ele><time>2026-03-24T14:20:05.984Z</time></trkpt><trkpt lat="45.374582240064456" lon="10.545008194023545"><ele>130.42857142857144</ele><time>2026-03-24T14:20:08.984Z</time></trkpt><trkpt lat="45.37452996940101" lon="10.545079632003967"><ele>130.85714285714286</ele><time>2026-03-24T14:20:12.984Z</time></trkpt><trkpt lat="45.37448406445435" lon="10.54515296803877"><ele>131.28571428571428</ele><time>2026-03-24T14:20:15.986Z</time></trkpt><trkpt lat="45.37443802780944" lon="10.545223167733711"><ele>131.71428571428572</ele><time>2026-03-24T14:20:18.987Z</time></trkpt><trkpt lat="45.37438422014921" lon="10.545279700499927"><ele>132.14285714285714</ele><time>2026-03-24T14:20:21.986Z</time></trkpt><trkpt lat="45.37434122989814" lon="10.545352451565051"><ele>132.57142857142858</ele><time>2026-03-24T14:20:24.986Z</time></trkpt><trkpt lat="45.374326108421855" lon="10.545448363144514"><ele>133.0</ele><time>2026-03-24T14:20:28.987Z</time></trkpt><trkpt lat="45.374379853268195" lon="10.545545858027795"><ele>134.28571428571428</ele><time>2026-03-24T14:20:41.986Z</time></trkpt><trkpt lat="45.37443417424494" lon="10.545610632107543"><ele>135.57142857142856</ele><time>2026-03-24T14:20:45.986Z</time></trkpt><trkpt lat="45.374502427472855" lon="10.545654871161457"><ele>136.85714285714286</ele><time>2026-03-24T14:20:49.986Z</time></trkpt><trkpt lat="45.37456324307322" lon="10.545713614714026"><ele>138.14285714285714</ele><time>2026-03-24T14:20:53.986Z</time></trkpt><trkpt lat="45.3746219261202" lon="10.545758983489472"><ele>139.42857142857142</ele><time>2026-03-24T14:20:57.986Z</time></trkpt><trkpt lat="45.374682477953826" lon="10.545785449030973"><ele>140.71428571428572</ele><time>2026-03-24T14:21:00.986Z</time></trkpt><trkpt lat="45.37474489714965" lon="10.545826203364093"><ele>142.0</ele><time>2026-03-24T14:21:04.986Z</time></trkpt><trkpt lat="45.374800333786894" lon="10.545868896667873"><ele>144.33333333333334</ele><time>2026-03-24T14:21:08.986Z</time></trkpt><trkpt lat="45.37479671473475" lon="10.545986365863586"><ele>146.66666666666669</ele><time>2026-03-24T14:21:14.986Z</time></trkpt><trkpt lat="45.374782554686426" lon="10.546080078861849"><ele>149.0</ele><time>2026-03-24T14:21:18.986Z</time></trkpt><trkpt lat="45.37476606474625" lon="10.546196477828891"><ele>151.33333333333334</ele><time>2026-03-24T14:21:22.986Z</time></trkpt><trkpt lat="45.374782777836714" lon="10.546293385645685"><ele>153.66666666666666</ele><time>2026-03-24T14:21:26.986Z</time></trkpt><trkpt lat="45.37481885451553" lon="10.54640012633037"><ele>156.0</ele><time>2026-03-24T14:21:30.986Z</time></trkpt><trkpt lat="45.37484066258297" lon="10.54649782588767"><ele>156.16666666666666</ele><time>2026-03-24T14:21:34.986Z</time></trkpt><trkpt lat="45.37486900534308" lon="10.546612040349308"><ele>156.33333333333334</ele><time>2026-03-24T14:21:38.986Z</time></trkpt><trkpt lat="45.37488397587742" lon="10.546727937295579"><ele>156.5</ele><time>2026-03-24T14:21:42.985Z</time></trkpt><trkpt lat="45.37489348637817" lon="10.546835503175316"><ele>156.66666666666669</ele><time>2026-03-24T14:21:45.985Z</time></trkpt><trkpt lat="45.37490743965494" lon="10.546925827260978"><ele>156.83333333333334</ele><time>2026-03-24T14:21:48.985Z</time></trkpt><trkpt lat="45.37490730156125" lon="10.54702676048588"><ele>157.0</ele><time>2026-03-24T14:21:51.985Z</time></trkpt><trkpt lat="45.3749202958353" lon="10.547131764174184"><ele>156.99999999999997</ele><time>2026-03-24T14:21:54.985Z</time></trkpt><trkpt lat="45.374963609432605" lon="10.547198086142622"><ele>157.0</ele><time>2026-03-24T14:21:57.985Z</time></trkpt><trkpt lat="45.37501059081275" lon="10.547260249729117"><ele>157.0</ele><time>2026-03-24T14:22:01.985Z</time></trkpt><trkpt lat="45.37508121219893" lon="10.547241210918642"><ele>157.0</ele><time>2026-03-24T14:22:05.985Z</time></trkpt><trkpt lat="45.37505914985156" lon="10.547143285763102"><ele>157.0</ele><time>2026-03-24T14:22:09.985Z</time></trkpt><trkpt lat="45.37503446742241" lon="10.54702683793285"><ele>156.99999999999997</ele><time>2026-03-24T14:22:13.985Z</time></trkpt><trkpt lat="45.37502827200072" lon="10.546929739025996"><ele>157.0</ele><time>2026-03-24T14:22:16.985Z</time></trkpt><trkpt lat="45.37501473981261" lon="10.546821877188256"><ele>157.16666666666669</ele><time>2026-03-24T14:22:19.985Z</time></trkpt><trkpt lat="45.37501214174275" lon="10.546713429484463"><ele>157.33333333333334</ele><time>2026-03-24T14:22:22.987Z</time></trkpt><trkpt lat="45.3750001706276" lon="10.546600927139664"><ele>157.5</ele><time>2026-03-24T14:22:25.987Z</time></trkpt><trkpt lat="45.37499552673534" lon="10.546494656865686"><ele>157.66666666666666</ele><time>2026-03-24T14:22:28.987Z</time></trkpt><trkpt lat="45.37496676165858" lon="10.546384085496285"><ele>157.83333333333331</ele><time>2026-03-24T14:22:31.987Z</time></trkpt><trkpt lat="45.374939916097226" lon="10.546273382127762"><ele>158.0</ele><time>2026-03-24T14:22:34.987Z</time></trkpt><trkpt lat="45.37492419027482" lon="10.546156534597975"><ele>157.71428571428572</ele><time>2026-03-24T14:22:37.987Z</time></trkpt><trkpt lat="45.3749097245118" lon="10.546065949754638"><ele>157.42857142857144</ele><time>2026-03-24T14:22:40.987Z</time></trkpt><trkpt lat="45.37492187585557" lon="10.54596718005221"><ele>157.14285714285717</ele><time>2026-03-24T14:22:43.987Z</time></trkpt><trkpt lat="45.37493810138136" lon="10.545858929660506"><ele>156.85714285714286</ele><time>2026-03-24T14:22:45.987Z</time></trkpt><trkpt lat="45.37496676175289" lon="10.545757694732616"><ele>156.57142857142856</ele><time>2026-03-24T14:22:47.987Z</time></trkpt><trkpt lat="45.37500730459176" lon="10.545686223690401"><ele>156.2857142857143</ele><time>2026-03-24T14:22:50.987Z</time></trkpt><trkpt lat="45.375028441183666" lon="10.545597206155358"><ele>156.0</ele><time>2026-03-24T14:22:53.987Z</time></trkpt><trkpt lat="45.37506673981153" lon="10.545509040275974"><ele>156.0</ele><time>2026-03-24T14:22:56.987Z</time></trkpt><trkpt lat="45.37508168283075" lon="10.545418658420031"><ele>156.0</ele><time>2026-03-24T14:22:59.987Z</time></trkpt><trkpt lat="45.37512200664386" lon="10.54534193516023"><ele>156.0</ele><time>2026-03-24T14:23:02.986Z</time></trkpt><trkpt lat="45.37515846592993" lon="10.545237222060182"><ele>156.0</ele><time>2026-03-24T14:23:06.986Z</time></trkpt><trkpt lat="45.37518807669386" lon="10.545157405744183"><ele>156.0</ele><time>2026-03-24T14:23:10.986Z</time></trkpt><trkpt lat="45.375222154864375" lon="10.545060234373128"><ele>156.0</ele><time>2026-03-24T14:23:14.986Z</time></trkpt><trkpt lat="45.37527320143373" lon="10.544992230299513"><ele>156.0</ele><time>2026-03-24T14:23:17.986Z</time></trkpt><trkpt lat="45.37531108219602" lon="10.54490257160701"><ele>154.71428571428572</ele><time>2026-03-24T14:23:21.986Z</time></trkpt><trkpt lat="45.37535166584073" lon="10.54479171078673"><ele>153.42857142857142</ele><time>2026-03-24T14:23:31.986Z</time></trkpt><trkpt lat="45.375389636548206" lon="10.544720202662292"><ele>152.14285714285714</ele><time>2026-03-24T14:23:36.986Z</time></trkpt><trkpt lat="45.37545575364488" lon="10.54466023358038"><ele>150.85714285714286</ele><time>2026-03-24T14:23:49.986Z</time></trkpt><trkpt lat="45.37550819027335" lon="10.544603770558016"><ele>149.57142857142856</ele><time>2026-03-24T14:23:56.986Z</time></trkpt><trkpt lat="45.37552914055214" lon="10.544517019057352"><ele>148.28571428571428</ele><time>2026-03-24T14:23:59.986Z</time></trkpt><trkpt lat="45.37558104107729" lon="10.544454785588337"><ele>147.0</ele><time>2026-03-24T14:24:06.985Z</time></trkpt><trkpt lat="45.375636229951525" lon="10.544411447959279"><ele>144.16666666666666</ele><time>2026-03-24T14:24:12.985Z</time></trkpt><trkpt lat="45.37571007672974" lon="10.544405532442624"><ele>141.33333333333334</ele><time>2026-03-24T14:24:16.985Z</time></trkpt><trkpt lat="45.375735918442864" lon="10.54428475621245"><ele>138.5</ele><time>2026-03-24T14:24:19.985Z</time></trkpt><trkpt lat="45.3757216591468" lon="10.544164965981771"><ele>135.66666666666669</ele><time>2026-03-24T14:24:22.985Z</time></trkpt><trkpt lat="45.375729922560154" lon="10.544072837951074"><ele>132.83333333333334</ele><time>2026-03-24T14:24:24.985Z</time></trkpt><trkpt lat="45.37571376789155" lon="10.54395443028763"><ele>130.0</ele><time>2026-03-24T14:24:27.988Z</time></trkpt><trkpt lat="45.37569425675203" lon="10.543830275312553"><ele>130.0</ele><time>2026-03-24T14:24:30.988Z</time></trkpt><trkpt lat="45.3756500610046" lon="10.54373720969568"><ele>130.0</ele><time>2026-03-24T14:24:33.988Z</time></trkpt><trkpt lat="45.375616746061844" lon="10.543660578003262"><ele>130.0</ele><time>2026-03-24T14:24:35.987Z</time></trkpt><trkpt lat="45.375571671470446" lon="10.54354385469794"><ele>130.0</ele><time>2026-03-24T14:24:38.988Z</time></trkpt><trkpt lat="45.375505557789104" lon="10.543451047761344"><ele>130.0</ele><time>2026-03-24T14:24:41.988Z</time></trkpt><trkpt lat="45.375436306214375" lon="10.543371102471246"><ele>130.0</ele><time>2026-03-24T14:24:44.988Z</time></trkpt><trkpt lat="45.37537416634334" lon="10.543346747519418"><ele>129.33333333333334</ele><time>2026-03-24T14:24:46.988Z</time></trkpt><trkpt lat="45.37528794036" lon="10.543344585702563"><ele>128.66666666666669</ele><time>2026-03-24T14:24:49.988Z</time></trkpt><trkpt lat="45.375194908180646" lon="10.543363372279254"><ele>128.0</ele><time>2026-03-24T14:24:52.987Z</time></trkpt><trkpt lat="45.37511388737816" lon="10.543368110709697"><ele>127.33333333333334</ele><time>2026-03-24T14:24:55.987Z</time></trkpt><trkpt lat="45.37502893902" lon="10.543389786301255"><ele>126.66666666666667</ele><time>2026-03-24T14:24:58.987Z</time></trkpt><trkpt lat="45.37493724097684" lon="10.543401201314149"><ele>126.0</ele><time>2026-03-24T14:25:01.987Z</time></trkpt><trkpt lat="45.37484315370411" lon="10.5434295827168"><ele>126.0</ele><time>2026-03-24T14:25:04.987Z</time></trkpt><trkpt lat="45.3747640874067" lon="10.543444773500314"><ele>126.0</ele><time>2026-03-24T14:25:07.987Z</time></trkpt><trkpt lat="45.374679811491546" lon="10.54342601570855"><ele>126.0</ele><time>2026-03-24T14:25:10.987Z</time></trkpt><trkpt lat="45.37459005928968" lon="10.543431137843982"><ele>126.0</ele><time>2026-03-24T14:25:13.987Z</time></trkpt><trkpt lat="45.37452725752293" lon="10.543392649543055"><ele>126.0</ele><time>2026-03-24T14:25:16.987Z</time></trkpt><trkpt lat="45.37444698920372" lon="10.543352798534757"><ele>126.0</ele><time>2026-03-24T14:25:19.987Z</time></trkpt><trkpt lat="45.37439321314873" lon="10.543285178585315"><ele>126.28571428571428</ele><time>2026-03-24T14:25:22.987Z</time></trkpt><trkpt lat="45.37435846450895" lon="10.543191895116665"><ele>126.57142857142857</ele><time>2026-03-24T14:25:25.987Z</time></trkpt><trkpt lat="45.37436208208367" lon="10.54308403296249"><ele>126.85714285714286</ele><time>2026-03-24T14:25:29.987Z</time></trkpt><trkpt lat="45.37438061762365" lon="10.542992556214632"><ele>127.14285714285714</ele><time>2026-03-24T14:25:33.987Z</time></trkpt><trkpt lat="45.37442926790382" lon="10.54289748855195"><ele>127.42857142857142</ele><time>2026-03-24T14:25:37.987Z</time></trkpt><trkpt lat="45.37449965952114" lon="10.542834189563996"><ele>127.71428571428571</ele><time>2026-03-24T14:25:41.987Z</time></trkpt><trkpt lat="45.37456100713271" lon="10.542813524386318"><ele>128.0</ele><time>2026-03-24T14:25:44.987Z</time></trkpt><trkpt lat="45.37461374151483" lon="10.542749334055275"><ele>128.42857142857142</ele><time>2026-03-24T14:25:47.987Z</time></trkpt><trkpt lat="45.37466849398136" lon="10.542696037578601"><ele>128.85714285714283</ele><time>2026-03-24T14:25:50.987Z</time></trkpt><trkpt lat="45.37472667668046" lon="10.542628799984607"><ele>129.28571428571428</ele><time>2026-03-24T14:25:53.986Z</time></trkpt><trkpt lat="45.37478697589366" lon="10.542550792103956"><ele>129.71428571428572</ele><time>2026-03-24T14:25:56.986Z</time></trkpt><trkpt lat="45.37484694570341" lon="10.542490627866705"><ele>130.14285714285717</ele><time>2026-03-24T14:25:59.986Z</time></trkpt><trkpt lat="45.37489635804929" lon="10.542414290578598"><ele>130.57142857142858</ele><time>2026-03-24T14:26:02.986Z</time></trkpt><trkpt lat="45.37490609018393" lon="10.542304691552852"><ele>131.0</ele><time>2026-03-24T14:26:07.986Z</time></trkpt><trkpt lat="45.37497182917077" lon="10.542239881075485"><ele>131.0</ele><time>2026-03-24T14:26:11.986Z</time></trkpt><trkpt lat="45.37502770619755" lon="10.542163726434147"><ele>131.0</ele><time>2026-03-24T14:26:14.986Z</time></trkpt><trkpt lat="45.37505481955909" lon="10.54205482771655"><ele>131.0</ele><time>2026-03-24T14:26:17.986Z</time></trkpt><trkpt lat="45.37506750209107" lon="10.541930505600405"><ele>131.0</ele><time>2026-03-24T14:26:20.986Z</time></trkpt><trkpt lat="45.37509271520076" lon="10.541844401555787"><ele>131.0</ele><time>2026-03-24T14:26:22.986Z</time></trkpt><trkpt lat="45.375114188359596" lon="10.541721426725594"><ele>131.0</ele><time>2026-03-24T14:26:25.986Z</time></trkpt><trkpt lat="45.37514649352639" lon="10.541622693587502"><ele>132.5</ele><time>2026-03-24T14:26:28.986Z</time></trkpt><trkpt lat="45.37516943408092" lon="10.541511544288035"><ele>134.0</ele><time>2026-03-24T14:26:31.986Z</time></trkpt><trkpt lat="45.375213764549954" lon="10.541445425388297"><ele>135.5</ele><time>2026-03-24T14:26:33.989Z</time></trkpt><trkpt lat="45.37528933353453" lon="10.541370432625262"><ele>137.0</ele><time>2026-03-24T14:26:36.989Z</time></trkpt><trkpt lat="45.37536437962894" lon="10.541327121257131"><ele>138.5</ele><time>2026-03-24T14:26:39.988Z</time></trkpt><trkpt lat="45.375447420056084" lon="10.541304490159904"><ele>140.0</ele><time>2026-03-24T14:26:42.988Z</time></trkpt><trkpt lat="45.375519602407195" lon="10.541311854407681"><ele>139.0</ele><time>2026-03-24T14:26:45.988Z</time></trkpt><trkpt lat="45.37560007128529" lon="10.541295195180135"><ele>138.0</ele><time>2026-03-24T14:26:48.988Z</time></trkpt><trkpt lat="45.375672147855546" lon="10.54126801585994"><ele>137.0</ele><time>2026-03-24T14:26:51.988Z</time></trkpt><trkpt lat="45.37573145148643" lon="10.541236867655313"><ele>136.0</ele><time>2026-03-24T14:26:54.988Z</time></trkpt><trkpt lat="45.37579840712349" lon="10.541237775404259"><ele>135.0</ele><time>2026-03-24T14:26:57.988Z</time></trkpt><trkpt lat="45.375865617412266" lon="10.541223796305273"><ele>134.0</ele><time>2026-03-24T14:27:00.988Z</time></trkpt><trkpt lat="45.37592892887226" lon="10.541206192718475"><ele>133.0</ele><time>2026-03-24T14:27:03.988Z</time></trkpt><trkpt lat="45.376000473727906" lon="10.541164574993822"><ele>135.5</ele><time>2026-03-24T14:27:06.988Z</time></trkpt><trkpt lat="45.37608687159179" lon="10.541171739600072"><ele>138.0</ele><time>2026-03-24T14:27:09.988Z</time></trkpt><trkpt lat="45.37615768491545" lon="10.541124792864707"><ele>140.5</ele><time>2026-03-24T14:27:12.988Z</time></trkpt><trkpt lat="45.37622583012702" lon="10.54108504618536"><ele>143.0</ele><time>2026-03-24T14:27:15.988Z</time></trkpt><trkpt lat="45.37629133438738" lon="10.541060598026775"><ele>145.5</ele><time>2026-03-24T14:27:18.988Z</time></trkpt><trkpt lat="45.376362293691336" lon="10.541038034140676"><ele>148.0</ele><time>2026-03-24T14:27:21.988Z</time></trkpt><trkpt lat="45.376431572253985" lon="10.541012804486193"><ele>148.0</ele><time>2026-03-24T14:27:24.988Z</time></trkpt><trkpt lat="45.37650104570783" lon="10.540995245987334"><ele>148.0</ele><time>2026-03-24T14:27:27.988Z</time></trkpt><trkpt lat="45.376571813927264" lon="10.540943617897007"><ele>148.0</ele><time>2026-03-24T14:27:30.988Z</time></trkpt><trkpt lat="45.37664765958325" lon="10.540917205081245"><ele>148.0</ele><time>2026-03-24T14:27:34.987Z</time></trkpt><trkpt lat="45.376717708234594" lon="10.540915320257003"><ele>148.0</ele><time>2026-03-24T14:27:37.987Z</time></trkpt><trkpt lat="45.376770725110084" lon="10.540847204860423"><ele>148.0</ele><time>2026-03-24T14:27:40.987Z</time></trkpt><trkpt lat="45.3768412265035" lon="10.54084068222722"><ele>148.0</ele><time>2026-03-24T14:27:43.987Z</time></trkpt><trkpt lat="45.37690832383633" lon="10.540823459522901"><ele>148.0</ele><time>2026-03-24T14:27:46.987Z</time></trkpt><trkpt lat="45.37696333780375" lon="10.540767637235371"><ele>148.0</ele><time>2026-03-24T14:27:50.987Z</time></trkpt><trkpt lat="45.37702457551349" lon="10.540702740589747"><ele>148.0</ele><time>2026-03-24T14:27:55.987Z</time></trkpt><trkpt lat="45.377095711068954" lon="10.540678048163313"><ele>148.0</ele><time>2026-03-24T14:28:01.987Z</time></trkpt><trkpt lat="45.37716509992043" lon="10.54068612826829"><ele>148.0</ele><time>2026-03-24T14:28:05.987Z</time></trkpt><trkpt lat="45.3772312043373" lon="10.540681518822241"><ele>148.0</ele><time>2026-03-24T14:28:09.987Z</time></trkpt><trkpt lat="45.3772920684235" lon="10.540629723064674"><ele>148.0</ele><time>2026-03-24T14:28:13.987Z</time></trkpt><trkpt lat="45.37736904067669" lon="10.540627435262246"><ele>148.57142857142858</ele><time>2026-03-24T14:28:18.987Z</time></trkpt><trkpt lat="45.37743468417877" lon="10.540614689616431"><ele>149.14285714285714</ele><time>2026-03-24T14:28:22.987Z</time></trkpt><trkpt lat="45.37749643292767" lon="10.540637459572439"><ele>149.71428571428572</ele><time>2026-03-24T14:28:25.987Z</time></trkpt><trkpt lat="45.377571373426996" lon="10.540647125940323"><ele>150.28571428571428</ele><time>2026-03-24T14:28:29.987Z</time></trkpt><trkpt lat="45.37762732355092" lon="10.54060424553155"><ele>150.85714285714286</ele><time>2026-03-24T14:28:32.987Z</time></trkpt><trkpt lat="45.377687580593644" lon="10.54054900677068"><ele>151.42857142857142</ele><time>2026-03-24T14:28:36.986Z</time></trkpt><trkpt lat="45.377759385793524" lon="10.54055518543233"><ele>152.0</ele><time>2026-03-24T14:28:39.989Z</time></trkpt><trkpt lat="45.37782502928599" lon="10.540570771307932"><ele>152.0</ele><time>2026-03-24T14:28:42.989Z</time></trkpt><trkpt lat="45.3778943511696" lon="10.540569222092714"><ele>152.0</ele><time>2026-03-24T14:28:45.989Z</time></trkpt><trkpt lat="45.37796878944689" lon="10.540584775854127"><ele>152.0</ele><time>2026-03-24T14:28:48.99Z</time></trkpt><trkpt lat="45.378007935406856" lon="10.540497893471832"><ele>152.0</ele><time>2026-03-24T14:28:51.99Z</time></trkpt><trkpt lat="45.378045460527694" lon="10.540419493566343"><ele>152.0</ele><time>2026-03-24T14:28:54.99Z</time></trkpt><trkpt lat="45.37808652934958" lon="10.54033370182617"><ele>152.0</ele><time>2026-03-24T14:28:58.99Z</time></trkpt><trkpt lat="45.37813671086187" lon="10.540240077680574"><ele>152.0</ele><time>2026-03-24T14:29:02.99Z</time></trkpt><trkpt lat="45.37816594458402" lon="10.540154356541944"><ele>153.5</ele><time>2026-03-24T14:29:06.99Z</time></trkpt><trkpt lat="45.378211120342016" lon="10.540071417286324"><ele>155.0</ele><time>2026-03-24T14:29:10.99Z</time></trkpt><trkpt lat="45.37823725224002" lon="10.539964242598238"><ele>156.5</ele><time>2026-03-24T14:29:14.99Z</time></trkpt><trkpt lat="45.37827258195064" lon="10.539866386357716"><ele>158.0</ele><time>2026-03-24T14:29:18.99Z</time></trkpt><trkpt lat="45.378301110705564" lon="10.539776580357055"><ele>159.5</ele><time>2026-03-24T14:29:22.99Z</time></trkpt><trkpt lat="45.37832172748216" lon="10.539665118935813"><ele>161.0</ele><time>2026-03-24T14:29:26.989Z</time></trkpt><trkpt lat="45.37832904033507" lon="10.539560855174981"><ele>161.57142857142858</ele><time>2026-03-24T14:29:30.989Z</time></trkpt><trkpt lat="45.37833179369573" lon="10.53947104210564"><ele>162.14285714285714</ele><time>2026-03-24T14:29:33.989Z</time></trkpt><trkpt lat="45.3783475185268" lon="10.539367146967574"><ele>162.71428571428572</ele><time>2026-03-24T14:29:37.989Z</time></trkpt><trkpt lat="45.37836625675129" lon="10.539247683919715"><ele>163.28571428571428</ele><time>2026-03-24T14:29:41.989Z</time></trkpt><trkpt lat="45.37837424660599" lon="10.5391501607606"><ele>163.85714285714286</ele><time>2026-03-24T14:29:44.989Z</time></trkpt><trkpt lat="45.37839028709093" lon="10.539057133615207"><ele>164.42857142857144</ele><time>2026-03-24T14:29:48.989Z</time></trkpt><trkpt lat="45.378385299672935" lon="10.538963867601211"><ele>165.0</ele><time>2026-03-24T14:29:51.989Z</time></trkpt><trkpt lat="45.378395271882994" lon="10.53885015287905"><ele>165.00000000000003</ele><time>2026-03-24T14:29:55.989Z</time></trkpt><trkpt lat="45.37841453307929" lon="10.538764548053011"><ele>165.0</ele><time>2026-03-24T14:29:58.989Z</time></trkpt><trkpt lat="45.37843249634922" lon="10.538665790164947"><ele>165.0</ele><time>2026-03-24T14:30:01.989Z</time></trkpt><trkpt lat="45.378438344059575" lon="10.53856680199568"><ele>165.0</ele><time>2026-03-24T14:30:04.989Z</time></trkpt><trkpt lat="45.37841131419216" lon="10.538480670537032"><ele>165.0</ele><time>2026-03-24T14:30:07.989Z</time></trkpt><trkpt lat="45.37837498388199" lon="10.538367551340544"><ele>165.00000000000003</ele><time>2026-03-24T14:30:10.989Z</time></trkpt><trkpt lat="45.37837387275731" lon="10.538258733594427"><ele>165.0</ele><time>2026-03-24T14:30:13.989Z</time></trkpt><trkpt lat="45.37840008654182" lon="10.53815468775928"><ele>165.42857142857144</ele><time>2026-03-24T14:30:16.989Z</time></trkpt><trkpt lat="45.37844090495706" lon="10.538057860156284"><ele>165.85714285714286</ele><time>2026-03-24T14:30:19.989Z</time></trkpt><trkpt lat="45.378465484627434" lon="10.537965182385957"><ele>166.28571428571428</ele><time>2026-03-24T14:30:22.989Z</time></trkpt><trkpt lat="45.37849645196363" lon="10.5378602820056"><ele>166.71428571428572</ele><time>2026-03-24T14:30:26.988Z</time></trkpt><trkpt lat="45.37850819630097" lon="10.537753811521366"><ele>167.14285714285714</ele><time>2026-03-24T14:30:29.988Z</time></trkpt><trkpt lat="45.378505824758534" lon="10.537646080948743"><ele>167.57142857142858</ele><time>2026-03-24T14:30:32.988Z</time></trkpt><trkpt lat="45.37850786354425" lon="10.537550325152294"><ele>168.0</ele><time>2026-03-24T14:30:35.988Z</time></trkpt><trkpt lat="45.378502786110424" lon="10.537451683684727"><ele>168.83333333333334</ele><time>2026-03-24T14:30:38.988Z</time></trkpt><trkpt lat="45.37848597449691" lon="10.537348471152916"><ele>169.66666666666666</ele><time>2026-03-24T14:30:42.988Z</time></trkpt><trkpt lat="45.3784842884031" lon="10.537232885570328"><ele>170.5</ele><time>2026-03-24T14:30:46.99Z</time></trkpt><trkpt lat="45.37848453872716" lon="10.537118331068196"><ele>171.33333333333331</ele><time>2026-03-24T14:30:50.99Z</time></trkpt><trkpt lat="45.3784812705039" lon="10.53701313593747"><ele>172.16666666666666</ele><time>2026-03-24T14:30:54.991Z</time></trkpt><trkpt lat="45.37849718970943" lon="10.5368894403331"><ele>173.0</ele><time>2026-03-24T14:30:58.99Z</time></trkpt><trkpt lat="45.37854247150835" lon="10.536791404415919"><ele>173.14285714285714</ele><time>2026-03-24T14:31:02.99Z</time></trkpt><trkpt lat="45.37859171176514" lon="10.536708895284386"><ele>173.2857142857143</ele><time>2026-03-24T14:31:05.99Z</time></trkpt><trkpt lat="45.378623850027324" lon="10.536627499283737"><ele>173.42857142857144</ele><time>2026-03-24T14:31:08.99Z</time></trkpt><trkpt lat="45.37868156496745" lon="10.53654051595973"><ele>173.57142857142856</ele><time>2026-03-24T14:31:12.99Z</time></trkpt><trkpt lat="45.3787384953797" lon="10.5364850715151"><ele>173.71428571428572</ele><time>2026-03-24T14:31:16.99Z</time></trkpt><trkpt lat="45.37880396657185" lon="10.536450843881271"><ele>173.85714285714286</ele><time>2026-03-24T14:31:20.99Z</time></trkpt><trkpt lat="45.378875754740925" lon="10.536408563492865"><ele>174.0</ele><time>2026-03-24T14:31:24.99Z</time></trkpt><trkpt lat="45.37893982838044" lon="10.536365910731682"><ele>174.28571428571428</ele><time>2026-03-24T14:31:28.99Z</time></trkpt><trkpt lat="45.378989212192465" lon="10.536307398660714"><ele>174.57142857142858</ele><time>2026-03-24T14:31:31.99Z</time></trkpt><trkpt lat="45.379011697328615" lon="10.536197080804026"><ele>174.85714285714286</ele><time>2026-03-24T14:31:35.99Z</time></trkpt><trkpt lat="45.379039136305856" lon="10.53610010207191"><ele>175.14285714285714</ele><time>2026-03-24T14:31:38.99Z</time></trkpt><trkpt lat="45.379060353895774" lon="10.53598836006857"><ele>175.42857142857142</ele><time>2026-03-24T14:31:41.99Z</time></trkpt><trkpt lat="45.37908994111619" lon="10.535880194665832"><ele>175.71428571428572</ele><time>2026-03-24T14:31:44.99Z</time></trkpt><trkpt lat="45.37914759606175" lon="10.535830301865804"><ele>176.0</ele><time>2026-03-24T14:31:47.99Z</time></trkpt><trkpt lat="45.37916700405787" lon="10.535741979425445"><ele>176.42857142857144</ele><time>2026-03-24T14:31:50.99Z</time></trkpt><trkpt lat="45.379180100130135" lon="10.53564187823867"><ele>176.85714285714286</ele><time>2026-03-24T14:31:53.99Z</time></trkpt><trkpt lat="45.37920904395302" lon="10.535562156945264"><ele>177.28571428571428</ele><time>2026-03-24T14:31:56.989Z</time></trkpt><trkpt lat="45.37924964996262" lon="10.535463006167253"><ele>177.71428571428572</ele><time>2026-03-24T14:32:00.989Z</time></trkpt><trkpt lat="45.379280074993055" lon="10.53538298178001"><ele>178.14285714285714</ele><time>2026-03-24T14:32:03.989Z</time></trkpt><trkpt lat="45.37931537789491" lon="10.535289240280052"><ele>178.57142857142858</ele><time>2026-03-24T14:32:06.989Z</time></trkpt><trkpt lat="45.379338318438066" lon="10.535180416840232"><ele>179.0</ele><time>2026-03-24T14:32:09.989Z</time></trkpt><trkpt lat="45.37938812922202" lon="10.535092598735062"><ele>179.33333333333331</ele><time>2026-03-24T14:32:12.989Z</time></trkpt><trkpt lat="45.37941409229818" lon="10.534994962265058"><ele>179.66666666666666</ele><time>2026-03-24T14:32:15.989Z</time></trkpt><trkpt lat="45.37946056481557" lon="10.534913992217504"><ele>180.0</ele><time>2026-03-24T14:32:18.989Z</time></trkpt><trkpt lat="45.37952467093718" lon="10.534826740130054"><ele>180.33333333333334</ele><time>2026-03-24T14:32:22.989Z</time></trkpt><trkpt lat="45.379556435064025" lon="10.53472451247635"><ele>180.66666666666669</ele><time>2026-03-24T14:32:26.989Z</time></trkpt><trkpt lat="45.37958909364129" lon="10.534623226988423"><ele>181.0</ele><time>2026-03-24T14:32:29.989Z</time></trkpt><trkpt lat="45.379592655223455" lon="10.534530399910082"><ele>181.0</ele><time>2026-03-24T14:32:32.989Z</time></trkpt><trkpt lat="45.379624140416524" lon="10.53443134620017"><ele>181.0</ele><time>2026-03-24T14:32:35.989Z</time></trkpt><trkpt lat="45.37966367893352" lon="10.534346610519446"><ele>181.0</ele><time>2026-03-24T14:32:38.989Z</time></trkpt><trkpt lat="45.37971290359927" lon="10.534282098407331"><ele>181.0</ele><time>2026-03-24T14:32:41.989Z</time></trkpt><trkpt lat="45.37974818199118" lon="10.53420430466979"><ele>181.0</ele><time>2026-03-24T14:32:44.989Z</time></trkpt><trkpt lat="45.379764776292006" lon="10.53409433576803"><ele>181.0</ele><time>2026-03-24T14:32:47.989Z</time></trkpt><trkpt lat="45.379756653298394" lon="10.533969381571582"><ele>181.0</ele><time>2026-03-24T14:32:50.991Z</time></trkpt><trkpt lat="45.379710149771604" lon="10.533857804182324"><ele>181.16666666666669</ele><time>2026-03-24T14:32:53.992Z</time></trkpt><trkpt lat="45.37966656819715" lon="10.533751045779795"><ele>181.33333333333334</ele><time>2026-03-24T14:32:56.991Z</time></trkpt><trkpt lat="45.37964047893413" lon="10.533629628479641"><ele>181.5</ele><time>2026-03-24T14:32:59.992Z</time></trkpt><trkpt lat="45.37964551177654" lon="10.533528401495007"><ele>181.66666666666666</ele><time>2026-03-24T14:33:02.991Z</time></trkpt><trkpt lat="45.37961619945512" lon="10.533445603762868"><ele>181.83333333333331</ele><time>2026-03-24T14:33:04.992Z</time></trkpt><trkpt lat="45.37958753449501" lon="10.533365200088966"><ele>182.0</ele><time>2026-03-24T14:33:06.992Z</time></trkpt><trkpt lat="45.379571448809614" lon="10.533254591778682"><ele>182.83333333333331</ele><time>2026-03-24T14:33:09.992Z</time></trkpt><trkpt lat="45.37958853363968" lon="10.533134397443822"><ele>183.66666666666666</ele><time>2026-03-24T14:33:13.991Z</time></trkpt><trkpt lat="45.379551482180226" lon="10.533040885626708"><ele>184.5</ele><time>2026-03-24T14:33:17.991Z</time></trkpt><trkpt lat="45.37946861875516" lon="10.533003658339256"><ele>185.33333333333334</ele><time>2026-03-24T14:33:21.991Z</time></trkpt><trkpt lat="45.37939307329247" lon="10.53293239099671"><ele>186.16666666666669</ele><time>2026-03-24T14:33:25.991Z</time></trkpt><trkpt lat="45.37933565421409" lon="10.532855043937081"><ele>187.0</ele><time>2026-03-24T14:33:28.991Z</time></trkpt><trkpt lat="45.37929551482166" lon="10.532763363556654"><ele>188.0</ele><time>2026-03-24T14:33:31.991Z</time></trkpt><trkpt lat="45.379269447238656" lon="10.532637796022728"><ele>189.0</ele><time>2026-03-24T14:33:35.991Z</time></trkpt><trkpt lat="45.37922471068897" lon="10.532568051105601"><ele>190.0</ele><time>2026-03-24T14:33:41.991Z</time></trkpt><trkpt lat="45.37914093769296" lon="10.532502765186425"><ele>191.0</ele><time>2026-03-24T14:33:48.991Z</time></trkpt><trkpt lat="45.37906483231941" lon="10.532434350791132"><ele>191.99999999999997</ele><time>2026-03-24T14:33:52.991Z</time></trkpt><trkpt lat="45.37901118691596" lon="10.532340554648018"><ele>193.0</ele><time>2026-03-24T14:33:55.991Z</time></trkpt><trkpt lat="45.3790022124132" lon="10.532225693413213"><ele>192.99999999999997</ele><time>2026-03-24T14:33:58.991Z</time></trkpt><trkpt lat="45.378994136386844" lon="10.532108919408682"><ele>193.0</ele><time>2026-03-24T14:34:01.991Z</time></trkpt><trkpt lat="45.3790006906721" lon="10.531996480512253"><ele>193.0</ele><time>2026-03-24T14:34:04.991Z</time></trkpt><trkpt lat="45.379017909517216" lon="10.53187930292772"><ele>193.0</ele><time>2026-03-24T14:34:07.991Z</time></trkpt><trkpt lat="45.37904972887263" lon="10.531777820766848"><ele>192.99999999999997</ele><time>2026-03-24T14:34:10.991Z</time></trkpt><trkpt lat="45.37908880206317" lon="10.531672835476753"><ele>193.0</ele><time>2026-03-24T14:34:13.99Z</time></trkpt><trkpt lat="45.37911550294186" lon="10.531558001066111"><ele>192.33333333333331</ele><time>2026-03-24T14:34:16.99Z</time></trkpt><trkpt lat="45.37911732869329" lon="10.531443730492292"><ele>191.66666666666666</ele><time>2026-03-24T14:34:19.99Z</time></trkpt><trkpt lat="45.37909381696544" lon="10.531341927771686"><ele>191.0</ele><time>2026-03-24T14:34:22.99Z</time></trkpt><trkpt lat="45.37905076603601" lon="10.531268914002721"><ele>190.33333333333331</ele><time>2026-03-24T14:34:25.99Z</time></trkpt><trkpt lat="45.379017498988524" lon="10.531169476544841"><ele>189.66666666666666</ele><time>2026-03-24T14:34:28.99Z</time></trkpt><trkpt lat="45.37896524763376" lon="10.531082003516264"><ele>189.0</ele><time>2026-03-24T14:34:31.99Z</time></trkpt><trkpt lat="45.378912737503214" lon="10.531011290678478"><ele>187.33333333333334</ele><time>2026-03-24T14:34:34.99Z</time></trkpt><trkpt lat="45.378851587863394" lon="10.53093326763735"><ele>185.66666666666666</ele><time>2026-03-24T14:34:37.99Z</time></trkpt><trkpt lat="45.37880269293181" lon="10.530854525978176"><ele>184.0</ele><time>2026-03-24T14:34:40.99Z</time></trkpt><trkpt lat="45.3787540423444" lon="10.530777596061936"><ele>182.33333333333331</ele><time>2026-03-24T14:34:43.99Z</time></trkpt><trkpt lat="45.378695903151296" lon="10.530704296941993"><ele>180.66666666666666</ele><time>2026-03-24T14:34:46.99Z</time></trkpt><trkpt lat="45.378640719443446" lon="10.530632263481776"><ele>179.0</ele><time>2026-03-24T14:34:49.988Z</time></trkpt><trkpt lat="45.37859407601724" lon="10.530539152288153"><ele>177.33333333333331</ele><time>2026-03-24T14:34:52.987Z</time></trkpt><trkpt lat="45.378542503311486" lon="10.530462220071051"><ele>175.66666666666666</ele><time>2026-03-24T14:34:55.985Z</time></trkpt><trkpt lat="45.37849289411935" lon="10.53038931623075"><ele>174.0</ele><time>2026-03-24T14:34:58.987Z</time></trkpt><trkpt lat="45.37842967412467" lon="10.530356718301713"><ele>172.33333333333334</ele><time>2026-03-24T14:35:01.985Z</time></trkpt><trkpt lat="45.378373345232006" lon="10.53043830935753"><ele>170.66666666666669</ele><time>2026-03-24T14:35:04.986Z</time></trkpt><trkpt lat="45.37841619006375" lon="10.530538355243655"><ele>169.0</ele><time>2026-03-24T14:35:07.984Z</time></trkpt><trkpt lat="45.378461464783136" lon="10.530626414838036"><ele>169.0</ele><time>2026-03-24T14:35:10.984Z</time></trkpt><trkpt lat="45.37851209890592" lon="10.530715846006288"><ele>169.0</ele><time>2026-03-24T14:35:13.984Z</time></trkpt><trkpt lat="45.37855167470545" lon="10.530805707164557"><ele>169.0</ele><time>2026-03-24T14:35:16.983Z</time></trkpt><trkpt lat="45.37857265753981" lon="10.530907360194554"><ele>169.0</ele><time>2026-03-24T14:35:19.983Z</time></trkpt><trkpt lat="45.37856529136828" lon="10.531013094728399"><ele>169.0</ele><time>2026-03-24T14:35:22.983Z</time></trkpt><trkpt lat="45.378541626911236" lon="10.531112829688908"><ele>169.0</ele><time>2026-03-24T14:35:25.982Z</time></trkpt><trkpt lat="45.378497723012735" lon="10.531190189691896"><ele>169.0</ele><time>2026-03-24T14:35:28.982Z</time></trkpt><trkpt lat="45.3784391017505" lon="10.531255628661112"><ele>169.0</ele><time>2026-03-24T14:35:31.982Z</time></trkpt><trkpt lat="45.37837226438242" lon="10.531321786265007"><ele>169.0</ele><time>2026-03-24T14:35:34.982Z</time></trkpt><trkpt lat="45.37829928634214" lon="10.531353959013746"><ele>169.0</ele><time>2026-03-24T14:35:37.982Z</time></trkpt><trkpt lat="45.37822324620319" lon="10.531379341811432"><ele>169.0</ele><time>2026-03-24T14:35:40.981Z</time></trkpt><trkpt lat="45.37814718952316" lon="10.531378368825361"><ele>169.0</ele><time>2026-03-24T14:35:43.981Z</time></trkpt><trkpt lat="45.37806465448046" lon="10.53137336907852"><ele>169.0</ele><time>2026-03-24T14:35:46.981Z</time></trkpt><trkpt lat="45.37800413548716" lon="10.531337520560344"><ele>166.33333333333334</ele><time>2026-03-24T14:35:48.981Z</time></trkpt><trkpt lat="45.377929052513174" lon="10.531292907250927"><ele>163.66666666666669</ele><time>2026-03-24T14:35:51.981Z</time></trkpt><trkpt lat="45.37784175281823" lon="10.531262276951141"><ele>161.0</ele><time>2026-03-24T14:35:54.981Z</time></trkpt><trkpt lat="45.377758165849414" lon="10.53125030960496"><ele>158.33333333333334</ele><time>2026-03-24T14:35:57.981Z</time></trkpt><trkpt lat="45.37768668398158" lon="10.531247070914064"><ele>155.66666666666666</ele><time>2026-03-24T14:36:00.981Z</time></trkpt><trkpt lat="45.377607577956866" lon="10.531218684983235"><ele>153.0</ele><time>2026-03-24T14:36:03.981Z</time></trkpt><trkpt lat="45.377536811701496" lon="10.53117333230781"><ele>152.33333333333334</ele><time>2026-03-24T14:36:06.981Z</time></trkpt><trkpt lat="45.37746909964132" lon="10.531132617799752"><ele>151.66666666666666</ele><time>2026-03-24T14:36:09.981Z</time></trkpt><trkpt lat="45.377388814446626" lon="10.531130696210273"><ele>151.0</ele><time>2026-03-24T14:36:12.981Z</time></trkpt><trkpt lat="45.37730759517183" lon="10.531132787564086"><ele>150.33333333333331</ele><time>2026-03-24T14:36:15.981Z</time></trkpt><trkpt lat="45.37722253370359" lon="10.531134280093276"><ele>149.66666666666666</ele><time>2026-03-24T14:36:18.98Z</time></trkpt><trkpt lat="45.37716485774139" lon="10.531183244546284"><ele>149.0</ele><time>2026-03-24T14:36:21.98Z</time></trkpt><trkpt lat="45.377093143304826" lon="10.531218785450553"><ele>147.57142857142856</ele><time>2026-03-24T14:36:24.98Z</time></trkpt><trkpt lat="45.37703123239929" lon="10.531259997631192"><ele>146.14285714285714</ele><time>2026-03-24T14:36:27.98Z</time></trkpt><trkpt lat="45.376968302304796" lon="10.53131672274324"><ele>144.71428571428572</ele><time>2026-03-24T14:36:30.98Z</time></trkpt><trkpt lat="45.3769038480153" lon="10.53139196443131"><ele>143.28571428571428</ele><time>2026-03-24T14:36:33.98Z</time></trkpt><trkpt lat="45.3768725813405" lon="10.531486414991132"><ele>141.85714285714286</ele><time>2026-03-24T14:36:36.98Z</time></trkpt><trkpt lat="45.37685138871196" lon="10.531588701856624"><ele>140.42857142857142</ele><time>2026-03-24T14:36:39.98Z</time></trkpt><trkpt lat="45.37682667136522" lon="10.531688252368673"><ele>139.0</ele><time>2026-03-24T14:36:42.98Z</time></trkpt><trkpt lat="45.376823753903466" lon="10.531793088588882"><ele>139.0</ele><time>2026-03-24T14:36:45.98Z</time></trkpt><trkpt lat="45.37680123755998" lon="10.53188769660449"><ele>139.0</ele><time>2026-03-24T14:36:48.98Z</time></trkpt><trkpt lat="45.37677343640154" lon="10.531981571864128"><ele>139.0</ele><time>2026-03-24T14:36:51.98Z</time></trkpt><trkpt lat="45.37675508196373" lon="10.53208574395335"><ele>139.0</ele><time>2026-03-24T14:36:54.98Z</time></trkpt><trkpt lat="45.37674416235629" lon="10.532186786456023"><ele>139.0</ele><time>2026-03-24T14:36:57.98Z</time></trkpt><trkpt lat="45.37670172793647" lon="10.532270195709382"><ele>139.0</ele><time>2026-03-24T14:37:00.98Z</time></trkpt><trkpt lat="45.37663286825796" lon="10.532294162445728"><ele>139.0</ele><time>2026-03-24T14:37:03.983Z</time></trkpt><trkpt lat="45.37656326485934" lon="10.532281156085459"><ele>139.42857142857142</ele><time>2026-03-24T14:37:06.983Z</time></trkpt><trkpt lat="45.376502553149976" lon="10.532240741417269"><ele>139.85714285714286</ele><time>2026-03-24T14:37:09.983Z</time></trkpt><trkpt lat="45.37644359361678" lon="10.532188158752204"><ele>140.28571428571428</ele><time>2026-03-24T14:37:12.983Z</time></trkpt><trkpt lat="45.37636155014655" lon="10.532171263348815"><ele>140.71428571428572</ele><time>2026-03-24T14:37:16.983Z</time></trkpt><trkpt lat="45.376298427168216" lon="10.532140126781657"><ele>141.14285714285714</ele><time>2026-03-24T14:37:19.983Z</time></trkpt><trkpt lat="45.37622674537767" lon="10.532122139674005"><ele>141.57142857142856</ele><time>2026-03-24T14:37:22.983Z</time></trkpt><trkpt lat="45.376149355039594" lon="10.532079106781227"><ele>142.0</ele><time>2026-03-24T14:37:25.983Z</time></trkpt><trkpt lat="45.37607920152109" lon="10.532032695415008"><ele>140.28571428571428</ele><time>2026-03-24T14:37:28.983Z</time></trkpt><trkpt lat="45.376014342625595" lon="10.531996432468253"><ele>138.57142857142856</ele><time>2026-03-24T14:37:31.983Z</time></trkpt><trkpt lat="45.37594364574863" lon="10.531975113347773"><ele>136.85714285714286</ele><time>2026-03-24T14:37:34.983Z</time></trkpt><trkpt lat="45.375868540481875" lon="10.53196120804781"><ele>135.14285714285714</ele><time>2026-03-24T14:37:37.983Z</time></trkpt><trkpt lat="45.37579808183348" lon="10.531936839167367"><ele>133.42857142857144</ele><time>2026-03-24T14:37:40.983Z</time></trkpt><trkpt lat="45.37572059883963" lon="10.531921962326924"><ele>131.71428571428572</ele><time>2026-03-24T14:37:43.982Z</time></trkpt><trkpt lat="45.37564718259825" lon="10.531912189157385"><ele>130.0</ele><time>2026-03-24T14:37:46.982Z</time></trkpt><trkpt lat="45.37557108508127" lon="10.531895345378814"><ele>129.14285714285717</ele><time>2026-03-24T14:37:49.982Z</time></trkpt><trkpt lat="45.37549802583347" lon="10.531884376487259"><ele>128.28571428571428</ele><time>2026-03-24T14:37:52.982Z</time></trkpt><trkpt lat="45.375437134878034" lon="10.531820754295232"><ele>127.42857142857144</ele><time>2026-03-24T14:37:55.982Z</time></trkpt><trkpt lat="45.375440749874834" lon="10.531699152659982"><ele>126.57142857142858</ele><time>2026-03-24T14:37:58.982Z</time></trkpt><trkpt lat="45.37542821218625" lon="10.531607172212983"><ele>125.71428571428572</ele><time>2026-03-24T14:38:01.982Z</time></trkpt><trkpt lat="45.37542756791277" lon="10.531516654357528"><ele>124.85714285714286</ele><time>2026-03-24T14:38:04.982Z</time></trkpt><trkpt lat="45.37542030734307" lon="10.531412311127445"><ele>124.0</ele><time>2026-03-24T14:38:07.982Z</time></trkpt><trkpt lat="45.375406094633696" lon="10.531322873771353"><ele>124.0</ele><time>2026-03-24T14:38:10.982Z</time></trkpt><trkpt lat="45.375395367288476" lon="10.531228107019498"><ele>124.00000000000001</ele><time>2026-03-24T14:38:13.982Z</time></trkpt><trkpt lat="45.37537512269439" lon="10.531321939641872"><ele>124.0</ele><time>2026-03-24T14:38:18.982Z</time></trkpt><trkpt lat="45.37539157704016" lon="10.531410830286383"><ele>124.0</ele><time>2026-03-24T14:38:21.982Z</time></trkpt><trkpt lat="45.375398892101565" lon="10.531526227945664"><ele>124.00000000000001</ele><time>2026-03-24T14:38:25.982Z</time></trkpt><trkpt lat="45.37540644638601" lon="10.531618294286313"><ele>124.0</ele><time>2026-03-24T14:38:28.982Z</time></trkpt><trkpt lat="45.37540116559447" lon="10.531719742560934"><ele>124.0</ele><time>2026-03-24T14:38:31.982Z</time></trkpt><trkpt lat="45.37538089536495" lon="10.531811670788569"><ele>124.00000000000001</ele><time>2026-03-24T14:38:34.982Z</time></trkpt><trkpt lat="45.37531160722907" lon="10.531872317778063"><ele>124.0</ele><time>2026-03-24T14:38:38.981Z</time></trkpt><trkpt lat="45.37523764674532" lon="10.531894969389748"><ele>124.0</ele><time>2026-03-24T14:38:41.981Z</time></trkpt><trkpt lat="45.3751761776506" lon="10.531932858816662"><ele>124.0</ele><time>2026-03-24T14:38:44.981Z</time></trkpt><trkpt lat="45.375095258725906" lon="10.531950173193687"><ele>124.00000000000001</ele><time>2026-03-24T14:38:47.981Z</time></trkpt><trkpt lat="45.375029285965574" lon="10.531988638664613"><ele>124.0</ele><time>2026-03-24T14:38:50.981Z</time></trkpt><trkpt lat="45.37497698977148" lon="10.53206243457021"><ele>124.42857142857143</ele><time>2026-03-24T14:38:53.981Z</time></trkpt><trkpt lat="45.37493697451289" lon="10.532134819354171"><ele>124.85714285714286</ele><time>2026-03-24T14:38:56.981Z</time></trkpt><trkpt lat="45.374867774722" lon="10.532186287599249"><ele>125.28571428571429</ele><time>2026-03-24T14:38:59.981Z</time></trkpt><trkpt lat="45.37479948819342" lon="10.532189298588905"><ele>125.71428571428572</ele><time>2026-03-24T14:39:02.981Z</time></trkpt><trkpt lat="45.37472297124625" lon="10.532195304850326"><ele>126.14285714285714</ele><time>2026-03-24T14:39:05.981Z</time></trkpt><trkpt lat="45.374650966313354" lon="10.532187901170824"><ele>126.57142857142858</ele><time>2026-03-24T14:39:08.983Z</time></trkpt><trkpt lat="45.374576492079015" lon="10.53218451648313"><ele>127.0</ele><time>2026-03-24T14:39:11.984Z</time></trkpt><trkpt lat="45.374501192866056" lon="10.532158071045487"><ele>126.71428571428572</ele><time>2026-03-24T14:39:14.983Z</time></trkpt><trkpt lat="45.37443869198855" lon="10.532101651168233"><ele>126.42857142857142</ele><time>2026-03-24T14:39:17.984Z</time></trkpt><trkpt lat="45.37440697350454" lon="10.532017778637485"><ele>126.14285714285714</ele><time>2026-03-24T14:39:20.984Z</time></trkpt><trkpt lat="45.37436374211213" lon="10.531936099468316"><ele>125.85714285714286</ele><time>2026-03-24T14:39:23.983Z</time></trkpt><trkpt lat="45.374294455159294" lon="10.531876688825546"><ele>125.57142857142858</ele><time>2026-03-24T14:39:26.983Z</time></trkpt><trkpt lat="45.37425156414441" lon="10.531795803933361"><ele>125.28571428571428</ele><time>2026-03-24T14:39:29.983Z</time></trkpt><trkpt lat="45.37418065516947" lon="10.531735921328353"><ele>125.0</ele><time>2026-03-24T14:39:32.983Z</time></trkpt><trkpt lat="45.37411098209608" lon="10.531689517504674"><ele>125.0</ele><time>2026-03-24T14:39:35.983Z</time></trkpt><trkpt lat="45.374041929697825" lon="10.531657939723246"><ele>125.0</ele><time>2026-03-24T14:39:38.983Z</time></trkpt><trkpt lat="45.373976159882076" lon="10.531646756725475"><ele>125.0</ele><time>2026-03-24T14:39:41.983Z</time></trkpt><trkpt lat="45.37391064568432" lon="10.531637307020656"><ele>125.0</ele><time>2026-03-24T14:39:44.983Z</time></trkpt><trkpt lat="45.3738245910765" lon="10.531628675427738"><ele>125.0</ele><time>2026-03-24T14:39:48.983Z</time></trkpt><trkpt lat="45.37375721234358" lon="10.531626706685351"><ele>125.0</ele><time>2026-03-24T14:39:51.983Z</time></trkpt><trkpt lat="45.37367631989846" lon="10.531639445622385"><ele>125.0</ele><time>2026-03-24T14:39:54.983Z</time></trkpt><trkpt lat="45.37359792225964" lon="10.531642456002157"><ele>124.57142857142857</ele><time>2026-03-24T14:39:57.982Z</time></trkpt><trkpt lat="45.37352174437579" lon="10.531640387648572"><ele>124.14285714285714</ele><time>2026-03-24T14:40:00.982Z</time></trkpt><trkpt lat="45.373444886161565" lon="10.531656130503004"><ele>123.71428571428571</ele><time>2026-03-24T14:40:03.982Z</time></trkpt><trkpt lat="45.3733783192987" lon="10.531642444411213"><ele>123.28571428571428</ele><time>2026-03-24T14:40:06.982Z</time></trkpt><trkpt lat="45.37332862807073" lon="10.53154274815037"><ele>122.85714285714286</ele><time>2026-03-24T14:40:09.982Z</time></trkpt><trkpt lat="45.37331237994582" lon="10.531452828684364"><ele>122.42857142857142</ele><time>2026-03-24T14:40:11.982Z</time></trkpt><trkpt lat="45.37330371844678" lon="10.531360878589654"><ele>121.99999999999999</ele><time>2026-03-24T14:40:14.982Z</time></trkpt><trkpt lat="45.37329964492227" lon="10.531264616656715"><ele>121.16666666666666</ele><time>2026-03-24T14:40:17.982Z</time></trkpt><trkpt lat="45.37329111053123" lon="10.531152303507218"><ele>120.33333333333333</ele><time>2026-03-24T14:40:20.982Z</time></trkpt><trkpt lat="45.373288488505466" lon="10.531044492007467"><ele>119.5</ele><time>2026-03-24T14:40:23.982Z</time></trkpt><trkpt lat="45.37328783053619" lon="10.53091989072772"><ele>118.66666666666666</ele><time>2026-03-24T14:40:26.982Z</time></trkpt><trkpt lat="45.37336545929352" lon="10.530865865907863"><ele>117.83333333333333</ele><time>2026-03-24T14:40:29.982Z</time></trkpt><trkpt lat="45.37344130080213" lon="10.53086451240929"><ele>117.0</ele><time>2026-03-24T14:40:32.982Z</time></trkpt><trkpt lat="45.373508074147985" lon="10.530859583213202"><ele>117.0</ele><time>2026-03-24T14:40:35.982Z</time></trkpt><trkpt lat="45.373580285774736" lon="10.530833609415302"><ele>117.00000000000001</ele><time>2026-03-24T14:40:38.982Z</time></trkpt><trkpt lat="45.373652811127336" lon="10.53082440942576"><ele>117.0</ele><time>2026-03-24T14:40:41.982Z</time></trkpt><trkpt lat="45.373719608784796" lon="10.530785356368524"><ele>117.0</ele><time>2026-03-24T14:40:44.982Z</time></trkpt><trkpt lat="45.37374711414439" lon="10.530684769477846"><ele>117.00000000000001</ele><time>2026-03-24T14:40:47.982Z</time></trkpt><trkpt lat="45.37374087636543" lon="10.530577777895127"><ele>117.0</ele><time>2026-03-24T14:40:50.981Z</time></trkpt><trkpt lat="45.373724571069424" lon="10.530481158509456"><ele>117.0</ele><time>2026-03-24T14:40:53.981Z</time></trkpt><trkpt lat="45.373715319192364" lon="10.530374468656799"><ele>116.71428571428572</ele><time>2026-03-24T14:40:56.981Z</time></trkpt><trkpt lat="45.37370415159144" lon="10.53027734184296"><ele>116.42857142857144</ele><time>2026-03-24T14:40:59.981Z</time></trkpt><trkpt lat="45.37369251963259" lon="10.530176887094896"><ele>116.14285714285714</ele><time>2026-03-24T14:41:02.981Z</time></trkpt><trkpt lat="45.37369202172701" lon="10.530069940949724"><ele>115.85714285714286</ele><time>2026-03-24T14:41:05.981Z</time></trkpt><trkpt lat="45.37368512477153" lon="10.529966228247682"><ele>115.57142857142857</ele><time>2026-03-24T14:41:08.981Z</time></trkpt><trkpt lat="45.37367741116299" lon="10.529864749407341"><ele>115.28571428571428</ele><time>2026-03-24T14:41:11.981Z</time></trkpt><trkpt lat="45.373662401631684" lon="10.529767283290042"><ele>114.99999999999999</ele><time>2026-03-24T14:41:14.984Z</time></trkpt><trkpt lat="45.37366238753807" lon="10.529662737994457"><ele>114.99999999999999</ele><time>2026-03-24T14:41:17.984Z</time></trkpt><trkpt lat="45.373655079596205" lon="10.52956183421198"><ele>115.0</ele><time>2026-03-24T14:41:20.984Z</time></trkpt><trkpt lat="45.37364429094786" lon="10.529458142301884"><ele>114.99999999999999</ele><time>2026-03-24T14:41:23.984Z</time></trkpt><trkpt lat="45.373636199255934" lon="10.529357637745463"><ele>114.99999999999999</ele><time>2026-03-24T14:41:26.985Z</time></trkpt><trkpt lat="45.373638053152426" lon="10.529252457842688"><ele>115.0</ele><time>2026-03-24T14:41:29.984Z</time></trkpt><trkpt lat="45.37361494311017" lon="10.529152870447732"><ele>114.99999999999999</ele><time>2026-03-24T14:41:32.984Z</time></trkpt><trkpt lat="45.37361073968082" lon="10.529043831290998"><ele>114.99999999999999</ele><time>2026-03-24T14:41:35.984Z</time></trkpt><trkpt lat="45.37360081646891" lon="10.528941593373474"><ele>114.66666666666667</ele><time>2026-03-24T14:41:38.984Z</time></trkpt><trkpt lat="45.37358448337266" lon="10.528833292070019"><ele>114.33333333333334</ele><time>2026-03-24T14:41:41.984Z</time></trkpt><trkpt lat="45.373582552674335" lon="10.528726418877916"><ele>114.0</ele><time>2026-03-24T14:41:44.984Z</time></trkpt><trkpt lat="45.37357246285353" lon="10.528616988810674"><ele>113.66666666666666</ele><time>2026-03-24T14:41:47.984Z</time></trkpt><trkpt lat="45.37356623170643" lon="10.528502378167696"><ele>113.33333333333333</ele><time>2026-03-24T14:41:50.984Z</time></trkpt><trkpt lat="45.373615023533034" lon="10.528420051651338"><ele>113.0</ele><time>2026-03-24T14:41:54.984Z</time></trkpt><trkpt lat="45.37369926330862" lon="10.528468811972408"><ele>112.99999999999999</ele><time>2026-03-24T14:41:57.984Z</time></trkpt><trkpt lat="45.3737799130926" lon="10.528481182039569"><ele>113.0</ele><time>2026-03-24T14:42:00.984Z</time></trkpt><trkpt lat="45.373859865825935" lon="10.528524622064607"><ele>113.0</ele><time>2026-03-24T14:42:04.983Z</time></trkpt><trkpt lat="45.373944212968354" lon="10.528558298561293"><ele>113.0</ele><time>2026-03-24T14:42:07.983Z</time></trkpt><trkpt lat="45.37401921178719" lon="10.528587442731721"><ele>112.99999999999999</ele><time>2026-03-24T14:42:10.983Z</time></trkpt><trkpt lat="45.37408979118243" lon="10.528621253279713"><ele>113.0</ele><time>2026-03-24T14:42:13.983Z</time></trkpt><trkpt lat="45.374161142165974" lon="10.528656925945448"><ele>112.99999999999999</ele><time>2026-03-24T14:42:16.983Z</time></trkpt><trkpt lat="45.374232661681575" lon="10.528692868749415"><ele>113.0</ele><time>2026-03-24T14:42:19.983Z</time></trkpt><trkpt lat="45.37431955116021" lon="10.528740052682787"><ele>113.0</ele><time>2026-03-24T14:42:22.983Z</time></trkpt><trkpt lat="45.37439275930036" lon="10.52878625867989"><ele>113.0</ele><time>2026-03-24T14:42:25.983Z</time></trkpt><trkpt lat="45.374477447780336" lon="10.528807063355138"><ele>112.99999999999999</ele><time>2026-03-24T14:42:28.983Z</time></trkpt><trkpt lat="45.37455621110642" lon="10.528845585411325"><ele>113.0</ele><time>2026-03-24T14:42:31.983Z</time></trkpt><trkpt lat="45.37463033828452" lon="10.528889581576154"><ele>113.66666666666666</ele><time>2026-03-24T14:42:34.983Z</time></trkpt><trkpt lat="45.37470771269391" lon="10.528930704140585"><ele>114.33333333333333</ele><time>2026-03-24T14:42:37.983Z</time></trkpt><trkpt lat="45.374787501102645" lon="10.528981893851524"><ele>115.0</ele><time>2026-03-24T14:42:40.983Z</time></trkpt><trkpt lat="45.37486987800648" lon="10.529007616291112"><ele>115.66666666666666</ele><time>2026-03-24T14:42:43.983Z</time></trkpt><trkpt lat="45.37493319264814" lon="10.529011705466388"><ele>116.33333333333333</ele><time>2026-03-24T14:42:45.983Z</time></trkpt><trkpt lat="45.37499598966399" lon="10.529000487178712"><ele>117.0</ele><time>2026-03-24T14:42:47.983Z</time></trkpt><trkpt lat="45.3750747287694" lon="10.52903144234432"><ele>117.0</ele><time>2026-03-24T14:42:50.983Z</time></trkpt><trkpt lat="45.37512649434277" lon="10.529103834016476"><ele>117.00000000000001</ele><time>2026-03-24T14:42:53.983Z</time></trkpt><trkpt lat="45.37514253262453" lon="10.5291937544607"><ele>117.0</ele><time>2026-03-24T14:43:10.982Z</time></trkpt><trkpt lat="45.37514698773468" lon="10.529286734961822"><ele>117.0</ele><time>2026-03-24T14:43:18.982Z</time></trkpt><trkpt lat="45.37515711202721" lon="10.529378329512955"><ele>117.00000000000001</ele><time>2026-03-24T14:43:27.985Z</time></trkpt><trkpt lat="45.375224586286315" lon="10.529405046525195"><ele>117.0</ele><time>2026-03-24T14:43:36.985Z</time></trkpt><trkpt lat="45.37529212775869" lon="10.529398175847042"><ele>117.0</ele><time>2026-03-24T14:43:43.985Z</time></trkpt><trkpt lat="45.375364629128384" lon="10.529384594922185"><ele>117.0</ele><time>2026-03-24T14:43:50.985Z</time></trkpt><trkpt lat="45.375432160010796" lon="10.52936829774516"><ele>117.0</ele><time>2026-03-24T14:43:56.985Z</time></trkpt></trkseg></trk></gpx>